<?xml version="1.0" encoding="UTF-8" standalone="no" ?>
<gpx xmlns="http://www.topografix.com/GPX/1/1" xmlns:xsi="http://www.w3.org/2001/XMLSchema-instance" xsi:schemaLocation="http://www.topografix.com/GPX/1/1 http://www.topografix.com/GPX/1/1/gpx.xsd" version="1.1" creator="VisuGPX - https://www.visugpx.com">
  <metadata>
    <name>Marteloise2022 43</name>
  </metadata>
  <trk>
    <name><![CDATA[Marteloise2022 prepa2]]></name>
    <extensions>
      <line xmlns="http://www.topografix.com/GPX/gpx_style/0/2">
        <color>0000FF</color>
        <width>4</width>
      </line>
    </extensions>
    <trkseg>
      <trkpt lat="45.8504" lon="1.39207">
        <ele>307</ele>
        <time>2022-05-18T15:06:49Z</time>
      </trkpt>
      <trkpt lat="45.85043" lon="1.39177">
        <ele>324</ele>
        <time>2022-05-18T15:06:54Z</time>
      </trkpt>
      <trkpt lat="45.85049" lon="1.39151">
        <ele>316</ele>
        <time>2022-05-18T15:06:57Z</time>
      </trkpt>
      <trkpt lat="45.85054" lon="1.39124">
        <ele>312</ele>
        <time>2022-05-18T15:07:00Z</time>
      </trkpt>
      <trkpt lat="45.8506" lon="1.39099">
        <ele>311</ele>
        <time>2022-05-18T15:07:03Z</time>
      </trkpt>
      <trkpt lat="45.85065" lon="1.39076">
        <ele>311</ele>
        <time>2022-05-18T15:07:06Z</time>
      </trkpt>
      <trkpt lat="45.85069" lon="1.39053">
        <ele>311</ele>
        <time>2022-05-18T15:07:09Z</time>
      </trkpt>
      <trkpt lat="45.85072" lon="1.39027">
        <ele>311</ele>
        <time>2022-05-18T15:07:13Z</time>
      </trkpt>
      <trkpt lat="45.85078" lon="1.38999">
        <ele>311</ele>
        <time>2022-05-18T15:07:18Z</time>
      </trkpt>
      <trkpt lat="45.85085" lon="1.38975">
        <ele>310</ele>
        <time>2022-05-18T15:07:21Z</time>
      </trkpt>
      <trkpt lat="45.85094" lon="1.38952">
        <ele>309</ele>
        <time>2022-05-18T15:07:24Z</time>
      </trkpt>
      <trkpt lat="45.85102" lon="1.38931">
        <ele>308</ele>
        <time>2022-05-18T15:07:27Z</time>
      </trkpt>
      <trkpt lat="45.85109" lon="1.38912">
        <ele>308</ele>
        <time>2022-05-18T15:07:30Z</time>
      </trkpt>
      <trkpt lat="45.85116" lon="1.38886">
        <ele>308</ele>
        <time>2022-05-18T15:07:34Z</time>
      </trkpt>
      <trkpt lat="45.85124" lon="1.38868">
        <ele>309</ele>
        <time>2022-05-18T15:07:37Z</time>
      </trkpt>
      <trkpt lat="45.85133" lon="1.38845">
        <ele>309</ele>
        <time>2022-05-18T15:07:41Z</time>
      </trkpt>
      <trkpt lat="45.85141" lon="1.38825">
        <ele>309</ele>
        <time>2022-05-18T15:07:44Z</time>
      </trkpt>
      <trkpt lat="45.8515" lon="1.38802">
        <ele>309</ele>
        <time>2022-05-18T15:07:47Z</time>
      </trkpt>
      <trkpt lat="45.85158" lon="1.38777">
        <ele>310</ele>
        <time>2022-05-18T15:07:50Z</time>
      </trkpt>
      <trkpt lat="45.85166" lon="1.38754">
        <ele>311</ele>
        <time>2022-05-18T15:07:53Z</time>
      </trkpt>
      <trkpt lat="45.85174" lon="1.38731">
        <ele>312</ele>
        <time>2022-05-18T15:07:56Z</time>
      </trkpt>
      <trkpt lat="45.85183" lon="1.38708">
        <ele>313</ele>
        <time>2022-05-18T15:07:59Z</time>
      </trkpt>
      <trkpt lat="45.85192" lon="1.38683">
        <ele>313</ele>
        <time>2022-05-18T15:08:02Z</time>
      </trkpt>
      <trkpt lat="45.85205" lon="1.3866">
        <ele>315</ele>
        <time>2022-05-18T15:08:07Z</time>
      </trkpt>
      <trkpt lat="45.85213" lon="1.38639">
        <ele>318</ele>
        <time>2022-05-18T15:08:23Z</time>
      </trkpt>
      <trkpt lat="45.85201" lon="1.38618">
        <ele>321</ele>
        <time>2022-05-18T15:08:29Z</time>
      </trkpt>
      <trkpt lat="45.85192" lon="1.38595">
        <ele>323</ele>
        <time>2022-05-18T15:08:35Z</time>
      </trkpt>
      <trkpt lat="45.85196" lon="1.38561">
        <ele>324</ele>
        <time>2022-05-18T15:08:41Z</time>
      </trkpt>
      <trkpt lat="45.85195" lon="1.38529">
        <ele>325</ele>
        <time>2022-05-18T15:08:47Z</time>
      </trkpt>
      <trkpt lat="45.85188" lon="1.38495">
        <ele>327</ele>
        <time>2022-05-18T15:08:53Z</time>
      </trkpt>
      <trkpt lat="45.85181" lon="1.38464">
        <ele>329</ele>
        <time>2022-05-18T15:08:58Z</time>
      </trkpt>
      <trkpt lat="45.85172" lon="1.38447">
        <ele>330</ele>
        <time>2022-05-18T15:09:01Z</time>
      </trkpt>
      <trkpt lat="45.85161" lon="1.38435">
        <ele>330</ele>
        <time>2022-05-18T15:09:04Z</time>
      </trkpt>
      <trkpt lat="45.85149" lon="1.38421">
        <ele>331</ele>
        <time>2022-05-18T15:09:07Z</time>
      </trkpt>
      <trkpt lat="45.85134" lon="1.38409">
        <ele>331</ele>
        <time>2022-05-18T15:09:10Z</time>
      </trkpt>
      <trkpt lat="45.85124" lon="1.38394">
        <ele>332</ele>
        <time>2022-05-18T15:09:13Z</time>
      </trkpt>
      <trkpt lat="45.85123" lon="1.38373">
        <ele>332</ele>
        <time>2022-05-18T15:09:16Z</time>
      </trkpt>
      <trkpt lat="45.85126" lon="1.3835">
        <ele>333</ele>
        <time>2022-05-18T15:09:19Z</time>
      </trkpt>
      <trkpt lat="45.85129" lon="1.38327">
        <ele>333</ele>
        <time>2022-05-18T15:09:22Z</time>
      </trkpt>
      <trkpt lat="45.85131" lon="1.38305">
        <ele>333</ele>
        <time>2022-05-18T15:09:25Z</time>
      </trkpt>
      <trkpt lat="45.85131" lon="1.38282">
        <ele>332</ele>
        <time>2022-05-18T15:09:28Z</time>
      </trkpt>
      <trkpt lat="45.85128" lon="1.38256">
        <ele>331</ele>
        <time>2022-05-18T15:09:31Z</time>
      </trkpt>
      <trkpt lat="45.85122" lon="1.38228">
        <ele>330</ele>
        <time>2022-05-18T15:09:34Z</time>
      </trkpt>
      <trkpt lat="45.85108" lon="1.38196">
        <ele>329</ele>
        <time>2022-05-18T15:09:37Z</time>
      </trkpt>
      <trkpt lat="45.85096" lon="1.3816">
        <ele>328</ele>
        <time>2022-05-18T15:09:40Z</time>
      </trkpt>
      <trkpt lat="45.8508" lon="1.38121">
        <ele>326</ele>
        <time>2022-05-18T15:09:43Z</time>
      </trkpt>
      <trkpt lat="45.8507" lon="1.38085">
        <ele>325</ele>
        <time>2022-05-18T15:09:46Z</time>
      </trkpt>
      <trkpt lat="45.85086" lon="1.3807">
        <ele>324</ele>
        <time>2022-05-18T15:09:49Z</time>
      </trkpt>
      <trkpt lat="45.85106" lon="1.38068">
        <ele>324</ele>
        <time>2022-05-18T15:09:52Z</time>
      </trkpt>
      <trkpt lat="45.85123" lon="1.38055">
        <ele>325</ele>
        <time>2022-05-18T15:09:55Z</time>
      </trkpt>
      <trkpt lat="45.85138" lon="1.38042">
        <ele>324</ele>
        <time>2022-05-18T15:09:58Z</time>
      </trkpt>
      <trkpt lat="45.85152" lon="1.38032">
        <ele>324</ele>
        <time>2022-05-18T15:10:01Z</time>
      </trkpt>
      <trkpt lat="45.85168" lon="1.3802">
        <ele>324</ele>
        <time>2022-05-18T15:10:05Z</time>
      </trkpt>
      <trkpt lat="45.85189" lon="1.38012">
        <ele>325</ele>
        <time>2022-05-18T15:10:10Z</time>
      </trkpt>
      <trkpt lat="45.85207" lon="1.38012">
        <ele>325</ele>
        <time>2022-05-18T15:10:13Z</time>
      </trkpt>
      <trkpt lat="45.85224" lon="1.38007">
        <ele>325</ele>
        <time>2022-05-18T15:10:16Z</time>
      </trkpt>
      <trkpt lat="45.85239" lon="1.37998">
        <ele>326</ele>
        <time>2022-05-18T15:10:19Z</time>
      </trkpt>
      <trkpt lat="45.85256" lon="1.37988">
        <ele>326</ele>
        <time>2022-05-18T15:10:23Z</time>
      </trkpt>
      <trkpt lat="45.85269" lon="1.3798">
        <ele>327</ele>
        <time>2022-05-18T15:10:26Z</time>
      </trkpt>
      <trkpt lat="45.85282" lon="1.37968">
        <ele>328</ele>
        <time>2022-05-18T15:10:29Z</time>
      </trkpt>
      <trkpt lat="45.85292" lon="1.37956">
        <ele>328</ele>
        <time>2022-05-18T15:10:32Z</time>
      </trkpt>
      <trkpt lat="45.85301" lon="1.37941">
        <ele>327</ele>
        <time>2022-05-18T15:10:35Z</time>
      </trkpt>
      <trkpt lat="45.85315" lon="1.37916">
        <ele>328</ele>
        <time>2022-05-18T15:10:40Z</time>
      </trkpt>
      <trkpt lat="45.85321" lon="1.37898">
        <ele>329</ele>
        <time>2022-05-18T15:10:43Z</time>
      </trkpt>
      <trkpt lat="45.85326" lon="1.3787">
        <ele>331</ele>
        <time>2022-05-18T15:10:48Z</time>
      </trkpt>
      <trkpt lat="45.85326" lon="1.37836">
        <ele>332</ele>
        <time>2022-05-18T15:10:54Z</time>
      </trkpt>
      <trkpt lat="45.85317" lon="1.37802">
        <ele>333</ele>
        <time>2022-05-18T15:11:00Z</time>
      </trkpt>
      <trkpt lat="45.85307" lon="1.37781">
        <ele>335</ele>
        <time>2022-05-18T15:11:04Z</time>
      </trkpt>
      <trkpt lat="45.85297" lon="1.37764">
        <ele>336</ele>
        <time>2022-05-18T15:11:07Z</time>
      </trkpt>
      <trkpt lat="45.85288" lon="1.37745">
        <ele>337</ele>
        <time>2022-05-18T15:11:10Z</time>
      </trkpt>
      <trkpt lat="45.85277" lon="1.37726">
        <ele>337</ele>
        <time>2022-05-18T15:11:13Z</time>
      </trkpt>
      <trkpt lat="45.85265" lon="1.37707">
        <ele>337</ele>
        <time>2022-05-18T15:11:16Z</time>
      </trkpt>
      <trkpt lat="45.85252" lon="1.37689">
        <ele>337</ele>
        <time>2022-05-18T15:11:19Z</time>
      </trkpt>
      <trkpt lat="45.8524" lon="1.37671">
        <ele>338</ele>
        <time>2022-05-18T15:11:22Z</time>
      </trkpt>
      <trkpt lat="45.85227" lon="1.37652">
        <ele>337</ele>
        <time>2022-05-18T15:11:25Z</time>
      </trkpt>
      <trkpt lat="45.85212" lon="1.37635">
        <ele>338</ele>
        <time>2022-05-18T15:11:28Z</time>
      </trkpt>
      <trkpt lat="45.85199" lon="1.37616">
        <ele>339</ele>
        <time>2022-05-18T15:11:31Z</time>
      </trkpt>
      <trkpt lat="45.85189" lon="1.37596">
        <ele>339</ele>
        <time>2022-05-18T15:11:34Z</time>
      </trkpt>
      <trkpt lat="45.85181" lon="1.37574">
        <ele>339</ele>
        <time>2022-05-18T15:11:37Z</time>
      </trkpt>
      <trkpt lat="45.85177" lon="1.37551">
        <ele>338</ele>
        <time>2022-05-18T15:11:40Z</time>
      </trkpt>
      <trkpt lat="45.8517" lon="1.37527">
        <ele>338</ele>
        <time>2022-05-18T15:11:43Z</time>
      </trkpt>
      <trkpt lat="45.85162" lon="1.37505">
        <ele>338</ele>
        <time>2022-05-18T15:11:46Z</time>
      </trkpt>
      <trkpt lat="45.85156" lon="1.37484">
        <ele>339</ele>
        <time>2022-05-18T15:11:49Z</time>
      </trkpt>
      <trkpt lat="45.85149" lon="1.37464">
        <ele>339</ele>
        <time>2022-05-18T15:11:52Z</time>
      </trkpt>
      <trkpt lat="45.85144" lon="1.37444">
        <ele>340</ele>
        <time>2022-05-18T15:11:55Z</time>
      </trkpt>
      <trkpt lat="45.85141" lon="1.37422">
        <ele>341</ele>
        <time>2022-05-18T15:11:58Z</time>
      </trkpt>
      <trkpt lat="45.85138" lon="1.37401">
        <ele>341</ele>
        <time>2022-05-18T15:12:01Z</time>
      </trkpt>
      <trkpt lat="45.85134" lon="1.37381">
        <ele>343</ele>
        <time>2022-05-18T15:12:04Z</time>
      </trkpt>
      <trkpt lat="45.85122" lon="1.37358">
        <ele>344</ele>
        <time>2022-05-18T15:12:09Z</time>
      </trkpt>
      <trkpt lat="45.85105" lon="1.37365">
        <ele>345</ele>
        <time>2022-05-18T15:12:13Z</time>
      </trkpt>
      <trkpt lat="45.85087" lon="1.37375">
        <ele>345</ele>
        <time>2022-05-18T15:12:17Z</time>
      </trkpt>
      <trkpt lat="45.85073" lon="1.37382">
        <ele>346</ele>
        <time>2022-05-18T15:12:20Z</time>
      </trkpt>
      <trkpt lat="45.85057" lon="1.37384">
        <ele>347</ele>
        <time>2022-05-18T15:12:23Z</time>
      </trkpt>
      <trkpt lat="45.85041" lon="1.37386">
        <ele>348</ele>
        <time>2022-05-18T15:12:26Z</time>
      </trkpt>
      <trkpt lat="45.85021" lon="1.37377">
        <ele>348</ele>
        <time>2022-05-18T15:12:31Z</time>
      </trkpt>
      <trkpt lat="45.85011" lon="1.37358">
        <ele>348</ele>
        <time>2022-05-18T15:12:34Z</time>
      </trkpt>
      <trkpt lat="45.85001" lon="1.37338">
        <ele>348</ele>
        <time>2022-05-18T15:12:37Z</time>
      </trkpt>
      <trkpt lat="45.8499" lon="1.37319">
        <ele>348</ele>
        <time>2022-05-18T15:12:40Z</time>
      </trkpt>
      <trkpt lat="45.84979" lon="1.37298">
        <ele>346</ele>
        <time>2022-05-18T15:12:43Z</time>
      </trkpt>
      <trkpt lat="45.84968" lon="1.37276">
        <ele>346</ele>
        <time>2022-05-18T15:12:46Z</time>
      </trkpt>
      <trkpt lat="45.84958" lon="1.37255">
        <ele>347</ele>
        <time>2022-05-18T15:12:49Z</time>
      </trkpt>
      <trkpt lat="45.84945" lon="1.37231">
        <ele>348</ele>
        <time>2022-05-18T15:12:52Z</time>
      </trkpt>
      <trkpt lat="45.84935" lon="1.3721">
        <ele>349</ele>
        <time>2022-05-18T15:12:55Z</time>
      </trkpt>
      <trkpt lat="45.84922" lon="1.37188">
        <ele>348</ele>
        <time>2022-05-18T15:12:58Z</time>
      </trkpt>
      <trkpt lat="45.84909" lon="1.37162">
        <ele>347</ele>
        <time>2022-05-18T15:13:01Z</time>
      </trkpt>
      <trkpt lat="45.84894" lon="1.37134">
        <ele>346</ele>
        <time>2022-05-18T15:13:04Z</time>
      </trkpt>
      <trkpt lat="45.84882" lon="1.3711">
        <ele>346</ele>
        <time>2022-05-18T15:13:07Z</time>
      </trkpt>
      <trkpt lat="45.84872" lon="1.37091">
        <ele>346</ele>
        <time>2022-05-18T15:13:10Z</time>
      </trkpt>
      <trkpt lat="45.8486" lon="1.37072">
        <ele>346</ele>
        <time>2022-05-18T15:13:13Z</time>
      </trkpt>
      <trkpt lat="45.84845" lon="1.37062">
        <ele>347</ele>
        <time>2022-05-18T15:13:16Z</time>
      </trkpt>
      <trkpt lat="45.8483" lon="1.37054">
        <ele>347</ele>
        <time>2022-05-18T15:13:19Z</time>
      </trkpt>
      <trkpt lat="45.84814" lon="1.37048">
        <ele>347</ele>
        <time>2022-05-18T15:13:22Z</time>
      </trkpt>
      <trkpt lat="45.84798" lon="1.37038">
        <ele>347</ele>
        <time>2022-05-18T15:13:25Z</time>
      </trkpt>
      <trkpt lat="45.84785" lon="1.3703">
        <ele>348</ele>
        <time>2022-05-18T15:13:28Z</time>
      </trkpt>
      <trkpt lat="45.84771" lon="1.37021">
        <ele>350</ele>
        <time>2022-05-18T15:13:31Z</time>
      </trkpt>
      <trkpt lat="45.84755" lon="1.37014">
        <ele>352</ele>
        <time>2022-05-18T15:13:34Z</time>
      </trkpt>
      <trkpt lat="45.8474" lon="1.37008">
        <ele>353</ele>
        <time>2022-05-18T15:13:37Z</time>
      </trkpt>
      <trkpt lat="45.84724" lon="1.37001">
        <ele>354</ele>
        <time>2022-05-18T15:13:40Z</time>
      </trkpt>
      <trkpt lat="45.8471" lon="1.36994">
        <ele>355</ele>
        <time>2022-05-18T15:13:43Z</time>
      </trkpt>
      <trkpt lat="45.84694" lon="1.36985">
        <ele>354</ele>
        <time>2022-05-18T15:13:47Z</time>
      </trkpt>
      <trkpt lat="45.84673" lon="1.36968">
        <ele>353</ele>
        <time>2022-05-18T15:13:53Z</time>
      </trkpt>
      <trkpt lat="45.84655" lon="1.36958">
        <ele>353</ele>
        <time>2022-05-18T15:14:10Z</time>
      </trkpt>
      <trkpt lat="45.84639" lon="1.36944">
        <ele>352</ele>
        <time>2022-05-18T15:14:13Z</time>
      </trkpt>
      <trkpt lat="45.84622" lon="1.36925">
        <ele>351</ele>
        <time>2022-05-18T15:14:16Z</time>
      </trkpt>
      <trkpt lat="45.84603" lon="1.36904">
        <ele>351</ele>
        <time>2022-05-18T15:14:19Z</time>
      </trkpt>
      <trkpt lat="45.84584" lon="1.36885">
        <ele>351</ele>
        <time>2022-05-18T15:14:22Z</time>
      </trkpt>
      <trkpt lat="45.84565" lon="1.36866">
        <ele>350</ele>
        <time>2022-05-18T15:14:25Z</time>
      </trkpt>
      <trkpt lat="45.84545" lon="1.36846">
        <ele>349</ele>
        <time>2022-05-18T15:14:28Z</time>
      </trkpt>
      <trkpt lat="45.84526" lon="1.36826">
        <ele>348</ele>
        <time>2022-05-18T15:14:31Z</time>
      </trkpt>
      <trkpt lat="45.84506" lon="1.36804">
        <ele>348</ele>
        <time>2022-05-18T15:14:34Z</time>
      </trkpt>
      <trkpt lat="45.84488" lon="1.36783">
        <ele>349</ele>
        <time>2022-05-18T15:14:37Z</time>
      </trkpt>
      <trkpt lat="45.84469" lon="1.36762">
        <ele>349</ele>
        <time>2022-05-18T15:14:40Z</time>
      </trkpt>
      <trkpt lat="45.84451" lon="1.36742">
        <ele>349</ele>
        <time>2022-05-18T15:14:43Z</time>
      </trkpt>
      <trkpt lat="45.84435" lon="1.36724">
        <ele>349</ele>
        <time>2022-05-18T15:14:46Z</time>
      </trkpt>
      <trkpt lat="45.84422" lon="1.36707">
        <ele>348</ele>
        <time>2022-05-18T15:14:49Z</time>
      </trkpt>
      <trkpt lat="45.84409" lon="1.36692">
        <ele>348</ele>
        <time>2022-05-18T15:14:52Z</time>
      </trkpt>
      <trkpt lat="45.84397" lon="1.36675">
        <ele>348</ele>
        <time>2022-05-18T15:14:56Z</time>
      </trkpt>
      <trkpt lat="45.84382" lon="1.36646">
        <ele>348</ele>
        <time>2022-05-18T15:15:02Z</time>
      </trkpt>
      <trkpt lat="45.84367" lon="1.36625">
        <ele>346</ele>
        <time>2022-05-18T15:15:06Z</time>
      </trkpt>
      <trkpt lat="45.84351" lon="1.36606">
        <ele>345</ele>
        <time>2022-05-18T15:15:09Z</time>
      </trkpt>
      <trkpt lat="45.84338" lon="1.36588">
        <ele>345</ele>
        <time>2022-05-18T15:15:12Z</time>
      </trkpt>
      <trkpt lat="45.84322" lon="1.36572">
        <ele>346</ele>
        <time>2022-05-18T15:15:15Z</time>
      </trkpt>
      <trkpt lat="45.84303" lon="1.36549">
        <ele>347</ele>
        <time>2022-05-18T15:15:19Z</time>
      </trkpt>
      <trkpt lat="45.8429" lon="1.36528">
        <ele>348</ele>
        <time>2022-05-18T15:15:22Z</time>
      </trkpt>
      <trkpt lat="45.84277" lon="1.36509">
        <ele>348</ele>
        <time>2022-05-18T15:15:25Z</time>
      </trkpt>
      <trkpt lat="45.84266" lon="1.36489">
        <ele>348</ele>
        <time>2022-05-18T15:15:28Z</time>
      </trkpt>
      <trkpt lat="45.84256" lon="1.36467">
        <ele>347</ele>
        <time>2022-05-18T15:15:31Z</time>
      </trkpt>
      <trkpt lat="45.84245" lon="1.36448">
        <ele>345</ele>
        <time>2022-05-18T15:15:34Z</time>
      </trkpt>
      <trkpt lat="45.84234" lon="1.36427">
        <ele>344</ele>
        <time>2022-05-18T15:15:37Z</time>
      </trkpt>
      <trkpt lat="45.84223" lon="1.36405">
        <ele>344</ele>
        <time>2022-05-18T15:15:40Z</time>
      </trkpt>
      <trkpt lat="45.84208" lon="1.36379">
        <ele>343</ele>
        <time>2022-05-18T15:15:43Z</time>
      </trkpt>
      <trkpt lat="45.84192" lon="1.36353">
        <ele>342</ele>
        <time>2022-05-18T15:15:46Z</time>
      </trkpt>
      <trkpt lat="45.84176" lon="1.3633">
        <ele>342</ele>
        <time>2022-05-18T15:15:49Z</time>
      </trkpt>
      <trkpt lat="45.84161" lon="1.36304">
        <ele>341</ele>
        <time>2022-05-18T15:15:52Z</time>
      </trkpt>
      <trkpt lat="45.84147" lon="1.36278">
        <ele>341</ele>
        <time>2022-05-18T15:15:55Z</time>
      </trkpt>
      <trkpt lat="45.84132" lon="1.36253">
        <ele>341</ele>
        <time>2022-05-18T15:15:58Z</time>
      </trkpt>
      <trkpt lat="45.84115" lon="1.36229">
        <ele>340</ele>
        <time>2022-05-18T15:16:01Z</time>
      </trkpt>
      <trkpt lat="45.841" lon="1.36205">
        <ele>340</ele>
        <time>2022-05-18T15:16:04Z</time>
      </trkpt>
      <trkpt lat="45.84085" lon="1.36183">
        <ele>339</ele>
        <time>2022-05-18T15:16:07Z</time>
      </trkpt>
      <trkpt lat="45.84071" lon="1.36162">
        <ele>339</ele>
        <time>2022-05-18T15:16:10Z</time>
      </trkpt>
      <trkpt lat="45.84058" lon="1.36141">
        <ele>338</ele>
        <time>2022-05-18T15:16:13Z</time>
      </trkpt>
      <trkpt lat="45.8405" lon="1.36124">
        <ele>338</ele>
        <time>2022-05-18T15:16:16Z</time>
      </trkpt>
      <trkpt lat="45.84039" lon="1.36109">
        <ele>338</ele>
        <time>2022-05-18T15:16:19Z</time>
      </trkpt>
      <trkpt lat="45.84029" lon="1.36092">
        <ele>337</ele>
        <time>2022-05-18T15:16:22Z</time>
      </trkpt>
      <trkpt lat="45.84019" lon="1.36072">
        <ele>337</ele>
        <time>2022-05-18T15:16:25Z</time>
      </trkpt>
      <trkpt lat="45.84006" lon="1.3605">
        <ele>336</ele>
        <time>2022-05-18T15:16:28Z</time>
      </trkpt>
      <trkpt lat="45.83993" lon="1.36027">
        <ele>336</ele>
        <time>2022-05-18T15:16:31Z</time>
      </trkpt>
      <trkpt lat="45.8398" lon="1.3601">
        <ele>335</ele>
        <time>2022-05-18T15:16:34Z</time>
      </trkpt>
      <trkpt lat="45.83966" lon="1.3599">
        <ele>334</ele>
        <time>2022-05-18T15:16:37Z</time>
      </trkpt>
      <trkpt lat="45.83952" lon="1.35965">
        <ele>333</ele>
        <time>2022-05-18T15:16:40Z</time>
      </trkpt>
      <trkpt lat="45.83935" lon="1.3594">
        <ele>333</ele>
        <time>2022-05-18T15:16:43Z</time>
      </trkpt>
      <trkpt lat="45.83918" lon="1.35914">
        <ele>333</ele>
        <time>2022-05-18T15:16:46Z</time>
      </trkpt>
      <trkpt lat="45.83901" lon="1.35908">
        <ele>332</ele>
        <time>2022-05-18T15:16:49Z</time>
      </trkpt>
      <trkpt lat="45.83882" lon="1.35912">
        <ele>332</ele>
        <time>2022-05-18T15:16:52Z</time>
      </trkpt>
      <trkpt lat="45.83861" lon="1.35913">
        <ele>332</ele>
        <time>2022-05-18T15:16:55Z</time>
      </trkpt>
      <trkpt lat="45.83839" lon="1.35914">
        <ele>332</ele>
        <time>2022-05-18T15:16:58Z</time>
      </trkpt>
      <trkpt lat="45.83816" lon="1.35913">
        <ele>333</ele>
        <time>2022-05-18T15:17:01Z</time>
      </trkpt>
      <trkpt lat="45.83796" lon="1.35913">
        <ele>333</ele>
        <time>2022-05-18T15:17:04Z</time>
      </trkpt>
      <trkpt lat="45.83776" lon="1.35914">
        <ele>335</ele>
        <time>2022-05-18T15:17:07Z</time>
      </trkpt>
      <trkpt lat="45.83757" lon="1.35915">
        <ele>335</ele>
        <time>2022-05-18T15:17:10Z</time>
      </trkpt>
      <trkpt lat="45.83738" lon="1.35924">
        <ele>335</ele>
        <time>2022-05-18T15:17:13Z</time>
      </trkpt>
      <trkpt lat="45.83719" lon="1.35933">
        <ele>333</ele>
        <time>2022-05-18T15:17:16Z</time>
      </trkpt>
      <trkpt lat="45.83694" lon="1.35931">
        <ele>333</ele>
        <time>2022-05-18T15:17:19Z</time>
      </trkpt>
      <trkpt lat="45.83671" lon="1.35908">
        <ele>332</ele>
        <time>2022-05-18T15:17:22Z</time>
      </trkpt>
      <trkpt lat="45.83656" lon="1.35901">
        <ele>330</ele>
        <time>2022-05-18T15:17:27Z</time>
      </trkpt>
      <trkpt lat="45.83639" lon="1.35924">
        <ele>328</ele>
        <time>2022-05-18T15:17:32Z</time>
      </trkpt>
      <trkpt lat="45.83627" lon="1.35944">
        <ele>326</ele>
        <time>2022-05-18T15:17:35Z</time>
      </trkpt>
      <trkpt lat="45.83612" lon="1.35956">
        <ele>324</ele>
        <time>2022-05-18T15:17:38Z</time>
      </trkpt>
      <trkpt lat="45.83597" lon="1.35968">
        <ele>323</ele>
        <time>2022-05-18T15:17:41Z</time>
      </trkpt>
      <trkpt lat="45.83581" lon="1.35983">
        <ele>323</ele>
        <time>2022-05-18T15:17:44Z</time>
      </trkpt>
      <trkpt lat="45.83577" lon="1.3601">
        <ele>323</ele>
        <time>2022-05-18T15:17:47Z</time>
      </trkpt>
      <trkpt lat="45.83575" lon="1.36037">
        <ele>324</ele>
        <time>2022-05-18T15:17:50Z</time>
      </trkpt>
      <trkpt lat="45.83575" lon="1.36061">
        <ele>323</ele>
        <time>2022-05-18T15:17:53Z</time>
      </trkpt>
      <trkpt lat="45.83574" lon="1.36086">
        <ele>323</ele>
        <time>2022-05-18T15:17:56Z</time>
      </trkpt>
      <trkpt lat="45.83573" lon="1.3611">
        <ele>323</ele>
        <time>2022-05-18T15:17:59Z</time>
      </trkpt>
      <trkpt lat="45.83567" lon="1.36135">
        <ele>323</ele>
        <time>2022-05-18T15:18:02Z</time>
      </trkpt>
      <trkpt lat="45.83563" lon="1.3616">
        <ele>323</ele>
        <time>2022-05-18T15:18:05Z</time>
      </trkpt>
      <trkpt lat="45.83559" lon="1.36188">
        <ele>323</ele>
        <time>2022-05-18T15:18:08Z</time>
      </trkpt>
      <trkpt lat="45.83562" lon="1.36212">
        <ele>323</ele>
        <time>2022-05-18T15:18:11Z</time>
      </trkpt>
      <trkpt lat="45.83566" lon="1.36235">
        <ele>323</ele>
        <time>2022-05-18T15:18:14Z</time>
      </trkpt>
      <trkpt lat="45.83571" lon="1.36259">
        <ele>324</ele>
        <time>2022-05-18T15:18:17Z</time>
      </trkpt>
      <trkpt lat="45.83572" lon="1.36283">
        <ele>325</ele>
        <time>2022-05-18T15:18:20Z</time>
      </trkpt>
      <trkpt lat="45.83571" lon="1.36305">
        <ele>326</ele>
        <time>2022-05-18T15:18:23Z</time>
      </trkpt>
      <trkpt lat="45.83561" lon="1.36329">
        <ele>326</ele>
        <time>2022-05-18T15:18:28Z</time>
      </trkpt>
      <trkpt lat="45.83554" lon="1.36356">
        <ele>326</ele>
        <time>2022-05-18T15:18:31Z</time>
      </trkpt>
      <trkpt lat="45.83546" lon="1.36382">
        <ele>327</ele>
        <time>2022-05-18T15:18:34Z</time>
      </trkpt>
      <trkpt lat="45.83545" lon="1.36409">
        <ele>327</ele>
        <time>2022-05-18T15:18:37Z</time>
      </trkpt>
      <trkpt lat="45.8355" lon="1.36433">
        <ele>328</ele>
        <time>2022-05-18T15:18:40Z</time>
      </trkpt>
      <trkpt lat="45.83552" lon="1.36456">
        <ele>328</ele>
        <time>2022-05-18T15:18:43Z</time>
      </trkpt>
      <trkpt lat="45.83549" lon="1.36479">
        <ele>329</ele>
        <time>2022-05-18T15:18:46Z</time>
      </trkpt>
      <trkpt lat="45.83545" lon="1.36503">
        <ele>329</ele>
        <time>2022-05-18T15:18:49Z</time>
      </trkpt>
      <trkpt lat="45.8354" lon="1.36528">
        <ele>328</ele>
        <time>2022-05-18T15:18:52Z</time>
      </trkpt>
      <trkpt lat="45.83533" lon="1.36552">
        <ele>328</ele>
        <time>2022-05-18T15:18:55Z</time>
      </trkpt>
      <trkpt lat="45.83522" lon="1.36571">
        <ele>328</ele>
        <time>2022-05-18T15:18:58Z</time>
      </trkpt>
      <trkpt lat="45.83507" lon="1.36587">
        <ele>328</ele>
        <time>2022-05-18T15:19:01Z</time>
      </trkpt>
      <trkpt lat="45.8349" lon="1.36598">
        <ele>327</ele>
        <time>2022-05-18T15:19:04Z</time>
      </trkpt>
      <trkpt lat="45.83482" lon="1.3662">
        <ele>326</ele>
        <time>2022-05-18T15:19:07Z</time>
      </trkpt>
      <trkpt lat="45.8348" lon="1.36644">
        <ele>327</ele>
        <time>2022-05-18T15:19:10Z</time>
      </trkpt>
      <trkpt lat="45.83478" lon="1.36666">
        <ele>328</ele>
        <time>2022-05-18T15:19:13Z</time>
      </trkpt>
      <trkpt lat="45.83475" lon="1.36686">
        <ele>329</ele>
        <time>2022-05-18T15:19:16Z</time>
      </trkpt>
      <trkpt lat="45.83468" lon="1.36704">
        <ele>330</ele>
        <time>2022-05-18T15:19:19Z</time>
      </trkpt>
      <trkpt lat="45.83456" lon="1.36727">
        <ele>331</ele>
        <time>2022-05-18T15:19:24Z</time>
      </trkpt>
      <trkpt lat="45.83451" lon="1.36746">
        <ele>332</ele>
        <time>2022-05-18T15:19:56Z</time>
      </trkpt>
      <trkpt lat="45.83433" lon="1.36739">
        <ele>341</ele>
        <time>2022-05-18T15:20:07Z</time>
      </trkpt>
      <trkpt lat="45.83415" lon="1.36729">
        <ele>344</ele>
        <time>2022-05-18T15:20:13Z</time>
      </trkpt>
      <trkpt lat="45.834" lon="1.36723">
        <ele>339</ele>
        <time>2022-05-18T15:20:16Z</time>
      </trkpt>
      <trkpt lat="45.83383" lon="1.36713">
        <ele>335</ele>
        <time>2022-05-18T15:20:20Z</time>
      </trkpt>
      <trkpt lat="45.83359" lon="1.36702">
        <ele>334</ele>
        <time>2022-05-18T15:20:26Z</time>
      </trkpt>
      <trkpt lat="45.83345" lon="1.36696">
        <ele>336</ele>
        <time>2022-05-18T15:20:29Z</time>
      </trkpt>
      <trkpt lat="45.83331" lon="1.3669">
        <ele>339</ele>
        <time>2022-05-18T15:20:32Z</time>
      </trkpt>
      <trkpt lat="45.83309" lon="1.3668">
        <ele>341</ele>
        <time>2022-05-18T15:20:37Z</time>
      </trkpt>
      <trkpt lat="45.83294" lon="1.36674">
        <ele>343</ele>
        <time>2022-05-18T15:20:40Z</time>
      </trkpt>
      <trkpt lat="45.8328" lon="1.36668">
        <ele>344</ele>
        <time>2022-05-18T15:20:43Z</time>
      </trkpt>
      <trkpt lat="45.83262" lon="1.3666">
        <ele>345</ele>
        <time>2022-05-18T15:20:47Z</time>
      </trkpt>
      <trkpt lat="45.83245" lon="1.36653">
        <ele>344</ele>
        <time>2022-05-18T15:20:51Z</time>
      </trkpt>
      <trkpt lat="45.83224" lon="1.36646">
        <ele>344</ele>
        <time>2022-05-18T15:20:56Z</time>
      </trkpt>
      <trkpt lat="45.8321" lon="1.36639">
        <ele>344</ele>
        <time>2022-05-18T15:20:59Z</time>
      </trkpt>
      <trkpt lat="45.83196" lon="1.36634">
        <ele>345</ele>
        <time>2022-05-18T15:21:02Z</time>
      </trkpt>
      <trkpt lat="45.83178" lon="1.36626">
        <ele>346</ele>
        <time>2022-05-18T15:21:06Z</time>
      </trkpt>
      <trkpt lat="45.83164" lon="1.36621">
        <ele>347</ele>
        <time>2022-05-18T15:21:09Z</time>
      </trkpt>
      <trkpt lat="45.83149" lon="1.36615">
        <ele>347</ele>
        <time>2022-05-18T15:21:12Z</time>
      </trkpt>
      <trkpt lat="45.83134" lon="1.36609">
        <ele>347</ele>
        <time>2022-05-18T15:21:15Z</time>
      </trkpt>
      <trkpt lat="45.8312" lon="1.36604">
        <ele>348</ele>
        <time>2022-05-18T15:21:18Z</time>
      </trkpt>
      <trkpt lat="45.83103" lon="1.36596">
        <ele>349</ele>
        <time>2022-05-18T15:21:22Z</time>
      </trkpt>
      <trkpt lat="45.83087" lon="1.3659">
        <ele>350</ele>
        <time>2022-05-18T15:21:25Z</time>
      </trkpt>
      <trkpt lat="45.8307" lon="1.36584">
        <ele>351</ele>
        <time>2022-05-18T15:21:28Z</time>
      </trkpt>
      <trkpt lat="45.83055" lon="1.36575">
        <ele>352</ele>
        <time>2022-05-18T15:21:31Z</time>
      </trkpt>
      <trkpt lat="45.83041" lon="1.36567">
        <ele>352</ele>
        <time>2022-05-18T15:21:34Z</time>
      </trkpt>
      <trkpt lat="45.83028" lon="1.36559">
        <ele>353</ele>
        <time>2022-05-18T15:21:37Z</time>
      </trkpt>
      <trkpt lat="45.83015" lon="1.36552">
        <ele>354</ele>
        <time>2022-05-18T15:21:40Z</time>
      </trkpt>
      <trkpt lat="45.8299" lon="1.36543">
        <ele>355</ele>
        <time>2022-05-18T15:21:46Z</time>
      </trkpt>
      <trkpt lat="45.82967" lon="1.36534">
        <ele>356</ele>
        <time>2022-05-18T15:21:52Z</time>
      </trkpt>
      <trkpt lat="45.82947" lon="1.36515">
        <ele>357</ele>
        <time>2022-05-18T15:21:58Z</time>
      </trkpt>
      <trkpt lat="45.82931" lon="1.36499">
        <ele>358</ele>
        <time>2022-05-18T15:22:02Z</time>
      </trkpt>
      <trkpt lat="45.82919" lon="1.36486">
        <ele>360</ele>
        <time>2022-05-18T15:22:05Z</time>
      </trkpt>
      <trkpt lat="45.82906" lon="1.36473">
        <ele>360</ele>
        <time>2022-05-18T15:22:08Z</time>
      </trkpt>
      <trkpt lat="45.82893" lon="1.36461">
        <ele>361</ele>
        <time>2022-05-18T15:22:11Z</time>
      </trkpt>
      <trkpt lat="45.82882" lon="1.36449">
        <ele>362</ele>
        <time>2022-05-18T15:22:14Z</time>
      </trkpt>
      <trkpt lat="45.82868" lon="1.36437">
        <ele>362</ele>
        <time>2022-05-18T15:22:17Z</time>
      </trkpt>
      <trkpt lat="45.82853" lon="1.36428">
        <ele>362</ele>
        <time>2022-05-18T15:22:20Z</time>
      </trkpt>
      <trkpt lat="45.82837" lon="1.36419">
        <ele>363</ele>
        <time>2022-05-18T15:22:23Z</time>
      </trkpt>
      <trkpt lat="45.82819" lon="1.3641">
        <ele>363</ele>
        <time>2022-05-18T15:22:26Z</time>
      </trkpt>
      <trkpt lat="45.82803" lon="1.36401">
        <ele>364</ele>
        <time>2022-05-18T15:22:29Z</time>
      </trkpt>
      <trkpt lat="45.82788" lon="1.36393">
        <ele>364</ele>
        <time>2022-05-18T15:22:32Z</time>
      </trkpt>
      <trkpt lat="45.82773" lon="1.36384">
        <ele>365</ele>
        <time>2022-05-18T15:22:35Z</time>
      </trkpt>
      <trkpt lat="45.82763" lon="1.36365">
        <ele>366</ele>
        <time>2022-05-18T15:22:39Z</time>
      </trkpt>
      <trkpt lat="45.82742" lon="1.36348">
        <ele>367</ele>
        <time>2022-05-18T15:22:45Z</time>
      </trkpt>
      <trkpt lat="45.82723" lon="1.36344">
        <ele>368</ele>
        <time>2022-05-18T15:22:51Z</time>
      </trkpt>
      <trkpt lat="45.82707" lon="1.36341">
        <ele>370</ele>
        <time>2022-05-18T15:22:57Z</time>
      </trkpt>
      <trkpt lat="45.82687" lon="1.36339">
        <ele>371</ele>
        <time>2022-05-18T15:23:03Z</time>
      </trkpt>
      <trkpt lat="45.82666" lon="1.36342">
        <ele>372</ele>
        <time>2022-05-18T15:23:09Z</time>
      </trkpt>
      <trkpt lat="45.82645" lon="1.3634">
        <ele>372</ele>
        <time>2022-05-18T15:23:15Z</time>
      </trkpt>
      <trkpt lat="45.82624" lon="1.36329">
        <ele>371</ele>
        <time>2022-05-18T15:23:21Z</time>
      </trkpt>
      <trkpt lat="45.826" lon="1.36317">
        <ele>370</ele>
        <time>2022-05-18T15:23:27Z</time>
      </trkpt>
      <trkpt lat="45.82586" lon="1.36311">
        <ele>370</ele>
        <time>2022-05-18T15:23:30Z</time>
      </trkpt>
      <trkpt lat="45.82572" lon="1.36311">
        <ele>371</ele>
        <time>2022-05-18T15:23:33Z</time>
      </trkpt>
      <trkpt lat="45.82556" lon="1.36312">
        <ele>370</ele>
        <time>2022-05-18T15:23:36Z</time>
      </trkpt>
      <trkpt lat="45.82542" lon="1.36311">
        <ele>369</ele>
        <time>2022-05-18T15:23:39Z</time>
      </trkpt>
      <trkpt lat="45.82527" lon="1.36312">
        <ele>368</ele>
        <time>2022-05-18T15:23:42Z</time>
      </trkpt>
      <trkpt lat="45.8251" lon="1.36311">
        <ele>367</ele>
        <time>2022-05-18T15:23:45Z</time>
      </trkpt>
      <trkpt lat="45.82493" lon="1.36311">
        <ele>366</ele>
        <time>2022-05-18T15:23:48Z</time>
      </trkpt>
      <trkpt lat="45.82477" lon="1.36311">
        <ele>366</ele>
        <time>2022-05-18T15:23:51Z</time>
      </trkpt>
      <trkpt lat="45.82462" lon="1.36309">
        <ele>366</ele>
        <time>2022-05-18T15:23:54Z</time>
      </trkpt>
      <trkpt lat="45.82446" lon="1.36309">
        <ele>365</ele>
        <time>2022-05-18T15:23:57Z</time>
      </trkpt>
      <trkpt lat="45.8243" lon="1.36312">
        <ele>365</ele>
        <time>2022-05-18T15:24:00Z</time>
      </trkpt>
      <trkpt lat="45.82415" lon="1.36315">
        <ele>365</ele>
        <time>2022-05-18T15:24:03Z</time>
      </trkpt>
      <trkpt lat="45.82402" lon="1.36318">
        <ele>364</ele>
        <time>2022-05-18T15:24:06Z</time>
      </trkpt>
      <trkpt lat="45.8238" lon="1.36315">
        <ele>364</ele>
        <time>2022-05-18T15:24:11Z</time>
      </trkpt>
      <trkpt lat="45.82358" lon="1.36302">
        <ele>364</ele>
        <time>2022-05-18T15:24:17Z</time>
      </trkpt>
      <trkpt lat="45.82347" lon="1.36314">
        <ele>365</ele>
        <time>2022-05-18T15:24:23Z</time>
      </trkpt>
      <trkpt lat="45.8235" lon="1.36347">
        <ele>366</ele>
        <time>2022-05-18T15:24:29Z</time>
      </trkpt>
      <trkpt lat="45.82352" lon="1.36371">
        <ele>367</ele>
        <time>2022-05-18T15:24:33Z</time>
      </trkpt>
      <trkpt lat="45.82357" lon="1.36402">
        <ele>368</ele>
        <time>2022-05-18T15:24:38Z</time>
      </trkpt>
      <trkpt lat="45.8236" lon="1.36421">
        <ele>368</ele>
        <time>2022-05-18T15:24:41Z</time>
      </trkpt>
      <trkpt lat="45.82362" lon="1.36457">
        <ele>369</ele>
        <time>2022-05-18T15:24:47Z</time>
      </trkpt>
      <trkpt lat="45.82365" lon="1.36491">
        <ele>369</ele>
        <time>2022-05-18T15:24:53Z</time>
      </trkpt>
      <trkpt lat="45.82367" lon="1.36517">
        <ele>370</ele>
        <time>2022-05-18T15:24:57Z</time>
      </trkpt>
      <trkpt lat="45.82369" lon="1.36539">
        <ele>371</ele>
        <time>2022-05-18T15:25:00Z</time>
      </trkpt>
      <trkpt lat="45.8237" lon="1.3656">
        <ele>371</ele>
        <time>2022-05-18T15:25:03Z</time>
      </trkpt>
      <trkpt lat="45.82372" lon="1.36586">
        <ele>372</ele>
        <time>2022-05-18T15:25:07Z</time>
      </trkpt>
      <trkpt lat="45.82375" lon="1.36606">
        <ele>373</ele>
        <time>2022-05-18T15:25:10Z</time>
      </trkpt>
      <trkpt lat="45.82377" lon="1.36625">
        <ele>373</ele>
        <time>2022-05-18T15:25:13Z</time>
      </trkpt>
      <trkpt lat="45.82378" lon="1.36645">
        <ele>373</ele>
        <time>2022-05-18T15:25:16Z</time>
      </trkpt>
      <trkpt lat="45.8238" lon="1.36674">
        <ele>373</ele>
        <time>2022-05-18T15:25:21Z</time>
      </trkpt>
      <trkpt lat="45.8238" lon="1.36702">
        <ele>375</ele>
        <time>2022-05-18T15:25:27Z</time>
      </trkpt>
      <trkpt lat="45.82377" lon="1.36726">
        <ele>376</ele>
        <time>2022-05-18T15:25:35Z</time>
      </trkpt>
      <trkpt lat="45.82373" lon="1.36758">
        <ele>376</ele>
        <time>2022-05-18T15:25:41Z</time>
      </trkpt>
      <trkpt lat="45.82367" lon="1.36782">
        <ele>377</ele>
        <time>2022-05-18T15:25:47Z</time>
      </trkpt>
      <trkpt lat="45.82361" lon="1.36803">
        <ele>378</ele>
        <time>2022-05-18T15:25:53Z</time>
      </trkpt>
      <trkpt lat="45.82355" lon="1.36829">
        <ele>379</ele>
        <time>2022-05-18T15:25:59Z</time>
      </trkpt>
      <trkpt lat="45.82349" lon="1.36847">
        <ele>379</ele>
        <time>2022-05-18T15:26:27Z</time>
      </trkpt>
      <trkpt lat="45.82343" lon="1.36874">
        <ele>379</ele>
        <time>2022-05-18T15:26:33Z</time>
      </trkpt>
      <trkpt lat="45.82344" lon="1.36909">
        <ele>379</ele>
        <time>2022-05-18T15:26:39Z</time>
      </trkpt>
      <trkpt lat="45.82347" lon="1.36939">
        <ele>378</ele>
        <time>2022-05-18T15:26:44Z</time>
      </trkpt>
      <trkpt lat="45.8235" lon="1.36965">
        <ele>377</ele>
        <time>2022-05-18T15:26:47Z</time>
      </trkpt>
      <trkpt lat="45.82348" lon="1.3699">
        <ele>376</ele>
        <time>2022-05-18T15:26:50Z</time>
      </trkpt>
      <trkpt lat="45.82347" lon="1.37014">
        <ele>375</ele>
        <time>2022-05-18T15:26:53Z</time>
      </trkpt>
      <trkpt lat="45.82347" lon="1.37038">
        <ele>374</ele>
        <time>2022-05-18T15:26:57Z</time>
      </trkpt>
      <trkpt lat="45.82344" lon="1.37062">
        <ele>373</ele>
        <time>2022-05-18T15:27:05Z</time>
      </trkpt>
      <trkpt lat="45.82336" lon="1.37088">
        <ele>372</ele>
        <time>2022-05-18T15:27:11Z</time>
      </trkpt>
      <trkpt lat="45.82328" lon="1.37121">
        <ele>369</ele>
        <time>2022-05-18T15:27:16Z</time>
      </trkpt>
      <trkpt lat="45.82319" lon="1.37156">
        <ele>365</ele>
        <time>2022-05-18T15:27:19Z</time>
      </trkpt>
      <trkpt lat="45.82312" lon="1.37184">
        <ele>364</ele>
        <time>2022-05-18T15:27:22Z</time>
      </trkpt>
      <trkpt lat="45.82303" lon="1.37208">
        <ele>364</ele>
        <time>2022-05-18T15:27:25Z</time>
      </trkpt>
      <trkpt lat="45.82294" lon="1.37227">
        <ele>364</ele>
        <time>2022-05-18T15:27:29Z</time>
      </trkpt>
      <trkpt lat="45.82283" lon="1.37253">
        <ele>365</ele>
        <time>2022-05-18T15:27:35Z</time>
      </trkpt>
      <trkpt lat="45.82274" lon="1.37278">
        <ele>366</ele>
        <time>2022-05-18T15:27:38Z</time>
      </trkpt>
      <trkpt lat="45.82265" lon="1.37308">
        <ele>366</ele>
        <time>2022-05-18T15:27:43Z</time>
      </trkpt>
      <trkpt lat="45.82258" lon="1.37333">
        <ele>366</ele>
        <time>2022-05-18T15:27:47Z</time>
      </trkpt>
      <trkpt lat="45.82253" lon="1.37352">
        <ele>367</ele>
        <time>2022-05-18T15:27:50Z</time>
      </trkpt>
      <trkpt lat="45.82246" lon="1.37371">
        <ele>367</ele>
        <time>2022-05-18T15:27:53Z</time>
      </trkpt>
      <trkpt lat="45.82238" lon="1.37396">
        <ele>366</ele>
        <time>2022-05-18T15:27:57Z</time>
      </trkpt>
      <trkpt lat="45.82234" lon="1.3742">
        <ele>366</ele>
        <time>2022-05-18T15:28:10Z</time>
      </trkpt>
      <trkpt lat="45.82243" lon="1.37442">
        <ele>366</ele>
        <time>2022-05-18T15:28:19Z</time>
      </trkpt>
      <trkpt lat="45.82258" lon="1.37461">
        <ele>367</ele>
        <time>2022-05-18T15:28:23Z</time>
      </trkpt>
      <trkpt lat="45.8227" lon="1.37472">
        <ele>370</ele>
        <time>2022-05-18T15:28:26Z</time>
      </trkpt>
      <trkpt lat="45.82285" lon="1.37485">
        <ele>372</ele>
        <time>2022-05-18T15:28:30Z</time>
      </trkpt>
      <trkpt lat="45.82304" lon="1.37492">
        <ele>373</ele>
        <time>2022-05-18T15:28:35Z</time>
      </trkpt>
      <trkpt lat="45.82327" lon="1.375">
        <ele>374</ele>
        <time>2022-05-18T15:28:41Z</time>
      </trkpt>
      <trkpt lat="45.82343" lon="1.37504">
        <ele>376</ele>
        <time>2022-05-18T15:28:44Z</time>
      </trkpt>
      <trkpt lat="45.8236" lon="1.37509">
        <ele>377</ele>
        <time>2022-05-18T15:28:47Z</time>
      </trkpt>
      <trkpt lat="45.8238" lon="1.37513">
        <ele>378</ele>
        <time>2022-05-18T15:28:50Z</time>
      </trkpt>
      <trkpt lat="45.82401" lon="1.37518">
        <ele>379</ele>
        <time>2022-05-18T15:28:53Z</time>
      </trkpt>
      <trkpt lat="45.82423" lon="1.37523">
        <ele>380</ele>
        <time>2022-05-18T15:28:56Z</time>
      </trkpt>
      <trkpt lat="45.82447" lon="1.37529">
        <ele>380</ele>
        <time>2022-05-18T15:28:59Z</time>
      </trkpt>
      <trkpt lat="45.82473" lon="1.37529">
        <ele>380</ele>
        <time>2022-05-18T15:29:02Z</time>
      </trkpt>
      <trkpt lat="45.82494" lon="1.37527">
        <ele>380</ele>
        <time>2022-05-18T15:29:05Z</time>
      </trkpt>
      <trkpt lat="45.82513" lon="1.37525">
        <ele>380</ele>
        <time>2022-05-18T15:29:08Z</time>
      </trkpt>
      <trkpt lat="45.82529" lon="1.37524">
        <ele>381</ele>
        <time>2022-05-18T15:29:11Z</time>
      </trkpt>
      <trkpt lat="45.82544" lon="1.37522">
        <ele>382</ele>
        <time>2022-05-18T15:29:14Z</time>
      </trkpt>
      <trkpt lat="45.82558" lon="1.37521">
        <ele>382</ele>
        <time>2022-05-18T15:29:17Z</time>
      </trkpt>
      <trkpt lat="45.8257" lon="1.3754">
        <ele>382</ele>
        <time>2022-05-18T15:29:22Z</time>
      </trkpt>
      <trkpt lat="45.82567" lon="1.37561">
        <ele>383</ele>
        <time>2022-05-18T15:29:25Z</time>
      </trkpt>
      <trkpt lat="45.82564" lon="1.37581">
        <ele>384</ele>
        <time>2022-05-18T15:29:28Z</time>
      </trkpt>
      <trkpt lat="45.82561" lon="1.37606">
        <ele>384</ele>
        <time>2022-05-18T15:29:32Z</time>
      </trkpt>
      <trkpt lat="45.82556" lon="1.37643">
        <ele>384</ele>
        <time>2022-05-18T15:29:38Z</time>
      </trkpt>
      <trkpt lat="45.82556" lon="1.37673">
        <ele>383</ele>
        <time>2022-05-18T15:29:43Z</time>
      </trkpt>
      <trkpt lat="45.82554" lon="1.37703">
        <ele>383</ele>
        <time>2022-05-18T15:29:48Z</time>
      </trkpt>
      <trkpt lat="45.82545" lon="1.37721">
        <ele>382</ele>
        <time>2022-05-18T15:29:51Z</time>
      </trkpt>
      <trkpt lat="45.82536" lon="1.37738">
        <ele>381</ele>
        <time>2022-05-18T15:29:54Z</time>
      </trkpt>
      <trkpt lat="45.8253" lon="1.37757">
        <ele>382</ele>
        <time>2022-05-18T15:29:57Z</time>
      </trkpt>
      <trkpt lat="45.82525" lon="1.37779">
        <ele>382</ele>
        <time>2022-05-18T15:30:00Z</time>
      </trkpt>
      <trkpt lat="45.82528" lon="1.37803">
        <ele>382</ele>
        <time>2022-05-18T15:30:03Z</time>
      </trkpt>
      <trkpt lat="45.8253" lon="1.37828">
        <ele>382</ele>
        <time>2022-05-18T15:30:06Z</time>
      </trkpt>
      <trkpt lat="45.82536" lon="1.37851">
        <ele>383</ele>
        <time>2022-05-18T15:30:09Z</time>
      </trkpt>
      <trkpt lat="45.82539" lon="1.37877">
        <ele>383</ele>
        <time>2022-05-18T15:30:12Z</time>
      </trkpt>
      <trkpt lat="45.82542" lon="1.37898">
        <ele>384</ele>
        <time>2022-05-18T15:30:15Z</time>
      </trkpt>
      <trkpt lat="45.82547" lon="1.37918">
        <ele>384</ele>
        <time>2022-05-18T15:30:18Z</time>
      </trkpt>
      <trkpt lat="45.82553" lon="1.37939">
        <ele>386</ele>
        <time>2022-05-18T15:30:21Z</time>
      </trkpt>
      <trkpt lat="45.8256" lon="1.37962">
        <ele>387</ele>
        <time>2022-05-18T15:30:24Z</time>
      </trkpt>
      <trkpt lat="45.82567" lon="1.37985">
        <ele>388</ele>
        <time>2022-05-18T15:30:27Z</time>
      </trkpt>
      <trkpt lat="45.82574" lon="1.38009">
        <ele>389</ele>
        <time>2022-05-18T15:30:30Z</time>
      </trkpt>
      <trkpt lat="45.82581" lon="1.38033">
        <ele>389</ele>
        <time>2022-05-18T15:30:33Z</time>
      </trkpt>
      <trkpt lat="45.82588" lon="1.38056">
        <ele>389</ele>
        <time>2022-05-18T15:30:36Z</time>
      </trkpt>
      <trkpt lat="45.82594" lon="1.38078">
        <ele>389</ele>
        <time>2022-05-18T15:30:39Z</time>
      </trkpt>
      <trkpt lat="45.82601" lon="1.381">
        <ele>390</ele>
        <time>2022-05-18T15:30:42Z</time>
      </trkpt>
      <trkpt lat="45.82606" lon="1.38125">
        <ele>391</ele>
        <time>2022-05-18T15:30:45Z</time>
      </trkpt>
      <trkpt lat="45.82606" lon="1.38151">
        <ele>390</ele>
        <time>2022-05-18T15:30:48Z</time>
      </trkpt>
      <trkpt lat="45.82607" lon="1.38177">
        <ele>389</ele>
        <time>2022-05-18T15:30:51Z</time>
      </trkpt>
      <trkpt lat="45.82617" lon="1.38193">
        <ele>389</ele>
        <time>2022-05-18T15:30:54Z</time>
      </trkpt>
      <trkpt lat="45.82632" lon="1.38201">
        <ele>389</ele>
        <time>2022-05-18T15:30:57Z</time>
      </trkpt>
      <trkpt lat="45.82648" lon="1.38208">
        <ele>390</ele>
        <time>2022-05-18T15:31:00Z</time>
      </trkpt>
      <trkpt lat="45.82661" lon="1.38216">
        <ele>390</ele>
        <time>2022-05-18T15:31:03Z</time>
      </trkpt>
      <trkpt lat="45.82676" lon="1.38227">
        <ele>390</ele>
        <time>2022-05-18T15:31:06Z</time>
      </trkpt>
      <trkpt lat="45.82693" lon="1.38235">
        <ele>391</ele>
        <time>2022-05-18T15:31:09Z</time>
      </trkpt>
      <trkpt lat="45.82711" lon="1.38245">
        <ele>391</ele>
        <time>2022-05-18T15:31:12Z</time>
      </trkpt>
      <trkpt lat="45.82729" lon="1.38254">
        <ele>391</ele>
        <time>2022-05-18T15:31:15Z</time>
      </trkpt>
      <trkpt lat="45.82744" lon="1.38268">
        <ele>391</ele>
        <time>2022-05-18T15:31:19Z</time>
      </trkpt>
      <trkpt lat="45.82741" lon="1.38293">
        <ele>391</ele>
        <time>2022-05-18T15:31:25Z</time>
      </trkpt>
      <trkpt lat="45.82736" lon="1.38321">
        <ele>390</ele>
        <time>2022-05-18T15:31:31Z</time>
      </trkpt>
      <trkpt lat="45.82731" lon="1.38355">
        <ele>389</ele>
        <time>2022-05-18T15:31:37Z</time>
      </trkpt>
      <trkpt lat="45.82729" lon="1.38381">
        <ele>388</ele>
        <time>2022-05-18T15:31:40Z</time>
      </trkpt>
      <trkpt lat="45.82732" lon="1.38406">
        <ele>387</ele>
        <time>2022-05-18T15:31:44Z</time>
      </trkpt>
      <trkpt lat="45.8274" lon="1.38429">
        <ele>385</ele>
        <time>2022-05-18T15:31:48Z</time>
      </trkpt>
      <trkpt lat="45.82756" lon="1.38444">
        <ele>384</ele>
        <time>2022-05-18T15:32:13Z</time>
      </trkpt>
      <trkpt lat="45.82773" lon="1.38434">
        <ele>390</ele>
        <time>2022-05-18T15:32:18Z</time>
      </trkpt>
      <trkpt lat="45.82795" lon="1.38425">
        <ele>390</ele>
        <time>2022-05-18T15:32:23Z</time>
      </trkpt>
      <trkpt lat="45.8281" lon="1.38418">
        <ele>389</ele>
        <time>2022-05-18T15:32:26Z</time>
      </trkpt>
      <trkpt lat="45.82827" lon="1.3841">
        <ele>386</ele>
        <time>2022-05-18T15:32:29Z</time>
      </trkpt>
      <trkpt lat="45.82845" lon="1.38403">
        <ele>381</ele>
        <time>2022-05-18T15:32:32Z</time>
      </trkpt>
      <trkpt lat="45.82861" lon="1.38396">
        <ele>377</ele>
        <time>2022-05-18T15:32:35Z</time>
      </trkpt>
      <trkpt lat="45.82877" lon="1.38388">
        <ele>374</ele>
        <time>2022-05-18T15:32:38Z</time>
      </trkpt>
      <trkpt lat="45.82893" lon="1.38383">
        <ele>374</ele>
        <time>2022-05-18T15:32:41Z</time>
      </trkpt>
      <trkpt lat="45.82911" lon="1.38378">
        <ele>373</ele>
        <time>2022-05-18T15:32:44Z</time>
      </trkpt>
      <trkpt lat="45.8293" lon="1.38371">
        <ele>373</ele>
        <time>2022-05-18T15:32:47Z</time>
      </trkpt>
      <trkpt lat="45.82948" lon="1.38363">
        <ele>373</ele>
        <time>2022-05-18T15:32:50Z</time>
      </trkpt>
      <trkpt lat="45.82965" lon="1.38355">
        <ele>373</ele>
        <time>2022-05-18T15:32:53Z</time>
      </trkpt>
      <trkpt lat="45.82978" lon="1.38374">
        <ele>375</ele>
        <time>2022-05-18T15:33:00Z</time>
      </trkpt>
      <trkpt lat="45.82961" lon="1.38597">
        <ele>377</ele>
        <time>2022-05-18T15:33:36Z</time>
      </trkpt>
      <trkpt lat="45.82958" lon="1.38632">
        <ele>389</ele>
        <time>2022-05-18T15:33:41Z</time>
      </trkpt>
      <trkpt lat="45.8295" lon="1.38655">
        <ele>392</ele>
        <time>2022-05-18T15:33:46Z</time>
      </trkpt>
      <trkpt lat="45.8294" lon="1.38684">
        <ele>386</ele>
        <time>2022-05-18T15:33:52Z</time>
      </trkpt>
      <trkpt lat="45.82928" lon="1.38712">
        <ele>378</ele>
        <time>2022-05-18T15:33:57Z</time>
      </trkpt>
      <trkpt lat="45.82919" lon="1.38733">
        <ele>374</ele>
        <time>2022-05-18T15:34:00Z</time>
      </trkpt>
      <trkpt lat="45.82908" lon="1.38755">
        <ele>373</ele>
        <time>2022-05-18T15:34:03Z</time>
      </trkpt>
      <trkpt lat="45.82892" lon="1.38774">
        <ele>371</ele>
        <time>2022-05-18T15:34:06Z</time>
      </trkpt>
      <trkpt lat="45.82872" lon="1.38798">
        <ele>371</ele>
        <time>2022-05-18T15:34:09Z</time>
      </trkpt>
      <trkpt lat="45.82853" lon="1.3882">
        <ele>372</ele>
        <time>2022-05-18T15:34:12Z</time>
      </trkpt>
      <trkpt lat="45.82835" lon="1.38844">
        <ele>373</ele>
        <time>2022-05-18T15:34:15Z</time>
      </trkpt>
      <trkpt lat="45.82816" lon="1.38867">
        <ele>374</ele>
        <time>2022-05-18T15:34:18Z</time>
      </trkpt>
      <trkpt lat="45.82799" lon="1.38887">
        <ele>375</ele>
        <time>2022-05-18T15:34:21Z</time>
      </trkpt>
      <trkpt lat="45.82782" lon="1.38907">
        <ele>374</ele>
        <time>2022-05-18T15:34:24Z</time>
      </trkpt>
      <trkpt lat="45.82766" lon="1.38925">
        <ele>374</ele>
        <time>2022-05-18T15:34:27Z</time>
      </trkpt>
      <trkpt lat="45.82763" lon="1.38952">
        <ele>374</ele>
        <time>2022-05-18T15:34:30Z</time>
      </trkpt>
      <trkpt lat="45.82762" lon="1.38978">
        <ele>375</ele>
        <time>2022-05-18T15:34:34Z</time>
      </trkpt>
      <trkpt lat="45.82747" lon="1.38984">
        <ele>376</ele>
        <time>2022-05-18T15:34:40Z</time>
      </trkpt>
      <trkpt lat="45.82726" lon="1.38985">
        <ele>376</ele>
        <time>2022-05-18T15:34:46Z</time>
      </trkpt>
      <trkpt lat="45.82704" lon="1.38982">
        <ele>377</ele>
        <time>2022-05-18T15:34:52Z</time>
      </trkpt>
      <trkpt lat="45.82682" lon="1.38989">
        <ele>378</ele>
        <time>2022-05-18T15:34:57Z</time>
      </trkpt>
      <trkpt lat="45.82666" lon="1.39">
        <ele>377</ele>
        <time>2022-05-18T15:35:01Z</time>
      </trkpt>
      <trkpt lat="45.8265" lon="1.39012">
        <ele>377</ele>
        <time>2022-05-18T15:35:05Z</time>
      </trkpt>
      <trkpt lat="45.82637" lon="1.39023">
        <ele>377</ele>
        <time>2022-05-18T15:35:08Z</time>
      </trkpt>
      <trkpt lat="45.82624" lon="1.39036">
        <ele>377</ele>
        <time>2022-05-18T15:35:11Z</time>
      </trkpt>
      <trkpt lat="45.8261" lon="1.39048">
        <ele>376</ele>
        <time>2022-05-18T15:35:14Z</time>
      </trkpt>
      <trkpt lat="45.82595" lon="1.39061">
        <ele>376</ele>
        <time>2022-05-18T15:35:17Z</time>
      </trkpt>
      <trkpt lat="45.82579" lon="1.39075">
        <ele>376</ele>
        <time>2022-05-18T15:35:20Z</time>
      </trkpt>
      <trkpt lat="45.82563" lon="1.39093">
        <ele>376</ele>
        <time>2022-05-18T15:35:23Z</time>
      </trkpt>
      <trkpt lat="45.8255" lon="1.39112">
        <ele>375</ele>
        <time>2022-05-18T15:35:26Z</time>
      </trkpt>
      <trkpt lat="45.82536" lon="1.39132">
        <ele>373</ele>
        <time>2022-05-18T15:35:29Z</time>
      </trkpt>
      <trkpt lat="45.82522" lon="1.39151">
        <ele>373</ele>
        <time>2022-05-18T15:35:32Z</time>
      </trkpt>
      <trkpt lat="45.82505" lon="1.39164">
        <ele>373</ele>
        <time>2022-05-18T15:35:35Z</time>
      </trkpt>
      <trkpt lat="45.82488" lon="1.39174">
        <ele>372</ele>
        <time>2022-05-18T15:35:38Z</time>
      </trkpt>
      <trkpt lat="45.82469" lon="1.39179">
        <ele>372</ele>
        <time>2022-05-18T15:35:41Z</time>
      </trkpt>
      <trkpt lat="45.82453" lon="1.39182">
        <ele>372</ele>
        <time>2022-05-18T15:35:44Z</time>
      </trkpt>
      <trkpt lat="45.82437" lon="1.39184">
        <ele>372</ele>
        <time>2022-05-18T15:35:47Z</time>
      </trkpt>
      <trkpt lat="45.8242" lon="1.39187">
        <ele>373</ele>
        <time>2022-05-18T15:35:50Z</time>
      </trkpt>
      <trkpt lat="45.82403" lon="1.39193">
        <ele>373</ele>
        <time>2022-05-18T15:35:53Z</time>
      </trkpt>
      <trkpt lat="45.82385" lon="1.39199">
        <ele>374</ele>
        <time>2022-05-18T15:35:56Z</time>
      </trkpt>
      <trkpt lat="45.82366" lon="1.39203">
        <ele>377</ele>
        <time>2022-05-18T15:35:59Z</time>
      </trkpt>
      <trkpt lat="45.82346" lon="1.39207">
        <ele>379</ele>
        <time>2022-05-18T15:36:02Z</time>
      </trkpt>
      <trkpt lat="45.82327" lon="1.39209">
        <ele>380</ele>
        <time>2022-05-18T15:36:05Z</time>
      </trkpt>
      <trkpt lat="45.82308" lon="1.39209">
        <ele>381</ele>
        <time>2022-05-18T15:36:08Z</time>
      </trkpt>
      <trkpt lat="45.82289" lon="1.39209">
        <ele>381</ele>
        <time>2022-05-18T15:36:11Z</time>
      </trkpt>
      <trkpt lat="45.82274" lon="1.39207">
        <ele>382</ele>
        <time>2022-05-18T15:36:14Z</time>
      </trkpt>
      <trkpt lat="45.82257" lon="1.39205">
        <ele>383</ele>
        <time>2022-05-18T15:36:17Z</time>
      </trkpt>
      <trkpt lat="45.82242" lon="1.39203">
        <ele>384</ele>
        <time>2022-05-18T15:36:20Z</time>
      </trkpt>
      <trkpt lat="45.82224" lon="1.39201">
        <ele>384</ele>
        <time>2022-05-18T15:36:23Z</time>
      </trkpt>
      <trkpt lat="45.82204" lon="1.39198">
        <ele>385</ele>
        <time>2022-05-18T15:36:26Z</time>
      </trkpt>
      <trkpt lat="45.82185" lon="1.39196">
        <ele>385</ele>
        <time>2022-05-18T15:36:29Z</time>
      </trkpt>
      <trkpt lat="45.82166" lon="1.39193">
        <ele>384</ele>
        <time>2022-05-18T15:36:32Z</time>
      </trkpt>
      <trkpt lat="45.82147" lon="1.39188">
        <ele>384</ele>
        <time>2022-05-18T15:36:35Z</time>
      </trkpt>
      <trkpt lat="45.82128" lon="1.39178">
        <ele>384</ele>
        <time>2022-05-18T15:36:38Z</time>
      </trkpt>
      <trkpt lat="45.82111" lon="1.39165">
        <ele>383</ele>
        <time>2022-05-18T15:36:41Z</time>
      </trkpt>
      <trkpt lat="45.82095" lon="1.3915">
        <ele>383</ele>
        <time>2022-05-18T15:36:44Z</time>
      </trkpt>
      <trkpt lat="45.82079" lon="1.39133">
        <ele>383</ele>
        <time>2022-05-18T15:36:47Z</time>
      </trkpt>
      <trkpt lat="45.82066" lon="1.39113">
        <ele>383</ele>
        <time>2022-05-18T15:36:50Z</time>
      </trkpt>
      <trkpt lat="45.82052" lon="1.39094">
        <ele>384</ele>
        <time>2022-05-18T15:36:53Z</time>
      </trkpt>
      <trkpt lat="45.82038" lon="1.39077">
        <ele>385</ele>
        <time>2022-05-18T15:36:56Z</time>
      </trkpt>
      <trkpt lat="45.82026" lon="1.3906">
        <ele>385</ele>
        <time>2022-05-18T15:36:59Z</time>
      </trkpt>
      <trkpt lat="45.82015" lon="1.39041">
        <ele>385</ele>
        <time>2022-05-18T15:37:02Z</time>
      </trkpt>
      <trkpt lat="45.82006" lon="1.39025">
        <ele>384</ele>
        <time>2022-05-18T15:37:05Z</time>
      </trkpt>
      <trkpt lat="45.81996" lon="1.3901">
        <ele>384</ele>
        <time>2022-05-18T15:37:08Z</time>
      </trkpt>
      <trkpt lat="45.81987" lon="1.38993">
        <ele>384</ele>
        <time>2022-05-18T15:37:11Z</time>
      </trkpt>
      <trkpt lat="45.81977" lon="1.38977">
        <ele>384</ele>
        <time>2022-05-18T15:37:14Z</time>
      </trkpt>
      <trkpt lat="45.81966" lon="1.3896">
        <ele>385</ele>
        <time>2022-05-18T15:37:17Z</time>
      </trkpt>
      <trkpt lat="45.81956" lon="1.38943">
        <ele>385</ele>
        <time>2022-05-18T15:37:20Z</time>
      </trkpt>
      <trkpt lat="45.81946" lon="1.38927">
        <ele>385</ele>
        <time>2022-05-18T15:37:23Z</time>
      </trkpt>
      <trkpt lat="45.81935" lon="1.38913">
        <ele>385</ele>
        <time>2022-05-18T15:37:26Z</time>
      </trkpt>
      <trkpt lat="45.81923" lon="1.38898">
        <ele>385</ele>
        <time>2022-05-18T15:37:29Z</time>
      </trkpt>
      <trkpt lat="45.8191" lon="1.38885">
        <ele>385</ele>
        <time>2022-05-18T15:37:32Z</time>
      </trkpt>
      <trkpt lat="45.81897" lon="1.3887">
        <ele>384</ele>
        <time>2022-05-18T15:37:35Z</time>
      </trkpt>
      <trkpt lat="45.81883" lon="1.38857">
        <ele>385</ele>
        <time>2022-05-18T15:37:38Z</time>
      </trkpt>
      <trkpt lat="45.81869" lon="1.38844">
        <ele>385</ele>
        <time>2022-05-18T15:37:41Z</time>
      </trkpt>
      <trkpt lat="45.81855" lon="1.38828">
        <ele>385</ele>
        <time>2022-05-18T15:37:44Z</time>
      </trkpt>
      <trkpt lat="45.81841" lon="1.3881">
        <ele>384</ele>
        <time>2022-05-18T15:37:47Z</time>
      </trkpt>
      <trkpt lat="45.81827" lon="1.38789">
        <ele>382</ele>
        <time>2022-05-18T15:37:50Z</time>
      </trkpt>
      <trkpt lat="45.81812" lon="1.38767">
        <ele>381</ele>
        <time>2022-05-18T15:37:53Z</time>
      </trkpt>
      <trkpt lat="45.81799" lon="1.38751">
        <ele>380</ele>
        <time>2022-05-18T15:37:56Z</time>
      </trkpt>
      <trkpt lat="45.81776" lon="1.3876">
        <ele>378</ele>
        <time>2022-05-18T15:38:02Z</time>
      </trkpt>
      <trkpt lat="45.81762" lon="1.38769">
        <ele>377</ele>
        <time>2022-05-18T15:38:05Z</time>
      </trkpt>
      <trkpt lat="45.81744" lon="1.3877">
        <ele>376</ele>
        <time>2022-05-18T15:38:08Z</time>
      </trkpt>
      <trkpt lat="45.8173" lon="1.38761">
        <ele>376</ele>
        <time>2022-05-18T15:38:11Z</time>
      </trkpt>
      <trkpt lat="45.81715" lon="1.38754">
        <ele>378</ele>
        <time>2022-05-18T15:38:14Z</time>
      </trkpt>
      <trkpt lat="45.81701" lon="1.38746">
        <ele>379</ele>
        <time>2022-05-18T15:38:17Z</time>
      </trkpt>
      <trkpt lat="45.81699" lon="1.38733">
        <ele>380</ele>
        <time>2022-05-18T15:38:28Z</time>
      </trkpt>
      <trkpt lat="45.81709" lon="1.3871">
        <ele>380</ele>
        <time>2022-05-18T15:38:34Z</time>
      </trkpt>
      <trkpt lat="45.81716" lon="1.38689">
        <ele>379</ele>
        <time>2022-05-18T15:38:37Z</time>
      </trkpt>
      <trkpt lat="45.81724" lon="1.38663">
        <ele>378</ele>
        <time>2022-05-18T15:38:40Z</time>
      </trkpt>
      <trkpt lat="45.81735" lon="1.38635">
        <ele>378</ele>
        <time>2022-05-18T15:38:43Z</time>
      </trkpt>
      <trkpt lat="45.81741" lon="1.38606">
        <ele>376</ele>
        <time>2022-05-18T15:38:46Z</time>
      </trkpt>
      <trkpt lat="45.81736" lon="1.38577">
        <ele>375</ele>
        <time>2022-05-18T15:38:49Z</time>
      </trkpt>
      <trkpt lat="45.81723" lon="1.38553">
        <ele>375</ele>
        <time>2022-05-18T15:38:52Z</time>
      </trkpt>
      <trkpt lat="45.81708" lon="1.38534">
        <ele>375</ele>
        <time>2022-05-18T15:38:55Z</time>
      </trkpt>
      <trkpt lat="45.81691" lon="1.38512">
        <ele>375</ele>
        <time>2022-05-18T15:38:58Z</time>
      </trkpt>
      <trkpt lat="45.81675" lon="1.38495">
        <ele>374</ele>
        <time>2022-05-18T15:39:01Z</time>
      </trkpt>
      <trkpt lat="45.81656" lon="1.38475">
        <ele>373</ele>
        <time>2022-05-18T15:39:04Z</time>
      </trkpt>
      <trkpt lat="45.81639" lon="1.38453">
        <ele>371</ele>
        <time>2022-05-18T15:39:07Z</time>
      </trkpt>
      <trkpt lat="45.81622" lon="1.38434">
        <ele>369</ele>
        <time>2022-05-18T15:39:10Z</time>
      </trkpt>
      <trkpt lat="45.81603" lon="1.38407">
        <ele>369</ele>
        <time>2022-05-18T15:39:13Z</time>
      </trkpt>
      <trkpt lat="45.81587" lon="1.38377">
        <ele>367</ele>
        <time>2022-05-18T15:39:16Z</time>
      </trkpt>
      <trkpt lat="45.8157" lon="1.38347">
        <ele>366</ele>
        <time>2022-05-18T15:39:19Z</time>
      </trkpt>
      <trkpt lat="45.81552" lon="1.38315">
        <ele>364</ele>
        <time>2022-05-18T15:39:22Z</time>
      </trkpt>
      <trkpt lat="45.81533" lon="1.38285">
        <ele>362</ele>
        <time>2022-05-18T15:39:25Z</time>
      </trkpt>
      <trkpt lat="45.81514" lon="1.38254">
        <ele>360</ele>
        <time>2022-05-18T15:39:28Z</time>
      </trkpt>
      <trkpt lat="45.81496" lon="1.38224">
        <ele>359</ele>
        <time>2022-05-18T15:39:31Z</time>
      </trkpt>
      <trkpt lat="45.81477" lon="1.38199">
        <ele>357</ele>
        <time>2022-05-18T15:39:34Z</time>
      </trkpt>
      <trkpt lat="45.81453" lon="1.38185">
        <ele>355</ele>
        <time>2022-05-18T15:39:37Z</time>
      </trkpt>
      <trkpt lat="45.81426" lon="1.38176">
        <ele>352</ele>
        <time>2022-05-18T15:39:40Z</time>
      </trkpt>
      <trkpt lat="45.81398" lon="1.38162">
        <ele>351</ele>
        <time>2022-05-18T15:39:43Z</time>
      </trkpt>
      <trkpt lat="45.81379" lon="1.38135">
        <ele>350</ele>
        <time>2022-05-18T15:39:46Z</time>
      </trkpt>
      <trkpt lat="45.81364" lon="1.38108">
        <ele>349</ele>
        <time>2022-05-18T15:39:49Z</time>
      </trkpt>
      <trkpt lat="45.81356" lon="1.38094">
        <ele>348</ele>
        <time>2022-05-18T15:40:11Z</time>
      </trkpt>
      <trkpt lat="45.81363" lon="1.3809">
        <ele>322</ele>
        <time>2022-05-18T15:40:16Z</time>
      </trkpt>
      <trkpt lat="45.81346" lon="1.38094">
        <ele>310</ele>
        <time>2022-05-18T15:40:44Z</time>
      </trkpt>
      <trkpt lat="45.81327" lon="1.38101">
        <ele>339</ele>
        <time>2022-05-18T15:41:22Z</time>
      </trkpt>
      <trkpt lat="45.8131" lon="1.38091">
        <ele>338</ele>
        <time>2022-05-18T15:41:26Z</time>
      </trkpt>
      <trkpt lat="45.81297" lon="1.3808">
        <ele>340</ele>
        <time>2022-05-18T15:41:29Z</time>
      </trkpt>
      <trkpt lat="45.81284" lon="1.38066">
        <ele>340</ele>
        <time>2022-05-18T15:41:32Z</time>
      </trkpt>
      <trkpt lat="45.81265" lon="1.38076">
        <ele>336</ele>
        <time>2022-05-18T15:41:37Z</time>
      </trkpt>
      <trkpt lat="45.81246" lon="1.38096">
        <ele>328</ele>
        <time>2022-05-18T15:41:43Z</time>
      </trkpt>
      <trkpt lat="45.81233" lon="1.38124">
        <ele>322</ele>
        <time>2022-05-18T15:41:49Z</time>
      </trkpt>
      <trkpt lat="45.81218" lon="1.3814">
        <ele>318</ele>
        <time>2022-05-18T15:41:52Z</time>
      </trkpt>
      <trkpt lat="45.81199" lon="1.38153">
        <ele>317</ele>
        <time>2022-05-18T15:41:56Z</time>
      </trkpt>
      <trkpt lat="45.81179" lon="1.38159">
        <ele>317</ele>
        <time>2022-05-18T15:42:00Z</time>
      </trkpt>
      <trkpt lat="45.81165" lon="1.38162">
        <ele>319</ele>
        <time>2022-05-18T15:42:03Z</time>
      </trkpt>
      <trkpt lat="45.81143" lon="1.38173">
        <ele>321</ele>
        <time>2022-05-18T15:42:08Z</time>
      </trkpt>
      <trkpt lat="45.81134" lon="1.38203">
        <ele>322</ele>
        <time>2022-05-18T15:42:14Z</time>
      </trkpt>
      <trkpt lat="45.81123" lon="1.38222">
        <ele>323</ele>
        <time>2022-05-18T15:42:17Z</time>
      </trkpt>
      <trkpt lat="45.81112" lon="1.38239">
        <ele>324</ele>
        <time>2022-05-18T15:42:20Z</time>
      </trkpt>
      <trkpt lat="45.81103" lon="1.3826">
        <ele>325</ele>
        <time>2022-05-18T15:42:23Z</time>
      </trkpt>
      <trkpt lat="45.81093" lon="1.38279">
        <ele>326</ele>
        <time>2022-05-18T15:42:26Z</time>
      </trkpt>
      <trkpt lat="45.81082" lon="1.38302">
        <ele>327</ele>
        <time>2022-05-18T15:42:29Z</time>
      </trkpt>
      <trkpt lat="45.8107" lon="1.38318">
        <ele>330</ele>
        <time>2022-05-18T15:42:32Z</time>
      </trkpt>
      <trkpt lat="45.81053" lon="1.38325">
        <ele>334</ele>
        <time>2022-05-18T15:42:35Z</time>
      </trkpt>
      <trkpt lat="45.81031" lon="1.38327">
        <ele>340</ele>
        <time>2022-05-18T15:42:40Z</time>
      </trkpt>
      <trkpt lat="45.81015" lon="1.38332">
        <ele>345</ele>
        <time>2022-05-18T15:42:43Z</time>
      </trkpt>
      <trkpt lat="45.80999" lon="1.38338">
        <ele>348</ele>
        <time>2022-05-18T15:42:46Z</time>
      </trkpt>
      <trkpt lat="45.80985" lon="1.38345">
        <ele>351</ele>
        <time>2022-05-18T15:42:49Z</time>
      </trkpt>
      <trkpt lat="45.80969" lon="1.38353">
        <ele>352</ele>
        <time>2022-05-18T15:42:52Z</time>
      </trkpt>
      <trkpt lat="45.80949" lon="1.38359">
        <ele>352</ele>
        <time>2022-05-18T15:42:55Z</time>
      </trkpt>
      <trkpt lat="45.80929" lon="1.38362">
        <ele>352</ele>
        <time>2022-05-18T15:42:58Z</time>
      </trkpt>
      <trkpt lat="45.80912" lon="1.38371">
        <ele>354</ele>
        <time>2022-05-18T15:43:01Z</time>
      </trkpt>
      <trkpt lat="45.80898" lon="1.38384">
        <ele>355</ele>
        <time>2022-05-18T15:43:04Z</time>
      </trkpt>
      <trkpt lat="45.80883" lon="1.38394">
        <ele>355</ele>
        <time>2022-05-18T15:43:07Z</time>
      </trkpt>
      <trkpt lat="45.80871" lon="1.38412">
        <ele>355</ele>
        <time>2022-05-18T15:43:10Z</time>
      </trkpt>
      <trkpt lat="45.80869" lon="1.38434">
        <ele>356</ele>
        <time>2022-05-18T15:43:13Z</time>
      </trkpt>
      <trkpt lat="45.80869" lon="1.38455">
        <ele>356</ele>
        <time>2022-05-18T15:43:16Z</time>
      </trkpt>
      <trkpt lat="45.80869" lon="1.38487">
        <ele>357</ele>
        <time>2022-05-18T15:43:21Z</time>
      </trkpt>
      <trkpt lat="45.80869" lon="1.38515">
        <ele>359</ele>
        <time>2022-05-18T15:43:25Z</time>
      </trkpt>
      <trkpt lat="45.80865" lon="1.38536">
        <ele>361</ele>
        <time>2022-05-18T15:43:28Z</time>
      </trkpt>
      <trkpt lat="45.80859" lon="1.38556">
        <ele>364</ele>
        <time>2022-05-18T15:43:39Z</time>
      </trkpt>
      <trkpt lat="45.80857" lon="1.38581">
        <ele>365</ele>
        <time>2022-05-18T15:43:48Z</time>
      </trkpt>
      <trkpt lat="45.80854" lon="1.38593">
        <ele>371</ele>
        <time>2022-05-18T15:44:16Z</time>
      </trkpt>
      <trkpt lat="45.8085" lon="1.38622">
        <ele>370</ele>
        <time>2022-05-18T15:44:22Z</time>
      </trkpt>
      <trkpt lat="45.80843" lon="1.38653">
        <ele>370</ele>
        <time>2022-05-18T15:44:28Z</time>
      </trkpt>
      <trkpt lat="45.8084" lon="1.38683">
        <ele>376</ele>
        <time>2022-05-18T15:44:34Z</time>
      </trkpt>
      <trkpt lat="45.80835" lon="1.38709">
        <ele>381</ele>
        <time>2022-05-18T15:44:38Z</time>
      </trkpt>
      <trkpt lat="45.80829" lon="1.38734">
        <ele>384</ele>
        <time>2022-05-18T15:44:42Z</time>
      </trkpt>
      <trkpt lat="45.80823" lon="1.38764">
        <ele>384</ele>
        <time>2022-05-18T15:44:47Z</time>
      </trkpt>
      <trkpt lat="45.80809" lon="1.38785">
        <ele>383</ele>
        <time>2022-05-18T15:44:51Z</time>
      </trkpt>
      <trkpt lat="45.80793" lon="1.38804">
        <ele>383</ele>
        <time>2022-05-18T15:44:56Z</time>
      </trkpt>
      <trkpt lat="45.80775" lon="1.38827">
        <ele>384</ele>
        <time>2022-05-18T15:45:02Z</time>
      </trkpt>
      <trkpt lat="45.80756" lon="1.38845">
        <ele>385</ele>
        <time>2022-05-18T15:45:07Z</time>
      </trkpt>
      <trkpt lat="45.80742" lon="1.38853">
        <ele>386</ele>
        <time>2022-05-18T15:45:10Z</time>
      </trkpt>
      <trkpt lat="45.80724" lon="1.38859">
        <ele>386</ele>
        <time>2022-05-18T15:45:14Z</time>
      </trkpt>
      <trkpt lat="45.80709" lon="1.38867">
        <ele>386</ele>
        <time>2022-05-18T15:45:17Z</time>
      </trkpt>
      <trkpt lat="45.80697" lon="1.38879">
        <ele>386</ele>
        <time>2022-05-18T15:45:20Z</time>
      </trkpt>
      <trkpt lat="45.80687" lon="1.389">
        <ele>387</ele>
        <time>2022-05-18T15:45:23Z</time>
      </trkpt>
      <trkpt lat="45.80678" lon="1.38921">
        <ele>388</ele>
        <time>2022-05-18T15:45:26Z</time>
      </trkpt>
      <trkpt lat="45.80667" lon="1.38941">
        <ele>389</ele>
        <time>2022-05-18T15:45:29Z</time>
      </trkpt>
      <trkpt lat="45.80656" lon="1.38959">
        <ele>389</ele>
        <time>2022-05-18T15:45:32Z</time>
      </trkpt>
      <trkpt lat="45.80647" lon="1.38976">
        <ele>390</ele>
        <time>2022-05-18T15:45:35Z</time>
      </trkpt>
      <trkpt lat="45.80635" lon="1.38995">
        <ele>390</ele>
        <time>2022-05-18T15:45:39Z</time>
      </trkpt>
      <trkpt lat="45.8062" lon="1.3901">
        <ele>390</ele>
        <time>2022-05-18T15:45:45Z</time>
      </trkpt>
      <trkpt lat="45.80613" lon="1.3899">
        <ele>390</ele>
        <time>2022-05-18T15:45:49Z</time>
      </trkpt>
      <trkpt lat="45.80601" lon="1.38964">
        <ele>390</ele>
        <time>2022-05-18T15:45:54Z</time>
      </trkpt>
      <trkpt lat="45.8059" lon="1.3895">
        <ele>391</ele>
        <time>2022-05-18T15:45:57Z</time>
      </trkpt>
      <trkpt lat="45.80578" lon="1.38938">
        <ele>392</ele>
        <time>2022-05-18T15:46:00Z</time>
      </trkpt>
      <trkpt lat="45.80562" lon="1.38926">
        <ele>393</ele>
        <time>2022-05-18T15:46:04Z</time>
      </trkpt>
      <trkpt lat="45.80545" lon="1.38917">
        <ele>395</ele>
        <time>2022-05-18T15:46:08Z</time>
      </trkpt>
      <trkpt lat="45.80522" lon="1.38907">
        <ele>396</ele>
        <time>2022-05-18T15:46:14Z</time>
      </trkpt>
      <trkpt lat="45.8051" lon="1.38919">
        <ele>398</ele>
        <time>2022-05-18T15:46:20Z</time>
      </trkpt>
      <trkpt lat="45.80515" lon="1.38949">
        <ele>399</ele>
        <time>2022-05-18T15:46:25Z</time>
      </trkpt>
      <trkpt lat="45.80522" lon="1.38985">
        <ele>400</ele>
        <time>2022-05-18T15:46:31Z</time>
      </trkpt>
      <trkpt lat="45.80528" lon="1.39016">
        <ele>401</ele>
        <time>2022-05-18T15:46:37Z</time>
      </trkpt>
      <trkpt lat="45.8053" lon="1.39042">
        <ele>402</ele>
        <time>2022-05-18T15:46:43Z</time>
      </trkpt>
      <trkpt lat="45.80533" lon="1.39066">
        <ele>402</ele>
        <time>2022-05-18T15:46:49Z</time>
      </trkpt>
      <trkpt lat="45.80523" lon="1.39071">
        <ele>402</ele>
        <time>2022-05-18T15:46:55Z</time>
      </trkpt>
      <trkpt lat="45.80507" lon="1.39057">
        <ele>402</ele>
        <time>2022-05-18T15:46:59Z</time>
      </trkpt>
      <trkpt lat="45.80492" lon="1.39047">
        <ele>402</ele>
        <time>2022-05-18T15:47:02Z</time>
      </trkpt>
      <trkpt lat="45.80474" lon="1.39039">
        <ele>402</ele>
        <time>2022-05-18T15:47:09Z</time>
      </trkpt>
      <trkpt lat="45.8045" lon="1.39027">
        <ele>402</ele>
        <time>2022-05-18T15:47:15Z</time>
      </trkpt>
      <trkpt lat="45.80429" lon="1.39021">
        <ele>403</ele>
        <time>2022-05-18T15:47:21Z</time>
      </trkpt>
      <trkpt lat="45.80412" lon="1.3902">
        <ele>404</ele>
        <time>2022-05-18T15:47:27Z</time>
      </trkpt>
      <trkpt lat="45.80393" lon="1.39019">
        <ele>405</ele>
        <time>2022-05-18T15:47:33Z</time>
      </trkpt>
      <trkpt lat="45.80373" lon="1.39008">
        <ele>406</ele>
        <time>2022-05-18T15:47:39Z</time>
      </trkpt>
      <trkpt lat="45.80356" lon="1.38994">
        <ele>408</ele>
        <time>2022-05-18T15:47:46Z</time>
      </trkpt>
      <trkpt lat="45.80336" lon="1.38982">
        <ele>407</ele>
        <time>2022-05-18T15:47:52Z</time>
      </trkpt>
      <trkpt lat="45.80318" lon="1.3898">
        <ele>407</ele>
        <time>2022-05-18T15:47:57Z</time>
      </trkpt>
      <trkpt lat="45.80293" lon="1.38981">
        <ele>407</ele>
        <time>2022-05-18T15:48:03Z</time>
      </trkpt>
      <trkpt lat="45.80275" lon="1.38995">
        <ele>407</ele>
        <time>2022-05-18T15:48:09Z</time>
      </trkpt>
      <trkpt lat="45.80261" lon="1.39015">
        <ele>407</ele>
        <time>2022-05-18T15:48:15Z</time>
      </trkpt>
      <trkpt lat="45.80253" lon="1.39044">
        <ele>409</ele>
        <time>2022-05-18T15:48:21Z</time>
      </trkpt>
      <trkpt lat="45.8025" lon="1.39066">
        <ele>410</ele>
        <time>2022-05-18T15:48:24Z</time>
      </trkpt>
      <trkpt lat="45.80252" lon="1.3909">
        <ele>411</ele>
        <time>2022-05-18T15:48:27Z</time>
      </trkpt>
      <trkpt lat="45.80251" lon="1.39115">
        <ele>412</ele>
        <time>2022-05-18T15:48:30Z</time>
      </trkpt>
      <trkpt lat="45.80248" lon="1.39141">
        <ele>412</ele>
        <time>2022-05-18T15:48:33Z</time>
      </trkpt>
      <trkpt lat="45.80243" lon="1.39168">
        <ele>411</ele>
        <time>2022-05-18T15:48:36Z</time>
      </trkpt>
      <trkpt lat="45.8023" lon="1.39199">
        <ele>412</ele>
        <time>2022-05-18T15:48:39Z</time>
      </trkpt>
      <trkpt lat="45.80213" lon="1.39217">
        <ele>412</ele>
        <time>2022-05-18T15:48:42Z</time>
      </trkpt>
      <trkpt lat="45.80199" lon="1.39236">
        <ele>412</ele>
        <time>2022-05-18T15:48:45Z</time>
      </trkpt>
      <trkpt lat="45.80188" lon="1.3926">
        <ele>412</ele>
        <time>2022-05-18T15:48:48Z</time>
      </trkpt>
      <trkpt lat="45.80177" lon="1.39285">
        <ele>414</ele>
        <time>2022-05-18T15:48:51Z</time>
      </trkpt>
      <trkpt lat="45.80167" lon="1.39307">
        <ele>415</ele>
        <time>2022-05-18T15:48:54Z</time>
      </trkpt>
      <trkpt lat="45.80156" lon="1.39325">
        <ele>415</ele>
        <time>2022-05-18T15:48:57Z</time>
      </trkpt>
      <trkpt lat="45.80143" lon="1.39343">
        <ele>414</ele>
        <time>2022-05-18T15:49:00Z</time>
      </trkpt>
      <trkpt lat="45.80127" lon="1.39358">
        <ele>414</ele>
        <time>2022-05-18T15:49:03Z</time>
      </trkpt>
      <trkpt lat="45.80115" lon="1.39374">
        <ele>415</ele>
        <time>2022-05-18T15:49:06Z</time>
      </trkpt>
      <trkpt lat="45.80109" lon="1.39395">
        <ele>414</ele>
        <time>2022-05-18T15:49:09Z</time>
      </trkpt>
      <trkpt lat="45.80108" lon="1.39419">
        <ele>414</ele>
        <time>2022-05-18T15:49:12Z</time>
      </trkpt>
      <trkpt lat="45.80113" lon="1.39444">
        <ele>414</ele>
        <time>2022-05-18T15:49:15Z</time>
      </trkpt>
      <trkpt lat="45.8012" lon="1.39473">
        <ele>414</ele>
        <time>2022-05-18T15:49:18Z</time>
      </trkpt>
      <trkpt lat="45.80122" lon="1.39503">
        <ele>415</ele>
        <time>2022-05-18T15:49:21Z</time>
      </trkpt>
      <trkpt lat="45.80115" lon="1.3953">
        <ele>414</ele>
        <time>2022-05-18T15:49:24Z</time>
      </trkpt>
      <trkpt lat="45.80107" lon="1.39559">
        <ele>413</ele>
        <time>2022-05-18T15:49:27Z</time>
      </trkpt>
      <trkpt lat="45.80094" lon="1.39589">
        <ele>412</ele>
        <time>2022-05-18T15:49:30Z</time>
      </trkpt>
      <trkpt lat="45.80084" lon="1.39618">
        <ele>412</ele>
        <time>2022-05-18T15:49:33Z</time>
      </trkpt>
      <trkpt lat="45.8007" lon="1.39644">
        <ele>411</ele>
        <time>2022-05-18T15:49:36Z</time>
      </trkpt>
      <trkpt lat="45.80059" lon="1.39669">
        <ele>411</ele>
        <time>2022-05-18T15:49:39Z</time>
      </trkpt>
      <trkpt lat="45.80052" lon="1.39697">
        <ele>411</ele>
        <time>2022-05-18T15:49:42Z</time>
      </trkpt>
      <trkpt lat="45.8005" lon="1.39726">
        <ele>410</ele>
        <time>2022-05-18T15:49:45Z</time>
      </trkpt>
      <trkpt lat="45.80058" lon="1.39751">
        <ele>408</ele>
        <time>2022-05-18T15:49:48Z</time>
      </trkpt>
      <trkpt lat="45.80066" lon="1.39774">
        <ele>408</ele>
        <time>2022-05-18T15:49:51Z</time>
      </trkpt>
      <trkpt lat="45.8007" lon="1.398">
        <ele>407</ele>
        <time>2022-05-18T15:49:54Z</time>
      </trkpt>
      <trkpt lat="45.80069" lon="1.39825">
        <ele>407</ele>
        <time>2022-05-18T15:49:57Z</time>
      </trkpt>
      <trkpt lat="45.80064" lon="1.39854">
        <ele>406</ele>
        <time>2022-05-18T15:50:00Z</time>
      </trkpt>
      <trkpt lat="45.80059" lon="1.39884">
        <ele>405</ele>
        <time>2022-05-18T15:50:03Z</time>
      </trkpt>
      <trkpt lat="45.80053" lon="1.39912">
        <ele>403</ele>
        <time>2022-05-18T15:50:06Z</time>
      </trkpt>
      <trkpt lat="45.80047" lon="1.39937">
        <ele>402</ele>
        <time>2022-05-18T15:50:09Z</time>
      </trkpt>
      <trkpt lat="45.80042" lon="1.39963">
        <ele>402</ele>
        <time>2022-05-18T15:50:12Z</time>
      </trkpt>
      <trkpt lat="45.80039" lon="1.39989">
        <ele>401</ele>
        <time>2022-05-18T15:50:16Z</time>
      </trkpt>
      <trkpt lat="45.80052" lon="1.39993">
        <ele>400</ele>
        <time>2022-05-18T15:50:23Z</time>
      </trkpt>
      <trkpt lat="45.80068" lon="1.39976">
        <ele>399</ele>
        <time>2022-05-18T15:50:28Z</time>
      </trkpt>
      <trkpt lat="45.80085" lon="1.39969">
        <ele>398</ele>
        <time>2022-05-18T15:50:32Z</time>
      </trkpt>
      <trkpt lat="45.80102" lon="1.39965">
        <ele>397</ele>
        <time>2022-05-18T15:50:35Z</time>
      </trkpt>
      <trkpt lat="45.80125" lon="1.39959">
        <ele>397</ele>
        <time>2022-05-18T15:50:38Z</time>
      </trkpt>
      <trkpt lat="45.80147" lon="1.39951">
        <ele>396</ele>
        <time>2022-05-18T15:50:41Z</time>
      </trkpt>
      <trkpt lat="45.80168" lon="1.39943">
        <ele>394</ele>
        <time>2022-05-18T15:50:44Z</time>
      </trkpt>
      <trkpt lat="45.80188" lon="1.3993">
        <ele>392</ele>
        <time>2022-05-18T15:50:47Z</time>
      </trkpt>
      <trkpt lat="45.80212" lon="1.39925">
        <ele>389</ele>
        <time>2022-05-18T15:50:50Z</time>
      </trkpt>
      <trkpt lat="45.80238" lon="1.3992">
        <ele>387</ele>
        <time>2022-05-18T15:50:53Z</time>
      </trkpt>
      <trkpt lat="45.80266" lon="1.39909">
        <ele>384</ele>
        <time>2022-05-18T15:50:56Z</time>
      </trkpt>
      <trkpt lat="45.80292" lon="1.39898">
        <ele>381</ele>
        <time>2022-05-18T15:50:59Z</time>
      </trkpt>
      <trkpt lat="45.80317" lon="1.3989">
        <ele>379</ele>
        <time>2022-05-18T15:51:02Z</time>
      </trkpt>
      <trkpt lat="45.80343" lon="1.39887">
        <ele>378</ele>
        <time>2022-05-18T15:51:05Z</time>
      </trkpt>
      <trkpt lat="45.80368" lon="1.39883">
        <ele>379</ele>
        <time>2022-05-18T15:51:08Z</time>
      </trkpt>
      <trkpt lat="45.8039" lon="1.39875">
        <ele>381</ele>
        <time>2022-05-18T15:51:11Z</time>
      </trkpt>
      <trkpt lat="45.80409" lon="1.39857">
        <ele>380</ele>
        <time>2022-05-18T15:51:14Z</time>
      </trkpt>
      <trkpt lat="45.80427" lon="1.39861">
        <ele>379</ele>
        <time>2022-05-18T15:51:18Z</time>
      </trkpt>
      <trkpt lat="45.80444" lon="1.39883">
        <ele>378</ele>
        <time>2022-05-18T15:51:24Z</time>
      </trkpt>
      <trkpt lat="45.80456" lon="1.39905">
        <ele>377</ele>
        <time>2022-05-18T15:51:30Z</time>
      </trkpt>
      <trkpt lat="45.80455" lon="1.39912">
        <ele>379</ele>
        <time>2022-05-18T15:51:59Z</time>
      </trkpt>
      <trkpt lat="45.80449" lon="1.39907">
        <ele>383</ele>
        <time>2022-05-18T15:52:31Z</time>
      </trkpt>
      <trkpt lat="45.80465" lon="1.3992">
        <ele>381</ele>
        <time>2022-05-18T15:52:45Z</time>
      </trkpt>
      <trkpt lat="45.80485" lon="1.39929">
        <ele>382</ele>
        <time>2022-05-18T15:52:51Z</time>
      </trkpt>
      <trkpt lat="45.8051" lon="1.39927">
        <ele>382</ele>
        <time>2022-05-18T15:52:57Z</time>
      </trkpt>
      <trkpt lat="45.80529" lon="1.3993">
        <ele>382</ele>
        <time>2022-05-18T15:53:01Z</time>
      </trkpt>
      <trkpt lat="45.80546" lon="1.39936">
        <ele>380</ele>
        <time>2022-05-18T15:53:04Z</time>
      </trkpt>
      <trkpt lat="45.80563" lon="1.39944">
        <ele>380</ele>
        <time>2022-05-18T15:53:07Z</time>
      </trkpt>
      <trkpt lat="45.8058" lon="1.39947">
        <ele>380</ele>
        <time>2022-05-18T15:53:10Z</time>
      </trkpt>
      <trkpt lat="45.80595" lon="1.39944">
        <ele>380</ele>
        <time>2022-05-18T15:53:13Z</time>
      </trkpt>
      <trkpt lat="45.80614" lon="1.39938">
        <ele>380</ele>
        <time>2022-05-18T15:53:18Z</time>
      </trkpt>
      <trkpt lat="45.8063" lon="1.39932">
        <ele>381</ele>
        <time>2022-05-18T15:53:22Z</time>
      </trkpt>
      <trkpt lat="45.80648" lon="1.39922">
        <ele>381</ele>
        <time>2022-05-18T15:53:25Z</time>
      </trkpt>
      <trkpt lat="45.80666" lon="1.39909">
        <ele>380</ele>
        <time>2022-05-18T15:53:28Z</time>
      </trkpt>
      <trkpt lat="45.80687" lon="1.39894">
        <ele>378</ele>
        <time>2022-05-18T15:53:31Z</time>
      </trkpt>
      <trkpt lat="45.80705" lon="1.39875">
        <ele>377</ele>
        <time>2022-05-18T15:53:34Z</time>
      </trkpt>
      <trkpt lat="45.80724" lon="1.3987">
        <ele>375</ele>
        <time>2022-05-18T15:53:37Z</time>
      </trkpt>
      <trkpt lat="45.80742" lon="1.39876">
        <ele>374</ele>
        <time>2022-05-18T15:53:40Z</time>
      </trkpt>
      <trkpt lat="45.80759" lon="1.39883">
        <ele>373</ele>
        <time>2022-05-18T15:53:43Z</time>
      </trkpt>
      <trkpt lat="45.80764" lon="1.39906">
        <ele>375</ele>
        <time>2022-05-18T15:53:47Z</time>
      </trkpt>
      <trkpt lat="45.80769" lon="1.39933">
        <ele>378</ele>
        <time>2022-05-18T15:53:51Z</time>
      </trkpt>
      <trkpt lat="45.80778" lon="1.39951">
        <ele>377</ele>
        <time>2022-05-18T15:53:54Z</time>
      </trkpt>
      <trkpt lat="45.80788" lon="1.3997">
        <ele>376</ele>
        <time>2022-05-18T15:53:57Z</time>
      </trkpt>
      <trkpt lat="45.80798" lon="1.39992">
        <ele>376</ele>
        <time>2022-05-18T15:54:00Z</time>
      </trkpt>
      <trkpt lat="45.80809" lon="1.40013">
        <ele>375</ele>
        <time>2022-05-18T15:54:03Z</time>
      </trkpt>
      <trkpt lat="45.80821" lon="1.40031">
        <ele>374</ele>
        <time>2022-05-18T15:54:06Z</time>
      </trkpt>
      <trkpt lat="45.80831" lon="1.40048">
        <ele>373</ele>
        <time>2022-05-18T15:54:09Z</time>
      </trkpt>
      <trkpt lat="45.80841" lon="1.40065">
        <ele>372</ele>
        <time>2022-05-18T15:54:12Z</time>
      </trkpt>
      <trkpt lat="45.80854" lon="1.40082">
        <ele>372</ele>
        <time>2022-05-18T15:54:16Z</time>
      </trkpt>
      <trkpt lat="45.80869" lon="1.40101">
        <ele>372</ele>
        <time>2022-05-18T15:54:21Z</time>
      </trkpt>
      <trkpt lat="45.80883" lon="1.40116">
        <ele>372</ele>
        <time>2022-05-18T15:54:24Z</time>
      </trkpt>
      <trkpt lat="45.80898" lon="1.40134">
        <ele>371</ele>
        <time>2022-05-18T15:54:27Z</time>
      </trkpt>
      <trkpt lat="45.80912" lon="1.40154">
        <ele>370</ele>
        <time>2022-05-18T15:54:30Z</time>
      </trkpt>
      <trkpt lat="45.80922" lon="1.40177">
        <ele>370</ele>
        <time>2022-05-18T15:54:33Z</time>
      </trkpt>
      <trkpt lat="45.80934" lon="1.40201">
        <ele>370</ele>
        <time>2022-05-18T15:54:36Z</time>
      </trkpt>
      <trkpt lat="45.80946" lon="1.4022">
        <ele>370</ele>
        <time>2022-05-18T15:54:39Z</time>
      </trkpt>
      <trkpt lat="45.80962" lon="1.40237">
        <ele>369</ele>
        <time>2022-05-18T15:54:42Z</time>
      </trkpt>
      <trkpt lat="45.80974" lon="1.40253">
        <ele>368</ele>
        <time>2022-05-18T15:54:45Z</time>
      </trkpt>
      <trkpt lat="45.80988" lon="1.40267">
        <ele>367</ele>
        <time>2022-05-18T15:54:48Z</time>
      </trkpt>
      <trkpt lat="45.81001" lon="1.40285">
        <ele>367</ele>
        <time>2022-05-18T15:54:51Z</time>
      </trkpt>
      <trkpt lat="45.81011" lon="1.40306">
        <ele>366</ele>
        <time>2022-05-18T15:54:54Z</time>
      </trkpt>
      <trkpt lat="45.81017" lon="1.4033">
        <ele>367</ele>
        <time>2022-05-18T15:54:57Z</time>
      </trkpt>
      <trkpt lat="45.81022" lon="1.40353">
        <ele>370</ele>
        <time>2022-05-18T15:55:00Z</time>
      </trkpt>
      <trkpt lat="45.81025" lon="1.40377">
        <ele>372</ele>
        <time>2022-05-18T15:55:03Z</time>
      </trkpt>
      <trkpt lat="45.81036" lon="1.40395">
        <ele>373</ele>
        <time>2022-05-18T15:55:06Z</time>
      </trkpt>
      <trkpt lat="45.8105" lon="1.40409">
        <ele>374</ele>
        <time>2022-05-18T15:55:09Z</time>
      </trkpt>
      <trkpt lat="45.81063" lon="1.40424">
        <ele>375</ele>
        <time>2022-05-18T15:55:12Z</time>
      </trkpt>
      <trkpt lat="45.81078" lon="1.40443">
        <ele>377</ele>
        <time>2022-05-18T15:55:15Z</time>
      </trkpt>
      <trkpt lat="45.81089" lon="1.40465">
        <ele>378</ele>
        <time>2022-05-18T15:55:18Z</time>
      </trkpt>
      <trkpt lat="45.81101" lon="1.40487">
        <ele>379</ele>
        <time>2022-05-18T15:55:21Z</time>
      </trkpt>
      <trkpt lat="45.81112" lon="1.4051">
        <ele>380</ele>
        <time>2022-05-18T15:55:24Z</time>
      </trkpt>
      <trkpt lat="45.81121" lon="1.40534">
        <ele>382</ele>
        <time>2022-05-18T15:55:27Z</time>
      </trkpt>
      <trkpt lat="45.81134" lon="1.40552">
        <ele>385</ele>
        <time>2022-05-18T15:55:30Z</time>
      </trkpt>
      <trkpt lat="45.81149" lon="1.4057">
        <ele>388</ele>
        <time>2022-05-18T15:55:33Z</time>
      </trkpt>
      <trkpt lat="45.8116" lon="1.40587">
        <ele>391</ele>
        <time>2022-05-18T15:55:36Z</time>
      </trkpt>
      <trkpt lat="45.81172" lon="1.40605">
        <ele>393</ele>
        <time>2022-05-18T15:55:39Z</time>
      </trkpt>
      <trkpt lat="45.81185" lon="1.40622">
        <ele>395</ele>
        <time>2022-05-18T15:55:42Z</time>
      </trkpt>
      <trkpt lat="45.81197" lon="1.40635">
        <ele>397</ele>
        <time>2022-05-18T15:55:45Z</time>
      </trkpt>
      <trkpt lat="45.81203" lon="1.40658">
        <ele>398</ele>
        <time>2022-05-18T15:55:50Z</time>
      </trkpt>
      <trkpt lat="45.81204" lon="1.40686">
        <ele>399</ele>
        <time>2022-05-18T15:55:56Z</time>
      </trkpt>
      <trkpt lat="45.81188" lon="1.40692">
        <ele>405</ele>
        <time>2022-05-18T15:56:28Z</time>
      </trkpt>
      <trkpt lat="45.81213" lon="1.40738">
        <ele>402</ele>
        <time>2022-05-18T15:59:54Z</time>
      </trkpt>
      <trkpt lat="45.81316" lon="1.4114">
        <ele>415</ele>
        <time>2022-05-18T16:00:31Z</time>
      </trkpt>
      <trkpt lat="45.81333" lon="1.41166">
        <ele>410</ele>
        <time>2022-05-18T16:00:37Z</time>
      </trkpt>
      <trkpt lat="45.81349" lon="1.41192">
        <ele>408</ele>
        <time>2022-05-18T16:00:43Z</time>
      </trkpt>
      <trkpt lat="45.81362" lon="1.41212">
        <ele>407</ele>
        <time>2022-05-18T16:00:47Z</time>
      </trkpt>
      <trkpt lat="45.81372" lon="1.41228">
        <ele>409</ele>
        <time>2022-05-18T16:00:50Z</time>
      </trkpt>
      <trkpt lat="45.81377" lon="1.41254">
        <ele>412</ele>
        <time>2022-05-18T16:00:53Z</time>
      </trkpt>
      <trkpt lat="45.81382" lon="1.41283">
        <ele>416</ele>
        <time>2022-05-18T16:00:56Z</time>
      </trkpt>
      <trkpt lat="45.81384" lon="1.4131">
        <ele>419</ele>
        <time>2022-05-18T16:00:59Z</time>
      </trkpt>
      <trkpt lat="45.81384" lon="1.41338">
        <ele>420</ele>
        <time>2022-05-18T16:01:02Z</time>
      </trkpt>
      <trkpt lat="45.81384" lon="1.41364">
        <ele>420</ele>
        <time>2022-05-18T16:01:05Z</time>
      </trkpt>
      <trkpt lat="45.81384" lon="1.41388">
        <ele>422</ele>
        <time>2022-05-18T16:01:09Z</time>
      </trkpt>
      <trkpt lat="45.81375" lon="1.4141">
        <ele>425</ele>
        <time>2022-05-18T16:01:14Z</time>
      </trkpt>
      <trkpt lat="45.81358" lon="1.414">
        <ele>426</ele>
        <time>2022-05-18T16:01:19Z</time>
      </trkpt>
      <trkpt lat="45.81342" lon="1.41389">
        <ele>426</ele>
        <time>2022-05-18T16:01:22Z</time>
      </trkpt>
      <trkpt lat="45.81325" lon="1.41393">
        <ele>426</ele>
        <time>2022-05-18T16:01:25Z</time>
      </trkpt>
      <trkpt lat="45.81311" lon="1.41406">
        <ele>426</ele>
        <time>2022-05-18T16:01:28Z</time>
      </trkpt>
      <trkpt lat="45.813" lon="1.41423">
        <ele>426</ele>
        <time>2022-05-18T16:01:31Z</time>
      </trkpt>
      <trkpt lat="45.81297" lon="1.41443">
        <ele>426</ele>
        <time>2022-05-18T16:01:34Z</time>
      </trkpt>
      <trkpt lat="45.81299" lon="1.41474">
        <ele>426</ele>
        <time>2022-05-18T16:01:39Z</time>
      </trkpt>
      <trkpt lat="45.81309" lon="1.41491">
        <ele>427</ele>
        <time>2022-05-18T16:01:42Z</time>
      </trkpt>
      <trkpt lat="45.81321" lon="1.41505">
        <ele>428</ele>
        <time>2022-05-18T16:01:45Z</time>
      </trkpt>
      <trkpt lat="45.81332" lon="1.41521">
        <ele>430</ele>
        <time>2022-05-18T16:01:48Z</time>
      </trkpt>
      <trkpt lat="45.81347" lon="1.41536">
        <ele>430</ele>
        <time>2022-05-18T16:01:51Z</time>
      </trkpt>
      <trkpt lat="45.81363" lon="1.41547">
        <ele>429</ele>
        <time>2022-05-18T16:01:54Z</time>
      </trkpt>
      <trkpt lat="45.81373" lon="1.41567">
        <ele>429</ele>
        <time>2022-05-18T16:01:57Z</time>
      </trkpt>
      <trkpt lat="45.81377" lon="1.41588">
        <ele>428</ele>
        <time>2022-05-18T16:02:01Z</time>
      </trkpt>
      <trkpt lat="45.81363" lon="1.41605">
        <ele>428</ele>
        <time>2022-05-18T16:02:09Z</time>
      </trkpt>
      <trkpt lat="45.81353" lon="1.41624">
        <ele>429</ele>
        <time>2022-05-18T16:02:15Z</time>
      </trkpt>
      <trkpt lat="45.81344" lon="1.41645">
        <ele>430</ele>
        <time>2022-05-18T16:02:23Z</time>
      </trkpt>
      <trkpt lat="45.8133" lon="1.41652">
        <ele>433</ele>
        <time>2022-05-18T16:02:45Z</time>
      </trkpt>
      <trkpt lat="45.8131" lon="1.41657">
        <ele>437</ele>
        <time>2022-05-18T16:02:51Z</time>
      </trkpt>
      <trkpt lat="45.81293" lon="1.41668">
        <ele>438</ele>
        <time>2022-05-18T16:02:56Z</time>
      </trkpt>
      <trkpt lat="45.81274" lon="1.41681">
        <ele>438</ele>
        <time>2022-05-18T16:02:59Z</time>
      </trkpt>
      <trkpt lat="45.81254" lon="1.41689">
        <ele>440</ele>
        <time>2022-05-18T16:03:02Z</time>
      </trkpt>
      <trkpt lat="45.81237" lon="1.41691">
        <ele>444</ele>
        <time>2022-05-18T16:03:05Z</time>
      </trkpt>
      <trkpt lat="45.81222" lon="1.41694">
        <ele>445</ele>
        <time>2022-05-18T16:03:08Z</time>
      </trkpt>
      <trkpt lat="45.81207" lon="1.41697">
        <ele>446</ele>
        <time>2022-05-18T16:03:11Z</time>
      </trkpt>
      <trkpt lat="45.81192" lon="1.41698">
        <ele>447</ele>
        <time>2022-05-18T16:03:34Z</time>
      </trkpt>
      <trkpt lat="45.81184" lon="1.41701">
        <ele>451</ele>
        <time>2022-05-18T16:10:20Z</time>
      </trkpt>
      <trkpt lat="45.8117" lon="1.41709">
        <ele>454</ele>
        <time>2022-05-18T16:10:23Z</time>
      </trkpt>
      <trkpt lat="45.81156" lon="1.41723">
        <ele>454</ele>
        <time>2022-05-18T16:10:26Z</time>
      </trkpt>
      <trkpt lat="45.81141" lon="1.41741">
        <ele>452</ele>
        <time>2022-05-18T16:10:29Z</time>
      </trkpt>
      <trkpt lat="45.81123" lon="1.41757">
        <ele>452</ele>
        <time>2022-05-18T16:10:32Z</time>
      </trkpt>
      <trkpt lat="45.81105" lon="1.41772">
        <ele>453</ele>
        <time>2022-05-18T16:10:35Z</time>
      </trkpt>
      <trkpt lat="45.81089" lon="1.41778">
        <ele>452</ele>
        <time>2022-05-18T16:10:38Z</time>
      </trkpt>
      <trkpt lat="45.81073" lon="1.41784">
        <ele>452</ele>
        <time>2022-05-18T16:10:41Z</time>
      </trkpt>
      <trkpt lat="45.81059" lon="1.41795">
        <ele>452</ele>
        <time>2022-05-18T16:10:44Z</time>
      </trkpt>
      <trkpt lat="45.81046" lon="1.41806">
        <ele>452</ele>
        <time>2022-05-18T16:10:47Z</time>
      </trkpt>
      <trkpt lat="45.81034" lon="1.41817">
        <ele>452</ele>
        <time>2022-05-18T16:10:50Z</time>
      </trkpt>
      <trkpt lat="45.81018" lon="1.41829">
        <ele>452</ele>
        <time>2022-05-18T16:10:54Z</time>
      </trkpt>
      <trkpt lat="45.81006" lon="1.41839">
        <ele>452</ele>
        <time>2022-05-18T16:10:57Z</time>
      </trkpt>
      <trkpt lat="45.80998" lon="1.41845">
        <ele>452</ele>
        <time>2022-05-18T16:11:19Z</time>
      </trkpt>
      <trkpt lat="45.80988" lon="1.41846">
        <ele>449</ele>
        <time>2022-05-18T16:11:24Z</time>
      </trkpt>
      <trkpt lat="45.8099" lon="1.41821">
        <ele>452</ele>
        <time>2022-05-18T16:11:33Z</time>
      </trkpt>
      <trkpt lat="45.80984" lon="1.418">
        <ele>452</ele>
        <time>2022-05-18T16:11:36Z</time>
      </trkpt>
      <trkpt lat="45.80974" lon="1.41781">
        <ele>451</ele>
        <time>2022-05-18T16:11:39Z</time>
      </trkpt>
      <trkpt lat="45.80964" lon="1.41762">
        <ele>451</ele>
        <time>2022-05-18T16:11:42Z</time>
      </trkpt>
      <trkpt lat="45.80953" lon="1.41743">
        <ele>451</ele>
        <time>2022-05-18T16:11:45Z</time>
      </trkpt>
      <trkpt lat="45.80941" lon="1.41723">
        <ele>451</ele>
        <time>2022-05-18T16:11:48Z</time>
      </trkpt>
      <trkpt lat="45.80928" lon="1.41706">
        <ele>452</ele>
        <time>2022-05-18T16:11:51Z</time>
      </trkpt>
      <trkpt lat="45.80914" lon="1.41692">
        <ele>451</ele>
        <time>2022-05-18T16:11:54Z</time>
      </trkpt>
      <trkpt lat="45.80901" lon="1.4168">
        <ele>451</ele>
        <time>2022-05-18T16:11:57Z</time>
      </trkpt>
      <trkpt lat="45.80888" lon="1.41667">
        <ele>451</ele>
        <time>2022-05-18T16:12:00Z</time>
      </trkpt>
      <trkpt lat="45.80875" lon="1.41655">
        <ele>452</ele>
        <time>2022-05-18T16:12:03Z</time>
      </trkpt>
      <trkpt lat="45.80864" lon="1.41643">
        <ele>451</ele>
        <time>2022-05-18T16:12:06Z</time>
      </trkpt>
      <trkpt lat="45.8085" lon="1.41649">
        <ele>451</ele>
        <time>2022-05-18T16:12:09Z</time>
      </trkpt>
      <trkpt lat="45.80845" lon="1.41667">
        <ele>451</ele>
        <time>2022-05-18T16:12:12Z</time>
      </trkpt>
      <trkpt lat="45.80834" lon="1.41683">
        <ele>452</ele>
        <time>2022-05-18T16:12:15Z</time>
      </trkpt>
      <trkpt lat="45.80824" lon="1.41698">
        <ele>453</ele>
        <time>2022-05-18T16:12:18Z</time>
      </trkpt>
      <trkpt lat="45.80806" lon="1.41724">
        <ele>455</ele>
        <time>2022-05-18T16:12:24Z</time>
      </trkpt>
      <trkpt lat="45.808" lon="1.41752">
        <ele>458</ele>
        <time>2022-05-18T16:12:30Z</time>
      </trkpt>
      <trkpt lat="45.80796" lon="1.4178">
        <ele>460</ele>
        <time>2022-05-18T16:12:36Z</time>
      </trkpt>
      <trkpt lat="45.80795" lon="1.41807">
        <ele>461</ele>
        <time>2022-05-18T16:12:42Z</time>
      </trkpt>
      <trkpt lat="45.80797" lon="1.41839">
        <ele>460</ele>
        <time>2022-05-18T16:12:48Z</time>
      </trkpt>
      <trkpt lat="45.80802" lon="1.41863">
        <ele>459</ele>
        <time>2022-05-18T16:12:52Z</time>
      </trkpt>
      <trkpt lat="45.80807" lon="1.41883">
        <ele>459</ele>
        <time>2022-05-18T16:12:55Z</time>
      </trkpt>
      <trkpt lat="45.80815" lon="1.41917">
        <ele>460</ele>
        <time>2022-05-18T16:13:01Z</time>
      </trkpt>
      <trkpt lat="45.80822" lon="1.41942">
        <ele>462</ele>
        <time>2022-05-18T16:13:05Z</time>
      </trkpt>
      <trkpt lat="45.80826" lon="1.41966">
        <ele>463</ele>
        <time>2022-05-18T16:13:08Z</time>
      </trkpt>
      <trkpt lat="45.80831" lon="1.41989">
        <ele>464</ele>
        <time>2022-05-18T16:13:11Z</time>
      </trkpt>
      <trkpt lat="45.80836" lon="1.42013">
        <ele>464</ele>
        <time>2022-05-18T16:13:14Z</time>
      </trkpt>
      <trkpt lat="45.80838" lon="1.42036">
        <ele>463</ele>
        <time>2022-05-18T16:13:17Z</time>
      </trkpt>
      <trkpt lat="45.8084" lon="1.4206">
        <ele>464</ele>
        <time>2022-05-18T16:13:20Z</time>
      </trkpt>
      <trkpt lat="45.8084" lon="1.42082">
        <ele>465</ele>
        <time>2022-05-18T16:13:23Z</time>
      </trkpt>
      <trkpt lat="45.8084" lon="1.42109">
        <ele>465</ele>
        <time>2022-05-18T16:13:27Z</time>
      </trkpt>
      <trkpt lat="45.80846" lon="1.42136">
        <ele>466</ele>
        <time>2022-05-18T16:13:32Z</time>
      </trkpt>
      <trkpt lat="45.80847" lon="1.42168">
        <ele>466</ele>
        <time>2022-05-18T16:13:37Z</time>
      </trkpt>
      <trkpt lat="45.80849" lon="1.42194">
        <ele>466</ele>
        <time>2022-05-18T16:13:41Z</time>
      </trkpt>
      <trkpt lat="45.8085" lon="1.42214">
        <ele>467</ele>
        <time>2022-05-18T16:13:44Z</time>
      </trkpt>
      <trkpt lat="45.80851" lon="1.42236">
        <ele>467</ele>
        <time>2022-05-18T16:13:47Z</time>
      </trkpt>
      <trkpt lat="45.80853" lon="1.42261">
        <ele>468</ele>
        <time>2022-05-18T16:13:51Z</time>
      </trkpt>
      <trkpt lat="45.80854" lon="1.42296">
        <ele>469</ele>
        <time>2022-05-18T16:13:57Z</time>
      </trkpt>
      <trkpt lat="45.80856" lon="1.42321">
        <ele>470</ele>
        <time>2022-05-18T16:14:01Z</time>
      </trkpt>
      <trkpt lat="45.80859" lon="1.42351">
        <ele>471</ele>
        <time>2022-05-18T16:14:06Z</time>
      </trkpt>
      <trkpt lat="45.80862" lon="1.42373">
        <ele>472</ele>
        <time>2022-05-18T16:14:09Z</time>
      </trkpt>
      <trkpt lat="45.80868" lon="1.42396">
        <ele>473</ele>
        <time>2022-05-18T16:14:12Z</time>
      </trkpt>
      <trkpt lat="45.80874" lon="1.42419">
        <ele>473</ele>
        <time>2022-05-18T16:14:15Z</time>
      </trkpt>
      <trkpt lat="45.8088" lon="1.42442">
        <ele>474</ele>
        <time>2022-05-18T16:14:18Z</time>
      </trkpt>
      <trkpt lat="45.80883" lon="1.42468">
        <ele>474</ele>
        <time>2022-05-18T16:14:21Z</time>
      </trkpt>
      <trkpt lat="45.80888" lon="1.42493">
        <ele>474</ele>
        <time>2022-05-18T16:14:24Z</time>
      </trkpt>
      <trkpt lat="45.80892" lon="1.4252">
        <ele>474</ele>
        <time>2022-05-18T16:14:27Z</time>
      </trkpt>
      <trkpt lat="45.80896" lon="1.42548">
        <ele>473</ele>
        <time>2022-05-18T16:14:30Z</time>
      </trkpt>
      <trkpt lat="45.80902" lon="1.42578">
        <ele>473</ele>
        <time>2022-05-18T16:14:33Z</time>
      </trkpt>
      <trkpt lat="45.80905" lon="1.42609">
        <ele>472</ele>
        <time>2022-05-18T16:14:36Z</time>
      </trkpt>
      <trkpt lat="45.80903" lon="1.42635">
        <ele>471</ele>
        <time>2022-05-18T16:14:39Z</time>
      </trkpt>
      <trkpt lat="45.809" lon="1.42659">
        <ele>470</ele>
        <time>2022-05-18T16:14:42Z</time>
      </trkpt>
      <trkpt lat="45.80898" lon="1.42684">
        <ele>470</ele>
        <time>2022-05-18T16:14:45Z</time>
      </trkpt>
      <trkpt lat="45.80896" lon="1.4271">
        <ele>470</ele>
        <time>2022-05-18T16:14:48Z</time>
      </trkpt>
      <trkpt lat="45.80894" lon="1.42734">
        <ele>469</ele>
        <time>2022-05-18T16:14:51Z</time>
      </trkpt>
      <trkpt lat="45.80893" lon="1.42756">
        <ele>469</ele>
        <time>2022-05-18T16:14:54Z</time>
      </trkpt>
      <trkpt lat="45.80895" lon="1.42778">
        <ele>470</ele>
        <time>2022-05-18T16:14:57Z</time>
      </trkpt>
      <trkpt lat="45.80896" lon="1.428">
        <ele>470</ele>
        <time>2022-05-18T16:15:00Z</time>
      </trkpt>
      <trkpt lat="45.80902" lon="1.42819">
        <ele>469</ele>
        <time>2022-05-18T16:15:03Z</time>
      </trkpt>
      <trkpt lat="45.80909" lon="1.42839">
        <ele>468</ele>
        <time>2022-05-18T16:15:06Z</time>
      </trkpt>
      <trkpt lat="45.80916" lon="1.42862">
        <ele>468</ele>
        <time>2022-05-18T16:15:09Z</time>
      </trkpt>
      <trkpt lat="45.80922" lon="1.42887">
        <ele>468</ele>
        <time>2022-05-18T16:15:12Z</time>
      </trkpt>
      <trkpt lat="45.80926" lon="1.42913">
        <ele>469</ele>
        <time>2022-05-18T16:15:15Z</time>
      </trkpt>
      <trkpt lat="45.8093" lon="1.42938">
        <ele>469</ele>
        <time>2022-05-18T16:15:18Z</time>
      </trkpt>
      <trkpt lat="45.80937" lon="1.42963">
        <ele>469</ele>
        <time>2022-05-18T16:15:21Z</time>
      </trkpt>
      <trkpt lat="45.80943" lon="1.42985">
        <ele>469</ele>
        <time>2022-05-18T16:15:24Z</time>
      </trkpt>
      <trkpt lat="45.8095" lon="1.43006">
        <ele>470</ele>
        <time>2022-05-18T16:15:27Z</time>
      </trkpt>
      <trkpt lat="45.80961" lon="1.43024">
        <ele>471</ele>
        <time>2022-05-18T16:15:30Z</time>
      </trkpt>
      <trkpt lat="45.80972" lon="1.43039">
        <ele>473</ele>
        <time>2022-05-18T16:15:33Z</time>
      </trkpt>
      <trkpt lat="45.80982" lon="1.43054">
        <ele>474</ele>
        <time>2022-05-18T16:15:36Z</time>
      </trkpt>
      <trkpt lat="45.80992" lon="1.43069">
        <ele>475</ele>
        <time>2022-05-18T16:15:39Z</time>
      </trkpt>
      <trkpt lat="45.81" lon="1.43088">
        <ele>475</ele>
        <time>2022-05-18T16:15:42Z</time>
      </trkpt>
      <trkpt lat="45.81006" lon="1.43121">
        <ele>475</ele>
        <time>2022-05-18T16:15:48Z</time>
      </trkpt>
      <trkpt lat="45.81008" lon="1.43146">
        <ele>475</ele>
        <time>2022-05-18T16:15:52Z</time>
      </trkpt>
      <trkpt lat="45.8101" lon="1.43167">
        <ele>473</ele>
        <time>2022-05-18T16:15:55Z</time>
      </trkpt>
      <trkpt lat="45.81011" lon="1.43188">
        <ele>473</ele>
        <time>2022-05-18T16:15:58Z</time>
      </trkpt>
      <trkpt lat="45.81013" lon="1.4321">
        <ele>473</ele>
        <time>2022-05-18T16:16:01Z</time>
      </trkpt>
      <trkpt lat="45.81014" lon="1.43232">
        <ele>473</ele>
        <time>2022-05-18T16:16:04Z</time>
      </trkpt>
      <trkpt lat="45.81014" lon="1.43254">
        <ele>472</ele>
        <time>2022-05-18T16:16:07Z</time>
      </trkpt>
      <trkpt lat="45.81015" lon="1.43274">
        <ele>472</ele>
        <time>2022-05-18T16:16:10Z</time>
      </trkpt>
      <trkpt lat="45.81023" lon="1.43305">
        <ele>472</ele>
        <time>2022-05-18T16:16:16Z</time>
      </trkpt>
      <trkpt lat="45.81033" lon="1.43327">
        <ele>472</ele>
        <time>2022-05-18T16:16:22Z</time>
      </trkpt>
      <trkpt lat="45.81046" lon="1.43339">
        <ele>473</ele>
        <time>2022-05-18T16:16:28Z</time>
      </trkpt>
      <trkpt lat="45.8106" lon="1.43353">
        <ele>472</ele>
        <time>2022-05-18T16:16:35Z</time>
      </trkpt>
      <trkpt lat="45.81075" lon="1.43375">
        <ele>471</ele>
        <time>2022-05-18T16:16:41Z</time>
      </trkpt>
      <trkpt lat="45.81087" lon="1.43398">
        <ele>469</ele>
        <time>2022-05-18T16:16:45Z</time>
      </trkpt>
      <trkpt lat="45.81099" lon="1.43418">
        <ele>468</ele>
        <time>2022-05-18T16:16:48Z</time>
      </trkpt>
      <trkpt lat="45.81115" lon="1.43439">
        <ele>468</ele>
        <time>2022-05-18T16:16:52Z</time>
      </trkpt>
      <trkpt lat="45.81132" lon="1.43446">
        <ele>467</ele>
        <time>2022-05-18T16:16:55Z</time>
      </trkpt>
      <trkpt lat="45.81149" lon="1.43446">
        <ele>466</ele>
        <time>2022-05-18T16:17:01Z</time>
      </trkpt>
      <trkpt lat="45.81164" lon="1.43452">
        <ele>465</ele>
        <time>2022-05-18T16:17:07Z</time>
      </trkpt>
      <trkpt lat="45.81179" lon="1.43459">
        <ele>463</ele>
        <time>2022-05-18T16:17:15Z</time>
      </trkpt>
      <trkpt lat="45.81197" lon="1.43469">
        <ele>462</ele>
        <time>2022-05-18T16:17:21Z</time>
      </trkpt>
      <trkpt lat="45.81216" lon="1.43478">
        <ele>462</ele>
        <time>2022-05-18T16:17:27Z</time>
      </trkpt>
      <trkpt lat="45.81232" lon="1.43484">
        <ele>463</ele>
        <time>2022-05-18T16:17:34Z</time>
      </trkpt>
      <trkpt lat="45.81249" lon="1.43493">
        <ele>463</ele>
        <time>2022-05-18T16:17:40Z</time>
      </trkpt>
      <trkpt lat="45.81266" lon="1.43503">
        <ele>464</ele>
        <time>2022-05-18T16:17:45Z</time>
      </trkpt>
      <trkpt lat="45.81283" lon="1.43513">
        <ele>465</ele>
        <time>2022-05-18T16:17:48Z</time>
      </trkpt>
      <trkpt lat="45.81297" lon="1.43523">
        <ele>464</ele>
        <time>2022-05-18T16:17:51Z</time>
      </trkpt>
      <trkpt lat="45.81318" lon="1.4353">
        <ele>462</ele>
        <time>2022-05-18T16:17:56Z</time>
      </trkpt>
      <trkpt lat="45.8134" lon="1.43536">
        <ele>459</ele>
        <time>2022-05-18T16:18:01Z</time>
      </trkpt>
      <trkpt lat="45.81355" lon="1.43528">
        <ele>457</ele>
        <time>2022-05-18T16:18:08Z</time>
      </trkpt>
      <trkpt lat="45.81376" lon="1.43519">
        <ele>464</ele>
        <time>2022-05-18T16:18:39Z</time>
      </trkpt>
      <trkpt lat="45.81353" lon="1.43496">
        <ele>458</ele>
        <time>2022-05-18T16:19:35Z</time>
      </trkpt>
      <trkpt lat="45.81347" lon="1.43476">
        <ele>465</ele>
        <time>2022-05-18T16:19:41Z</time>
      </trkpt>
      <trkpt lat="45.81341" lon="1.43452">
        <ele>468</ele>
        <time>2022-05-18T16:19:48Z</time>
      </trkpt>
      <trkpt lat="45.81335" lon="1.43431">
        <ele>470</ele>
        <time>2022-05-18T16:19:54Z</time>
      </trkpt>
      <trkpt lat="45.81328" lon="1.43407">
        <ele>471</ele>
        <time>2022-05-18T16:20:00Z</time>
      </trkpt>
      <trkpt lat="45.81319" lon="1.43379">
        <ele>472</ele>
        <time>2022-05-18T16:20:06Z</time>
      </trkpt>
      <trkpt lat="45.81311" lon="1.43356">
        <ele>471</ele>
        <time>2022-05-18T16:20:10Z</time>
      </trkpt>
      <trkpt lat="45.81305" lon="1.43336">
        <ele>472</ele>
        <time>2022-05-18T16:20:13Z</time>
      </trkpt>
      <trkpt lat="45.81301" lon="1.4331">
        <ele>473</ele>
        <time>2022-05-18T16:20:16Z</time>
      </trkpt>
      <trkpt lat="45.81302" lon="1.43285">
        <ele>474</ele>
        <time>2022-05-18T16:20:19Z</time>
      </trkpt>
      <trkpt lat="45.81303" lon="1.43262">
        <ele>473</ele>
        <time>2022-05-18T16:20:22Z</time>
      </trkpt>
      <trkpt lat="45.81305" lon="1.4324">
        <ele>472</ele>
        <time>2022-05-18T16:20:25Z</time>
      </trkpt>
      <trkpt lat="45.81307" lon="1.4322">
        <ele>472</ele>
        <time>2022-05-18T16:20:28Z</time>
      </trkpt>
      <trkpt lat="45.81315" lon="1.43199">
        <ele>473</ele>
        <time>2022-05-18T16:20:31Z</time>
      </trkpt>
      <trkpt lat="45.81326" lon="1.43175">
        <ele>472</ele>
        <time>2022-05-18T16:20:34Z</time>
      </trkpt>
      <trkpt lat="45.81342" lon="1.4315">
        <ele>472</ele>
        <time>2022-05-18T16:20:37Z</time>
      </trkpt>
      <trkpt lat="45.81351" lon="1.43119">
        <ele>470</ele>
        <time>2022-05-18T16:20:40Z</time>
      </trkpt>
      <trkpt lat="45.81356" lon="1.43091">
        <ele>468</ele>
        <time>2022-05-18T16:20:43Z</time>
      </trkpt>
      <trkpt lat="45.81374" lon="1.43076">
        <ele>466</ele>
        <time>2022-05-18T16:20:46Z</time>
      </trkpt>
      <trkpt lat="45.81393" lon="1.43065">
        <ele>465</ele>
        <time>2022-05-18T16:20:49Z</time>
      </trkpt>
      <trkpt lat="45.8141" lon="1.43053">
        <ele>465</ele>
        <time>2022-05-18T16:20:52Z</time>
      </trkpt>
      <trkpt lat="45.81426" lon="1.43041">
        <ele>465</ele>
        <time>2022-05-18T16:20:55Z</time>
      </trkpt>
      <trkpt lat="45.81442" lon="1.4303">
        <ele>464</ele>
        <time>2022-05-18T16:20:58Z</time>
      </trkpt>
      <trkpt lat="45.81457" lon="1.4302">
        <ele>464</ele>
        <time>2022-05-18T16:21:01Z</time>
      </trkpt>
      <trkpt lat="45.81471" lon="1.43007">
        <ele>464</ele>
        <time>2022-05-18T16:21:04Z</time>
      </trkpt>
      <trkpt lat="45.81484" lon="1.4298">
        <ele>464</ele>
        <time>2022-05-18T16:21:09Z</time>
      </trkpt>
      <trkpt lat="45.81488" lon="1.4296">
        <ele>464</ele>
        <time>2022-05-18T16:21:12Z</time>
      </trkpt>
      <trkpt lat="45.81503" lon="1.42954">
        <ele>463</ele>
        <time>2022-05-18T16:21:15Z</time>
      </trkpt>
      <trkpt lat="45.81526" lon="1.42947">
        <ele>463</ele>
        <time>2022-05-18T16:21:21Z</time>
      </trkpt>
      <trkpt lat="45.81541" lon="1.42944">
        <ele>462</ele>
        <time>2022-05-18T16:21:24Z</time>
      </trkpt>
      <trkpt lat="45.81561" lon="1.42942">
        <ele>462</ele>
        <time>2022-05-18T16:21:28Z</time>
      </trkpt>
      <trkpt lat="45.8158" lon="1.4294">
        <ele>461</ele>
        <time>2022-05-18T16:21:32Z</time>
      </trkpt>
      <trkpt lat="45.81598" lon="1.42941">
        <ele>461</ele>
        <time>2022-05-18T16:21:37Z</time>
      </trkpt>
      <trkpt lat="45.81617" lon="1.42946">
        <ele>461</ele>
        <time>2022-05-18T16:21:40Z</time>
      </trkpt>
      <trkpt lat="45.81638" lon="1.42954">
        <ele>461</ele>
        <time>2022-05-18T16:21:44Z</time>
      </trkpt>
      <trkpt lat="45.81656" lon="1.42963">
        <ele>461</ele>
        <time>2022-05-18T16:21:47Z</time>
      </trkpt>
      <trkpt lat="45.81676" lon="1.42971">
        <ele>462</ele>
        <time>2022-05-18T16:21:50Z</time>
      </trkpt>
      <trkpt lat="45.81694" lon="1.42982">
        <ele>463</ele>
        <time>2022-05-18T16:21:53Z</time>
      </trkpt>
      <trkpt lat="45.8171" lon="1.4299">
        <ele>464</ele>
        <time>2022-05-18T16:21:56Z</time>
      </trkpt>
      <trkpt lat="45.81726" lon="1.42999">
        <ele>465</ele>
        <time>2022-05-18T16:21:59Z</time>
      </trkpt>
      <trkpt lat="45.81741" lon="1.43006">
        <ele>466</ele>
        <time>2022-05-18T16:22:02Z</time>
      </trkpt>
      <trkpt lat="45.81752" lon="1.43022">
        <ele>480</ele>
        <time>2022-05-18T16:22:22Z</time>
      </trkpt>
      <trkpt lat="45.81765" lon="1.43021">
        <ele>470</ele>
        <time>2022-05-18T16:23:09Z</time>
      </trkpt>
      <trkpt lat="45.81783" lon="1.43028">
        <ele>468</ele>
        <time>2022-05-18T16:23:12Z</time>
      </trkpt>
      <trkpt lat="45.81804" lon="1.43034">
        <ele>466</ele>
        <time>2022-05-18T16:23:15Z</time>
      </trkpt>
      <trkpt lat="45.81825" lon="1.43041">
        <ele>465</ele>
        <time>2022-05-18T16:23:18Z</time>
      </trkpt>
      <trkpt lat="45.81852" lon="1.43051">
        <ele>464</ele>
        <time>2022-05-18T16:23:21Z</time>
      </trkpt>
      <trkpt lat="45.81882" lon="1.43064">
        <ele>460</ele>
        <time>2022-05-18T16:23:24Z</time>
      </trkpt>
      <trkpt lat="45.81912" lon="1.43073">
        <ele>456</ele>
        <time>2022-05-18T16:23:27Z</time>
      </trkpt>
      <trkpt lat="45.81929" lon="1.43091">
        <ele>452</ele>
        <time>2022-05-18T16:23:30Z</time>
      </trkpt>
      <trkpt lat="45.81945" lon="1.43073">
        <ele>451</ele>
        <time>2022-05-18T16:23:34Z</time>
      </trkpt>
      <trkpt lat="45.8196" lon="1.43048">
        <ele>452</ele>
        <time>2022-05-18T16:23:37Z</time>
      </trkpt>
      <trkpt lat="45.81973" lon="1.4302">
        <ele>451</ele>
        <time>2022-05-18T16:23:40Z</time>
      </trkpt>
      <trkpt lat="45.81991" lon="1.4303">
        <ele>448</ele>
        <time>2022-05-18T16:23:43Z</time>
      </trkpt>
      <trkpt lat="45.82019" lon="1.4305">
        <ele>443</ele>
        <time>2022-05-18T16:23:46Z</time>
      </trkpt>
      <trkpt lat="45.82046" lon="1.43069">
        <ele>438</ele>
        <time>2022-05-18T16:23:49Z</time>
      </trkpt>
      <trkpt lat="45.82073" lon="1.43087">
        <ele>434</ele>
        <time>2022-05-18T16:23:52Z</time>
      </trkpt>
      <trkpt lat="45.82103" lon="1.43095">
        <ele>431</ele>
        <time>2022-05-18T16:23:55Z</time>
      </trkpt>
      <trkpt lat="45.82132" lon="1.43105">
        <ele>428</ele>
        <time>2022-05-18T16:23:58Z</time>
      </trkpt>
      <trkpt lat="45.8216" lon="1.43117">
        <ele>427</ele>
        <time>2022-05-18T16:24:01Z</time>
      </trkpt>
      <trkpt lat="45.82178" lon="1.43121">
        <ele>427</ele>
        <time>2022-05-18T16:24:05Z</time>
      </trkpt>
      <trkpt lat="45.82197" lon="1.43124">
        <ele>424</ele>
        <time>2022-05-18T16:24:37Z</time>
      </trkpt>
      <trkpt lat="45.822" lon="1.43127">
        <ele>420</ele>
        <time>2022-05-18T16:24:47Z</time>
      </trkpt>
      <trkpt lat="45.82211" lon="1.43085">
        <ele>410</ele>
        <time>2022-05-18T16:25:15Z</time>
      </trkpt>
      <trkpt lat="45.82227" lon="1.43073">
        <ele>412</ele>
        <time>2022-05-18T16:25:18Z</time>
      </trkpt>
      <trkpt lat="45.82246" lon="1.43059">
        <ele>411</ele>
        <time>2022-05-18T16:25:21Z</time>
      </trkpt>
      <trkpt lat="45.82264" lon="1.43044">
        <ele>409</ele>
        <time>2022-05-18T16:25:24Z</time>
      </trkpt>
      <trkpt lat="45.82281" lon="1.43033">
        <ele>408</ele>
        <time>2022-05-18T16:25:27Z</time>
      </trkpt>
      <trkpt lat="45.82296" lon="1.43025">
        <ele>409</ele>
        <time>2022-05-18T16:25:30Z</time>
      </trkpt>
      <trkpt lat="45.82311" lon="1.43021">
        <ele>411</ele>
        <time>2022-05-18T16:25:33Z</time>
      </trkpt>
      <trkpt lat="45.8233" lon="1.43027">
        <ele>412</ele>
        <time>2022-05-18T16:25:36Z</time>
      </trkpt>
      <trkpt lat="45.82345" lon="1.43033">
        <ele>412</ele>
        <time>2022-05-18T16:25:39Z</time>
      </trkpt>
      <trkpt lat="45.82365" lon="1.43042">
        <ele>412</ele>
        <time>2022-05-18T16:25:46Z</time>
      </trkpt>
      <trkpt lat="45.82384" lon="1.43035">
        <ele>411</ele>
        <time>2022-05-18T16:25:49Z</time>
      </trkpt>
      <trkpt lat="45.82399" lon="1.43026">
        <ele>410</ele>
        <time>2022-05-18T16:25:52Z</time>
      </trkpt>
      <trkpt lat="45.82416" lon="1.43016">
        <ele>409</ele>
        <time>2022-05-18T16:25:55Z</time>
      </trkpt>
      <trkpt lat="45.8243" lon="1.43009">
        <ele>406</ele>
        <time>2022-05-18T16:25:58Z</time>
      </trkpt>
      <trkpt lat="45.82447" lon="1.43005">
        <ele>404</ele>
        <time>2022-05-18T16:26:01Z</time>
      </trkpt>
      <trkpt lat="45.82465" lon="1.43004">
        <ele>403</ele>
        <time>2022-05-18T16:26:04Z</time>
      </trkpt>
      <trkpt lat="45.82486" lon="1.43">
        <ele>401</ele>
        <time>2022-05-18T16:26:07Z</time>
      </trkpt>
      <trkpt lat="45.82506" lon="1.42993">
        <ele>400</ele>
        <time>2022-05-18T16:26:11Z</time>
      </trkpt>
      <trkpt lat="45.82526" lon="1.42986">
        <ele>399</ele>
        <time>2022-05-18T16:26:17Z</time>
      </trkpt>
      <trkpt lat="45.82542" lon="1.42974">
        <ele>399</ele>
        <time>2022-05-18T16:26:23Z</time>
      </trkpt>
      <trkpt lat="45.82565" lon="1.42971">
        <ele>398</ele>
        <time>2022-05-18T16:26:29Z</time>
      </trkpt>
      <trkpt lat="45.82584" lon="1.42973">
        <ele>398</ele>
        <time>2022-05-18T16:26:37Z</time>
      </trkpt>
      <trkpt lat="45.826" lon="1.42982">
        <ele>398</ele>
        <time>2022-05-18T16:26:43Z</time>
      </trkpt>
      <trkpt lat="45.8262" lon="1.43">
        <ele>397</ele>
        <time>2022-05-18T16:26:49Z</time>
      </trkpt>
      <trkpt lat="45.82637" lon="1.43013">
        <ele>395</ele>
        <time>2022-05-18T16:26:55Z</time>
      </trkpt>
      <trkpt lat="45.82653" lon="1.43018">
        <ele>392</ele>
        <time>2022-05-18T16:27:01Z</time>
      </trkpt>
      <trkpt lat="45.82671" lon="1.43029">
        <ele>392</ele>
        <time>2022-05-18T16:27:07Z</time>
      </trkpt>
      <trkpt lat="45.8269" lon="1.43043">
        <ele>392</ele>
        <time>2022-05-18T16:27:12Z</time>
      </trkpt>
      <trkpt lat="45.82703" lon="1.43058">
        <ele>391</ele>
        <time>2022-05-18T16:27:16Z</time>
      </trkpt>
      <trkpt lat="45.82724" lon="1.43071">
        <ele>390</ele>
        <time>2022-05-18T16:27:22Z</time>
      </trkpt>
      <trkpt lat="45.82742" lon="1.43083">
        <ele>389</ele>
        <time>2022-05-18T16:27:28Z</time>
      </trkpt>
      <trkpt lat="45.8276" lon="1.43093">
        <ele>389</ele>
        <time>2022-05-18T16:27:34Z</time>
      </trkpt>
      <trkpt lat="45.82779" lon="1.43097">
        <ele>387</ele>
        <time>2022-05-18T16:27:56Z</time>
      </trkpt>
      <trkpt lat="45.82795" lon="1.43105">
        <ele>384</ele>
        <time>2022-05-18T16:28:00Z</time>
      </trkpt>
      <trkpt lat="45.82816" lon="1.43116">
        <ele>381</ele>
        <time>2022-05-18T16:28:03Z</time>
      </trkpt>
      <trkpt lat="45.82839" lon="1.43125">
        <ele>377</ele>
        <time>2022-05-18T16:28:06Z</time>
      </trkpt>
      <trkpt lat="45.8286" lon="1.43149">
        <ele>374</ele>
        <time>2022-05-18T16:28:09Z</time>
      </trkpt>
      <trkpt lat="45.82883" lon="1.43177">
        <ele>370</ele>
        <time>2022-05-18T16:28:12Z</time>
      </trkpt>
      <trkpt lat="45.82906" lon="1.43205">
        <ele>367</ele>
        <time>2022-05-18T16:28:15Z</time>
      </trkpt>
      <trkpt lat="45.82931" lon="1.43224">
        <ele>365</ele>
        <time>2022-05-18T16:28:18Z</time>
      </trkpt>
      <trkpt lat="45.82954" lon="1.43242">
        <ele>364</ele>
        <time>2022-05-18T16:28:21Z</time>
      </trkpt>
      <trkpt lat="45.82977" lon="1.43265">
        <ele>362</ele>
        <time>2022-05-18T16:28:24Z</time>
      </trkpt>
      <trkpt lat="45.82995" lon="1.43285">
        <ele>361</ele>
        <time>2022-05-18T16:28:27Z</time>
      </trkpt>
      <trkpt lat="45.83014" lon="1.43302">
        <ele>361</ele>
        <time>2022-05-18T16:28:30Z</time>
      </trkpt>
      <trkpt lat="45.83032" lon="1.43316">
        <ele>361</ele>
        <time>2022-05-18T16:28:33Z</time>
      </trkpt>
      <trkpt lat="45.83053" lon="1.43324">
        <ele>359</ele>
        <time>2022-05-18T16:28:36Z</time>
      </trkpt>
      <trkpt lat="45.83076" lon="1.43321">
        <ele>358</ele>
        <time>2022-05-18T16:28:39Z</time>
      </trkpt>
      <trkpt lat="45.83099" lon="1.43319">
        <ele>356</ele>
        <time>2022-05-18T16:28:42Z</time>
      </trkpt>
      <trkpt lat="45.83125" lon="1.4332">
        <ele>355</ele>
        <time>2022-05-18T16:28:45Z</time>
      </trkpt>
      <trkpt lat="45.83149" lon="1.43321">
        <ele>354</ele>
        <time>2022-05-18T16:28:48Z</time>
      </trkpt>
      <trkpt lat="45.83173" lon="1.43318">
        <ele>353</ele>
        <time>2022-05-18T16:28:51Z</time>
      </trkpt>
      <trkpt lat="45.83197" lon="1.43319">
        <ele>353</ele>
        <time>2022-05-18T16:28:54Z</time>
      </trkpt>
      <trkpt lat="45.8322" lon="1.43325">
        <ele>353</ele>
        <time>2022-05-18T16:28:57Z</time>
      </trkpt>
      <trkpt lat="45.83241" lon="1.43345">
        <ele>352</ele>
        <time>2022-05-18T16:29:00Z</time>
      </trkpt>
      <trkpt lat="45.83262" lon="1.43368">
        <ele>351</ele>
        <time>2022-05-18T16:29:03Z</time>
      </trkpt>
      <trkpt lat="45.83285" lon="1.43391">
        <ele>350</ele>
        <time>2022-05-18T16:29:06Z</time>
      </trkpt>
      <trkpt lat="45.83301" lon="1.43413">
        <ele>347</ele>
        <time>2022-05-18T16:29:09Z</time>
      </trkpt>
      <trkpt lat="45.83318" lon="1.43422">
        <ele>344</ele>
        <time>2022-05-18T16:29:12Z</time>
      </trkpt>
      <trkpt lat="45.83335" lon="1.43433">
        <ele>343</ele>
        <time>2022-05-18T16:29:15Z</time>
      </trkpt>
      <trkpt lat="45.83349" lon="1.43449">
        <ele>341</ele>
        <time>2022-05-18T16:29:19Z</time>
      </trkpt>
      <trkpt lat="45.83352" lon="1.43469">
        <ele>339</ele>
        <time>2022-05-18T16:29:25Z</time>
      </trkpt>
      <trkpt lat="45.83353" lon="1.43493">
        <ele>339</ele>
        <time>2022-05-18T16:29:31Z</time>
      </trkpt>
      <trkpt lat="45.83353" lon="1.43519">
        <ele>339</ele>
        <time>2022-05-18T16:29:37Z</time>
      </trkpt>
      <trkpt lat="45.83354" lon="1.43529">
        <ele>336</ele>
        <time>2022-05-18T16:30:07Z</time>
      </trkpt>
      <trkpt lat="45.83354" lon="1.43561">
        <ele>339</ele>
        <time>2022-05-18T16:32:07Z</time>
      </trkpt>
      <trkpt lat="45.83361" lon="1.43583">
        <ele>340</ele>
        <time>2022-05-18T16:32:13Z</time>
      </trkpt>
      <trkpt lat="45.83375" lon="1.43598">
        <ele>338</ele>
        <time>2022-05-18T16:32:19Z</time>
      </trkpt>
      <trkpt lat="45.83393" lon="1.43616">
        <ele>338</ele>
        <time>2022-05-18T16:32:25Z</time>
      </trkpt>
      <trkpt lat="45.83408" lon="1.43635">
        <ele>341</ele>
        <time>2022-05-18T16:32:29Z</time>
      </trkpt>
      <trkpt lat="45.83421" lon="1.43643">
        <ele>342</ele>
        <time>2022-05-18T16:32:32Z</time>
      </trkpt>
      <trkpt lat="45.83439" lon="1.43648">
        <ele>342</ele>
        <time>2022-05-18T16:32:35Z</time>
      </trkpt>
      <trkpt lat="45.83455" lon="1.43653">
        <ele>341</ele>
        <time>2022-05-18T16:32:38Z</time>
      </trkpt>
      <trkpt lat="45.83472" lon="1.43659">
        <ele>341</ele>
        <time>2022-05-18T16:32:41Z</time>
      </trkpt>
      <trkpt lat="45.83487" lon="1.43668">
        <ele>341</ele>
        <time>2022-05-18T16:32:44Z</time>
      </trkpt>
      <trkpt lat="45.83497" lon="1.43686">
        <ele>342</ele>
        <time>2022-05-18T16:32:47Z</time>
      </trkpt>
      <trkpt lat="45.83505" lon="1.43703">
        <ele>343</ele>
        <time>2022-05-18T16:32:50Z</time>
      </trkpt>
      <trkpt lat="45.8352" lon="1.43734">
        <ele>345</ele>
        <time>2022-05-18T16:32:56Z</time>
      </trkpt>
      <trkpt lat="45.83529" lon="1.43755">
        <ele>346</ele>
        <time>2022-05-18T16:32:59Z</time>
      </trkpt>
      <trkpt lat="45.83539" lon="1.43778">
        <ele>347</ele>
        <time>2022-05-18T16:33:02Z</time>
      </trkpt>
      <trkpt lat="45.83548" lon="1.438">
        <ele>348</ele>
        <time>2022-05-18T16:33:05Z</time>
      </trkpt>
      <trkpt lat="45.83557" lon="1.43823">
        <ele>348</ele>
        <time>2022-05-18T16:33:08Z</time>
      </trkpt>
      <trkpt lat="45.83566" lon="1.43845">
        <ele>349</ele>
        <time>2022-05-18T16:33:11Z</time>
      </trkpt>
      <trkpt lat="45.83574" lon="1.43868">
        <ele>350</ele>
        <time>2022-05-18T16:33:14Z</time>
      </trkpt>
      <trkpt lat="45.83583" lon="1.43891">
        <ele>350</ele>
        <time>2022-05-18T16:33:17Z</time>
      </trkpt>
      <trkpt lat="45.83593" lon="1.43912">
        <ele>350</ele>
        <time>2022-05-18T16:33:20Z</time>
      </trkpt>
      <trkpt lat="45.83604" lon="1.43936">
        <ele>349</ele>
        <time>2022-05-18T16:33:23Z</time>
      </trkpt>
      <trkpt lat="45.83614" lon="1.43959">
        <ele>349</ele>
        <time>2022-05-18T16:33:26Z</time>
      </trkpt>
      <trkpt lat="45.83624" lon="1.43983">
        <ele>349</ele>
        <time>2022-05-18T16:33:30Z</time>
      </trkpt>
      <trkpt lat="45.83634" lon="1.44003">
        <ele>350</ele>
        <time>2022-05-18T16:33:33Z</time>
      </trkpt>
      <trkpt lat="45.83645" lon="1.4402">
        <ele>351</ele>
        <time>2022-05-18T16:33:36Z</time>
      </trkpt>
      <trkpt lat="45.83656" lon="1.44036">
        <ele>352</ele>
        <time>2022-05-18T16:33:39Z</time>
      </trkpt>
      <trkpt lat="45.83667" lon="1.44051">
        <ele>352</ele>
        <time>2022-05-18T16:33:42Z</time>
      </trkpt>
      <trkpt lat="45.83682" lon="1.44068">
        <ele>353</ele>
        <time>2022-05-18T16:33:46Z</time>
      </trkpt>
      <trkpt lat="45.83692" lon="1.44082">
        <ele>353</ele>
        <time>2022-05-18T16:33:49Z</time>
      </trkpt>
      <trkpt lat="45.83703" lon="1.44096">
        <ele>354</ele>
        <time>2022-05-18T16:33:52Z</time>
      </trkpt>
      <trkpt lat="45.83714" lon="1.44112">
        <ele>356</ele>
        <time>2022-05-18T16:33:55Z</time>
      </trkpt>
      <trkpt lat="45.83725" lon="1.44128">
        <ele>358</ele>
        <time>2022-05-18T16:33:58Z</time>
      </trkpt>
      <trkpt lat="45.83736" lon="1.44146">
        <ele>358</ele>
        <time>2022-05-18T16:34:01Z</time>
      </trkpt>
      <trkpt lat="45.83746" lon="1.44162">
        <ele>358</ele>
        <time>2022-05-18T16:34:04Z</time>
      </trkpt>
      <trkpt lat="45.83757" lon="1.44182">
        <ele>358</ele>
        <time>2022-05-18T16:34:07Z</time>
      </trkpt>
      <trkpt lat="45.83769" lon="1.442">
        <ele>357</ele>
        <time>2022-05-18T16:34:10Z</time>
      </trkpt>
      <trkpt lat="45.83785" lon="1.44215">
        <ele>357</ele>
        <time>2022-05-18T16:34:14Z</time>
      </trkpt>
      <trkpt lat="45.83795" lon="1.44239">
        <ele>357</ele>
        <time>2022-05-18T16:34:17Z</time>
      </trkpt>
      <trkpt lat="45.83802" lon="1.44264">
        <ele>358</ele>
        <time>2022-05-18T16:34:20Z</time>
      </trkpt>
      <trkpt lat="45.83807" lon="1.44286">
        <ele>358</ele>
        <time>2022-05-18T16:34:23Z</time>
      </trkpt>
      <trkpt lat="45.83813" lon="1.4431">
        <ele>358</ele>
        <time>2022-05-18T16:34:27Z</time>
      </trkpt>
      <trkpt lat="45.83818" lon="1.44332">
        <ele>358</ele>
        <time>2022-05-18T16:34:33Z</time>
      </trkpt>
      <trkpt lat="45.8382" lon="1.4436">
        <ele>357</ele>
        <time>2022-05-18T16:34:39Z</time>
      </trkpt>
      <trkpt lat="45.83816" lon="1.44388">
        <ele>357</ele>
        <time>2022-05-18T16:34:44Z</time>
      </trkpt>
      <trkpt lat="45.83815" lon="1.44419">
        <ele>358</ele>
        <time>2022-05-18T16:34:49Z</time>
      </trkpt>
      <trkpt lat="45.83816" lon="1.44451">
        <ele>359</ele>
        <time>2022-05-18T16:34:54Z</time>
      </trkpt>
      <trkpt lat="45.83816" lon="1.44473">
        <ele>360</ele>
        <time>2022-05-18T16:34:57Z</time>
      </trkpt>
      <trkpt lat="45.83812" lon="1.44496">
        <ele>361</ele>
        <time>2022-05-18T16:35:00Z</time>
      </trkpt>
      <trkpt lat="45.83807" lon="1.44517">
        <ele>362</ele>
        <time>2022-05-18T16:35:03Z</time>
      </trkpt>
      <trkpt lat="45.83803" lon="1.44541">
        <ele>363</ele>
        <time>2022-05-18T16:35:07Z</time>
      </trkpt>
      <trkpt lat="45.83808" lon="1.44572">
        <ele>363</ele>
        <time>2022-05-18T16:35:13Z</time>
      </trkpt>
      <trkpt lat="45.8381" lon="1.44596">
        <ele>364</ele>
        <time>2022-05-18T16:35:17Z</time>
      </trkpt>
      <trkpt lat="45.83813" lon="1.44632">
        <ele>366</ele>
        <time>2022-05-18T16:35:23Z</time>
      </trkpt>
      <trkpt lat="45.83813" lon="1.4466">
        <ele>367</ele>
        <time>2022-05-18T16:35:27Z</time>
      </trkpt>
      <trkpt lat="45.83814" lon="1.44679">
        <ele>368</ele>
        <time>2022-05-18T16:35:50Z</time>
      </trkpt>
      <trkpt lat="45.83826" lon="1.44682">
        <ele>375</ele>
        <time>2022-05-18T16:35:57Z</time>
      </trkpt>
      <trkpt lat="45.83834" lon="1.44712">
        <ele>374</ele>
        <time>2022-05-18T16:36:04Z</time>
      </trkpt>
      <trkpt lat="45.83844" lon="1.4474">
        <ele>369</ele>
        <time>2022-05-18T16:36:09Z</time>
      </trkpt>
      <trkpt lat="45.83854" lon="1.44758">
        <ele>368</ele>
        <time>2022-05-18T16:36:12Z</time>
      </trkpt>
      <trkpt lat="45.83864" lon="1.4478">
        <ele>365</ele>
        <time>2022-05-18T16:36:15Z</time>
      </trkpt>
      <trkpt lat="45.83872" lon="1.44804">
        <ele>362</ele>
        <time>2022-05-18T16:36:18Z</time>
      </trkpt>
      <trkpt lat="45.83886" lon="1.44819">
        <ele>358</ele>
        <time>2022-05-18T16:36:23Z</time>
      </trkpt>
      <trkpt lat="45.83901" lon="1.44836">
        <ele>357</ele>
        <time>2022-05-18T16:36:27Z</time>
      </trkpt>
      <trkpt lat="45.8391" lon="1.44855">
        <ele>358</ele>
        <time>2022-05-18T16:36:30Z</time>
      </trkpt>
      <trkpt lat="45.8392" lon="1.44873">
        <ele>360</ele>
        <time>2022-05-18T16:36:36Z</time>
      </trkpt>
      <trkpt lat="45.83935" lon="1.44877">
        <ele>361</ele>
        <time>2022-05-18T16:36:44Z</time>
      </trkpt>
      <trkpt lat="45.83956" lon="1.44884">
        <ele>362</ele>
        <time>2022-05-18T16:36:49Z</time>
      </trkpt>
      <trkpt lat="45.83975" lon="1.44891">
        <ele>360</ele>
        <time>2022-05-18T16:36:52Z</time>
      </trkpt>
      <trkpt lat="45.83998" lon="1.44898">
        <ele>358</ele>
        <time>2022-05-18T16:36:55Z</time>
      </trkpt>
      <trkpt lat="45.8402" lon="1.44908">
        <ele>357</ele>
        <time>2022-05-18T16:36:58Z</time>
      </trkpt>
      <trkpt lat="45.84041" lon="1.44921">
        <ele>356</ele>
        <time>2022-05-18T16:37:01Z</time>
      </trkpt>
      <trkpt lat="45.84065" lon="1.44933">
        <ele>355</ele>
        <time>2022-05-18T16:37:04Z</time>
      </trkpt>
      <trkpt lat="45.84089" lon="1.44946">
        <ele>354</ele>
        <time>2022-05-18T16:37:07Z</time>
      </trkpt>
      <trkpt lat="45.84111" lon="1.44954">
        <ele>354</ele>
        <time>2022-05-18T16:37:10Z</time>
      </trkpt>
      <trkpt lat="45.84135" lon="1.44964">
        <ele>354</ele>
        <time>2022-05-18T16:37:13Z</time>
      </trkpt>
      <trkpt lat="45.84159" lon="1.44975">
        <ele>352</ele>
        <time>2022-05-18T16:37:16Z</time>
      </trkpt>
      <trkpt lat="45.84182" lon="1.44985">
        <ele>351</ele>
        <time>2022-05-18T16:37:19Z</time>
      </trkpt>
      <trkpt lat="45.84205" lon="1.44993">
        <ele>350</ele>
        <time>2022-05-18T16:37:22Z</time>
      </trkpt>
      <trkpt lat="45.84225" lon="1.44999">
        <ele>349</ele>
        <time>2022-05-18T16:37:25Z</time>
      </trkpt>
      <trkpt lat="45.8424" lon="1.44999">
        <ele>348</ele>
        <time>2022-05-18T16:37:28Z</time>
      </trkpt>
      <trkpt lat="45.84254" lon="1.44983">
        <ele>347</ele>
        <time>2022-05-18T16:37:32Z</time>
      </trkpt>
      <trkpt lat="45.8427" lon="1.44971">
        <ele>347</ele>
        <time>2022-05-18T16:37:35Z</time>
      </trkpt>
      <trkpt lat="45.84289" lon="1.4496">
        <ele>346</ele>
        <time>2022-05-18T16:37:38Z</time>
      </trkpt>
      <trkpt lat="45.84306" lon="1.4495">
        <ele>346</ele>
        <time>2022-05-18T16:37:41Z</time>
      </trkpt>
      <trkpt lat="45.8432" lon="1.4494">
        <ele>345</ele>
        <time>2022-05-18T16:37:50Z</time>
      </trkpt>
      <trkpt lat="45.84336" lon="1.44928">
        <ele>345</ele>
        <time>2022-05-18T16:37:53Z</time>
      </trkpt>
      <trkpt lat="45.84351" lon="1.44907">
        <ele>344</ele>
        <time>2022-05-18T16:37:57Z</time>
      </trkpt>
      <trkpt lat="45.84362" lon="1.44883">
        <ele>342</ele>
        <time>2022-05-18T16:38:00Z</time>
      </trkpt>
      <trkpt lat="45.84375" lon="1.44864">
        <ele>341</ele>
        <time>2022-05-18T16:38:03Z</time>
      </trkpt>
      <trkpt lat="45.84387" lon="1.44851">
        <ele>338</ele>
        <time>2022-05-18T16:38:06Z</time>
      </trkpt>
      <trkpt lat="45.84404" lon="1.44838">
        <ele>336</ele>
        <time>2022-05-18T16:38:10Z</time>
      </trkpt>
      <trkpt lat="45.84417" lon="1.44825">
        <ele>335</ele>
        <time>2022-05-18T16:38:13Z</time>
      </trkpt>
      <trkpt lat="45.84431" lon="1.44814">
        <ele>334</ele>
        <time>2022-05-18T16:38:17Z</time>
      </trkpt>
      <trkpt lat="45.84448" lon="1.44809">
        <ele>333</ele>
        <time>2022-05-18T16:38:20Z</time>
      </trkpt>
      <trkpt lat="45.84467" lon="1.44819">
        <ele>333</ele>
        <time>2022-05-18T16:38:24Z</time>
      </trkpt>
      <trkpt lat="45.84478" lon="1.4484">
        <ele>335</ele>
        <time>2022-05-18T16:38:30Z</time>
      </trkpt>
      <trkpt lat="45.84494" lon="1.44849">
        <ele>336</ele>
        <time>2022-05-18T16:38:36Z</time>
      </trkpt>
      <trkpt lat="45.84509" lon="1.44854">
        <ele>335</ele>
        <time>2022-05-18T16:38:39Z</time>
      </trkpt>
      <trkpt lat="45.84523" lon="1.44862">
        <ele>335</ele>
        <time>2022-05-18T16:38:42Z</time>
      </trkpt>
      <trkpt lat="45.84539" lon="1.44873">
        <ele>335</ele>
        <time>2022-05-18T16:38:46Z</time>
      </trkpt>
      <trkpt lat="45.8455" lon="1.4489">
        <ele>335</ele>
        <time>2022-05-18T16:38:52Z</time>
      </trkpt>
      <trkpt lat="45.8456" lon="1.44915">
        <ele>334</ele>
        <time>2022-05-18T16:38:57Z</time>
      </trkpt>
      <trkpt lat="45.84575" lon="1.44932">
        <ele>333</ele>
        <time>2022-05-18T16:39:00Z</time>
      </trkpt>
      <trkpt lat="45.84592" lon="1.44947">
        <ele>332</ele>
        <time>2022-05-18T16:39:03Z</time>
      </trkpt>
      <trkpt lat="45.84613" lon="1.44957">
        <ele>332</ele>
        <time>2022-05-18T16:39:06Z</time>
      </trkpt>
      <trkpt lat="45.84636" lon="1.44961">
        <ele>332</ele>
        <time>2022-05-18T16:39:09Z</time>
      </trkpt>
      <trkpt lat="45.8466" lon="1.44962">
        <ele>331</ele>
        <time>2022-05-18T16:39:12Z</time>
      </trkpt>
      <trkpt lat="45.84684" lon="1.44967">
        <ele>329</ele>
        <time>2022-05-18T16:39:15Z</time>
      </trkpt>
      <trkpt lat="45.84705" lon="1.44976">
        <ele>329</ele>
        <time>2022-05-18T16:39:18Z</time>
      </trkpt>
      <trkpt lat="45.84729" lon="1.44984">
        <ele>329</ele>
        <time>2022-05-18T16:39:21Z</time>
      </trkpt>
      <trkpt lat="45.84754" lon="1.44995">
        <ele>327</ele>
        <time>2022-05-18T16:39:24Z</time>
      </trkpt>
      <trkpt lat="45.84777" lon="1.45003">
        <ele>325</ele>
        <time>2022-05-18T16:39:27Z</time>
      </trkpt>
      <trkpt lat="45.84787" lon="1.45007">
        <ele>325</ele>
        <time>2022-05-18T16:39:50Z</time>
      </trkpt>
      <trkpt lat="45.84799" lon="1.44994">
        <ele>325</ele>
        <time>2022-05-18T16:39:57Z</time>
      </trkpt>
      <trkpt lat="45.84803" lon="1.44969">
        <ele>324</ele>
        <time>2022-05-18T16:40:01Z</time>
      </trkpt>
      <trkpt lat="45.84808" lon="1.44945">
        <ele>323</ele>
        <time>2022-05-18T16:40:04Z</time>
      </trkpt>
      <trkpt lat="45.84813" lon="1.44918">
        <ele>322</ele>
        <time>2022-05-18T16:40:07Z</time>
      </trkpt>
      <trkpt lat="45.84817" lon="1.4489">
        <ele>322</ele>
        <time>2022-05-18T16:40:10Z</time>
      </trkpt>
      <trkpt lat="45.8482" lon="1.44862">
        <ele>321</ele>
        <time>2022-05-18T16:40:13Z</time>
      </trkpt>
      <trkpt lat="45.84824" lon="1.44832">
        <ele>320</ele>
        <time>2022-05-18T16:40:16Z</time>
      </trkpt>
      <trkpt lat="45.84826" lon="1.44802">
        <ele>320</ele>
        <time>2022-05-18T16:40:19Z</time>
      </trkpt>
      <trkpt lat="45.84827" lon="1.44773">
        <ele>319</ele>
        <time>2022-05-18T16:40:22Z</time>
      </trkpt>
      <trkpt lat="45.84828" lon="1.44742">
        <ele>317</ele>
        <time>2022-05-18T16:40:25Z</time>
      </trkpt>
      <trkpt lat="45.84827" lon="1.44712">
        <ele>316</ele>
        <time>2022-05-18T16:40:28Z</time>
      </trkpt>
      <trkpt lat="45.84827" lon="1.44686">
        <ele>315</ele>
        <time>2022-05-18T16:40:33Z</time>
      </trkpt>
      <trkpt lat="45.84832" lon="1.44679">
        <ele>316</ele>
        <time>2022-05-18T16:41:01Z</time>
      </trkpt>
      <trkpt lat="45.8485" lon="1.44676">
        <ele>316</ele>
        <time>2022-05-18T16:41:08Z</time>
      </trkpt>
      <trkpt lat="45.84866" lon="1.44675">
        <ele>315</ele>
        <time>2022-05-18T16:41:14Z</time>
      </trkpt>
      <trkpt lat="45.84884" lon="1.44672">
        <ele>316</ele>
        <time>2022-05-18T16:41:20Z</time>
      </trkpt>
      <trkpt lat="45.84903" lon="1.4467">
        <ele>316</ele>
        <time>2022-05-18T16:41:26Z</time>
      </trkpt>
      <trkpt lat="45.84921" lon="1.44667">
        <ele>317</ele>
        <time>2022-05-18T16:41:32Z</time>
      </trkpt>
      <trkpt lat="45.84941" lon="1.44665">
        <ele>318</ele>
        <time>2022-05-18T16:41:38Z</time>
      </trkpt>
      <trkpt lat="45.8496" lon="1.44661">
        <ele>318</ele>
        <time>2022-05-18T16:41:44Z</time>
      </trkpt>
      <trkpt lat="45.8498" lon="1.44658">
        <ele>319</ele>
        <time>2022-05-18T16:41:50Z</time>
      </trkpt>
      <trkpt lat="45.85002" lon="1.44657">
        <ele>319</ele>
        <time>2022-05-18T16:41:56Z</time>
      </trkpt>
      <trkpt lat="45.85023" lon="1.44656">
        <ele>319</ele>
        <time>2022-05-18T16:42:01Z</time>
      </trkpt>
      <trkpt lat="45.85038" lon="1.44658">
        <ele>319</ele>
        <time>2022-05-18T16:42:04Z</time>
      </trkpt>
      <trkpt lat="45.85054" lon="1.44661">
        <ele>318</ele>
        <time>2022-05-18T16:42:07Z</time>
      </trkpt>
      <trkpt lat="45.85074" lon="1.44666">
        <ele>316</ele>
        <time>2022-05-18T16:42:10Z</time>
      </trkpt>
      <trkpt lat="45.85094" lon="1.44675">
        <ele>314</ele>
        <time>2022-05-18T16:42:13Z</time>
      </trkpt>
      <trkpt lat="45.85117" lon="1.4468">
        <ele>312</ele>
        <time>2022-05-18T16:42:16Z</time>
      </trkpt>
      <trkpt lat="45.85141" lon="1.44688">
        <ele>311</ele>
        <time>2022-05-18T16:42:19Z</time>
      </trkpt>
      <trkpt lat="45.85165" lon="1.44692">
        <ele>310</ele>
        <time>2022-05-18T16:42:22Z</time>
      </trkpt>
      <trkpt lat="45.85188" lon="1.44676">
        <ele>308</ele>
        <time>2022-05-18T16:42:25Z</time>
      </trkpt>
      <trkpt lat="45.8521" lon="1.4465">
        <ele>306</ele>
        <time>2022-05-18T16:42:28Z</time>
      </trkpt>
      <trkpt lat="45.85236" lon="1.44626">
        <ele>303</ele>
        <time>2022-05-18T16:42:31Z</time>
      </trkpt>
      <trkpt lat="45.85265" lon="1.44605">
        <ele>302</ele>
        <time>2022-05-18T16:42:34Z</time>
      </trkpt>
      <trkpt lat="45.85299" lon="1.44609">
        <ele>300</ele>
        <time>2022-05-18T16:42:37Z</time>
      </trkpt>
      <trkpt lat="45.85331" lon="1.44625">
        <ele>299</ele>
        <time>2022-05-18T16:42:40Z</time>
      </trkpt>
      <trkpt lat="45.85359" lon="1.44633">
        <ele>298</ele>
        <time>2022-05-18T16:42:43Z</time>
      </trkpt>
      <trkpt lat="45.85384" lon="1.44623">
        <ele>296</ele>
        <time>2022-05-18T16:42:46Z</time>
      </trkpt>
      <trkpt lat="45.85397" lon="1.44593">
        <ele>293</ele>
        <time>2022-05-18T16:42:49Z</time>
      </trkpt>
      <trkpt lat="45.85407" lon="1.44567">
        <ele>292</ele>
        <time>2022-05-18T16:42:52Z</time>
      </trkpt>
      <trkpt lat="45.85416" lon="1.44544">
        <ele>292</ele>
        <time>2022-05-18T16:42:56Z</time>
      </trkpt>
      <trkpt lat="45.85428" lon="1.44522">
        <ele>293</ele>
        <time>2022-05-18T16:43:04Z</time>
      </trkpt>
      <trkpt lat="45.85444" lon="1.44527">
        <ele>294</ele>
        <time>2022-05-18T16:43:14Z</time>
      </trkpt>
      <trkpt lat="45.85459" lon="1.44531">
        <ele>295</ele>
        <time>2022-05-18T16:43:20Z</time>
      </trkpt>
      <trkpt lat="45.85474" lon="1.44537">
        <ele>295</ele>
        <time>2022-05-18T16:43:27Z</time>
      </trkpt>
      <trkpt lat="45.85492" lon="1.44542">
        <ele>296</ele>
        <time>2022-05-18T16:43:33Z</time>
      </trkpt>
      <trkpt lat="45.85513" lon="1.44545">
        <ele>296</ele>
        <time>2022-05-18T16:43:39Z</time>
      </trkpt>
      <trkpt lat="45.85536" lon="1.44553">
        <ele>297</ele>
        <time>2022-05-18T16:43:45Z</time>
      </trkpt>
      <trkpt lat="45.85561" lon="1.44551">
        <ele>297</ele>
        <time>2022-05-18T16:43:51Z</time>
      </trkpt>
      <trkpt lat="45.85574" lon="1.44556">
        <ele>296</ele>
        <time>2022-05-18T16:43:54Z</time>
      </trkpt>
      <trkpt lat="45.85596" lon="1.44572">
        <ele>296</ele>
        <time>2022-05-18T16:44:00Z</time>
      </trkpt>
      <trkpt lat="45.85616" lon="1.44581">
        <ele>295</ele>
        <time>2022-05-18T16:44:04Z</time>
      </trkpt>
      <trkpt lat="45.85632" lon="1.4459">
        <ele>295</ele>
        <time>2022-05-18T16:44:07Z</time>
      </trkpt>
      <trkpt lat="45.8565" lon="1.44601">
        <ele>295</ele>
        <time>2022-05-18T16:44:10Z</time>
      </trkpt>
      <trkpt lat="45.85666" lon="1.44609">
        <ele>294</ele>
        <time>2022-05-18T16:44:13Z</time>
      </trkpt>
      <trkpt lat="45.85682" lon="1.44616">
        <ele>294</ele>
        <time>2022-05-18T16:44:16Z</time>
      </trkpt>
      <trkpt lat="45.85696" lon="1.44623">
        <ele>294</ele>
        <time>2022-05-18T16:44:19Z</time>
      </trkpt>
      <trkpt lat="45.8571" lon="1.4463">
        <ele>293</ele>
        <time>2022-05-18T16:44:22Z</time>
      </trkpt>
      <trkpt lat="45.85724" lon="1.44637">
        <ele>293</ele>
        <time>2022-05-18T16:44:25Z</time>
      </trkpt>
      <trkpt lat="45.85743" lon="1.44645">
        <ele>291</ele>
        <time>2022-05-18T16:44:30Z</time>
      </trkpt>
      <trkpt lat="45.85764" lon="1.44656">
        <ele>291</ele>
        <time>2022-05-18T16:44:36Z</time>
      </trkpt>
      <trkpt lat="45.85783" lon="1.44668">
        <ele>291</ele>
        <time>2022-05-18T16:44:42Z</time>
      </trkpt>
      <trkpt lat="45.85806" lon="1.44678">
        <ele>290</ele>
        <time>2022-05-18T16:44:47Z</time>
      </trkpt>
      <trkpt lat="45.8582" lon="1.44686">
        <ele>289</ele>
        <time>2022-05-18T16:44:50Z</time>
      </trkpt>
      <trkpt lat="45.85835" lon="1.44694">
        <ele>287</ele>
        <time>2022-05-18T16:44:53Z</time>
      </trkpt>
      <trkpt lat="45.85851" lon="1.44703">
        <ele>286</ele>
        <time>2022-05-18T16:44:56Z</time>
      </trkpt>
      <trkpt lat="45.85866" lon="1.44713">
        <ele>285</ele>
        <time>2022-05-18T16:44:59Z</time>
      </trkpt>
      <trkpt lat="45.85886" lon="1.44723">
        <ele>285</ele>
        <time>2022-05-18T16:45:04Z</time>
      </trkpt>
      <trkpt lat="45.85903" lon="1.4472">
        <ele>285</ele>
        <time>2022-05-18T16:45:10Z</time>
      </trkpt>
      <trkpt lat="45.85923" lon="1.44702">
        <ele>284</ele>
        <time>2022-05-18T16:45:16Z</time>
      </trkpt>
      <trkpt lat="45.85947" lon="1.44692">
        <ele>281</ele>
        <time>2022-05-18T16:45:22Z</time>
      </trkpt>
      <trkpt lat="45.85963" lon="1.44686">
        <ele>278</ele>
        <time>2022-05-18T16:45:50Z</time>
      </trkpt>
      <trkpt lat="45.85981" lon="1.4469">
        <ele>274</ele>
        <time>2022-05-18T16:46:00Z</time>
      </trkpt>
      <trkpt lat="45.85996" lon="1.4471">
        <ele>272</ele>
        <time>2022-05-18T16:46:04Z</time>
      </trkpt>
      <trkpt lat="45.86005" lon="1.44733">
        <ele>270</ele>
        <time>2022-05-18T16:46:07Z</time>
      </trkpt>
      <trkpt lat="45.86016" lon="1.44753">
        <ele>268</ele>
        <time>2022-05-18T16:46:11Z</time>
      </trkpt>
      <trkpt lat="45.86032" lon="1.4474">
        <ele>265</ele>
        <time>2022-05-18T16:46:15Z</time>
      </trkpt>
      <trkpt lat="45.8604" lon="1.44721">
        <ele>263</ele>
        <time>2022-05-18T16:46:19Z</time>
      </trkpt>
      <trkpt lat="45.86045" lon="1.44703">
        <ele>259</ele>
        <time>2022-05-18T16:46:27Z</time>
      </trkpt>
      <trkpt lat="45.8606" lon="1.44712">
        <ele>257</ele>
        <time>2022-05-18T16:46:30Z</time>
      </trkpt>
      <trkpt lat="45.86076" lon="1.44714">
        <ele>256</ele>
        <time>2022-05-18T16:46:35Z</time>
      </trkpt>
      <trkpt lat="45.8609" lon="1.44709">
        <ele>255</ele>
        <time>2022-05-18T16:46:43Z</time>
      </trkpt>
      <trkpt lat="45.86095" lon="1.44707">
        <ele>255</ele>
        <time>2022-05-18T16:47:07Z</time>
      </trkpt>
      <trkpt lat="45.86097" lon="1.44702">
        <ele>261</ele>
        <time>2022-05-18T16:47:39Z</time>
      </trkpt>
      <trkpt lat="45.86102" lon="1.44691">
        <ele>259</ele>
        <time>2022-05-18T16:47:47Z</time>
      </trkpt>
      <trkpt lat="45.86106" lon="1.44672">
        <ele>247</ele>
        <time>2022-05-18T16:47:56Z</time>
      </trkpt>
      <trkpt lat="45.86088" lon="1.44664">
        <ele>249</ele>
        <time>2022-05-18T16:48:25Z</time>
      </trkpt>
      <trkpt lat="45.86101" lon="1.44661">
        <ele>253</ele>
        <time>2022-05-18T16:48:32Z</time>
      </trkpt>
      <trkpt lat="45.86115" lon="1.44643">
        <ele>253</ele>
        <time>2022-05-18T16:48:40Z</time>
      </trkpt>
      <trkpt lat="45.86123" lon="1.44622">
        <ele>256</ele>
        <time>2022-05-18T16:48:46Z</time>
      </trkpt>
      <trkpt lat="45.86119" lon="1.44597">
        <ele>258</ele>
        <time>2022-05-18T16:48:53Z</time>
      </trkpt>
      <trkpt lat="45.86104" lon="1.44585">
        <ele>258</ele>
        <time>2022-05-18T16:48:59Z</time>
      </trkpt>
      <trkpt lat="45.86087" lon="1.44577">
        <ele>259</ele>
        <time>2022-05-18T16:49:05Z</time>
      </trkpt>
      <trkpt lat="45.8607" lon="1.44578">
        <ele>261</ele>
        <time>2022-05-18T16:49:11Z</time>
      </trkpt>
      <trkpt lat="45.86058" lon="1.44576">
        <ele>263</ele>
        <time>2022-05-18T16:49:17Z</time>
      </trkpt>
      <trkpt lat="45.86052" lon="1.44548">
        <ele>264</ele>
        <time>2022-05-18T16:49:23Z</time>
      </trkpt>
      <trkpt lat="45.86043" lon="1.44524">
        <ele>265</ele>
        <time>2022-05-18T16:49:29Z</time>
      </trkpt>
      <trkpt lat="45.86028" lon="1.44508">
        <ele>265</ele>
        <time>2022-05-18T16:49:35Z</time>
      </trkpt>
      <trkpt lat="45.86012" lon="1.44501">
        <ele>267</ele>
        <time>2022-05-18T16:49:41Z</time>
      </trkpt>
      <trkpt lat="45.85993" lon="1.44502">
        <ele>269</ele>
        <time>2022-05-18T16:49:47Z</time>
      </trkpt>
      <trkpt lat="45.85972" lon="1.44495">
        <ele>270</ele>
        <time>2022-05-18T16:49:53Z</time>
      </trkpt>
      <trkpt lat="45.85956" lon="1.4448">
        <ele>271</ele>
        <time>2022-05-18T16:49:59Z</time>
      </trkpt>
      <trkpt lat="45.85934" lon="1.44461">
        <ele>272</ele>
        <time>2022-05-18T16:50:05Z</time>
      </trkpt>
      <trkpt lat="45.85922" lon="1.4445">
        <ele>272</ele>
        <time>2022-05-18T16:50:08Z</time>
      </trkpt>
      <trkpt lat="45.85908" lon="1.44434">
        <ele>273</ele>
        <time>2022-05-18T16:50:12Z</time>
      </trkpt>
      <trkpt lat="45.8589" lon="1.44413">
        <ele>273</ele>
        <time>2022-05-18T16:50:17Z</time>
      </trkpt>
      <trkpt lat="45.85876" lon="1.44386">
        <ele>274</ele>
        <time>2022-05-18T16:50:23Z</time>
      </trkpt>
      <trkpt lat="45.85862" lon="1.4437">
        <ele>277</ele>
        <time>2022-05-18T16:50:30Z</time>
      </trkpt>
      <trkpt lat="45.85848" lon="1.4436">
        <ele>283</ele>
        <time>2022-05-18T16:51:02Z</time>
      </trkpt>
      <trkpt lat="45.85838" lon="1.44339">
        <ele>290</ele>
        <time>2022-05-18T16:51:12Z</time>
      </trkpt>
      <trkpt lat="45.85827" lon="1.4432">
        <ele>293</ele>
        <time>2022-05-18T16:51:19Z</time>
      </trkpt>
      <trkpt lat="45.85814" lon="1.44301">
        <ele>295</ele>
        <time>2022-05-18T16:51:25Z</time>
      </trkpt>
      <trkpt lat="45.85799" lon="1.44282">
        <ele>297</ele>
        <time>2022-05-18T16:51:31Z</time>
      </trkpt>
      <trkpt lat="45.85783" lon="1.44258">
        <ele>301</ele>
        <time>2022-05-18T16:51:37Z</time>
      </trkpt>
      <trkpt lat="45.85772" lon="1.44226">
        <ele>307</ele>
        <time>2022-05-18T16:51:43Z</time>
      </trkpt>
      <trkpt lat="45.85762" lon="1.44197">
        <ele>311</ele>
        <time>2022-05-18T16:51:49Z</time>
      </trkpt>
      <trkpt lat="45.85752" lon="1.44166">
        <ele>314</ele>
        <time>2022-05-18T16:51:55Z</time>
      </trkpt>
      <trkpt lat="45.8574" lon="1.44139">
        <ele>316</ele>
        <time>2022-05-18T16:52:01Z</time>
      </trkpt>
      <trkpt lat="45.85733" lon="1.4411">
        <ele>317</ele>
        <time>2022-05-18T16:52:07Z</time>
      </trkpt>
      <trkpt lat="45.85735" lon="1.44081">
        <ele>317</ele>
        <time>2022-05-18T16:52:13Z</time>
      </trkpt>
      <trkpt lat="45.85738" lon="1.44052">
        <ele>317</ele>
        <time>2022-05-18T16:52:19Z</time>
      </trkpt>
      <trkpt lat="45.85738" lon="1.44023">
        <ele>319</ele>
        <time>2022-05-18T16:52:25Z</time>
      </trkpt>
      <trkpt lat="45.85736" lon="1.43994">
        <ele>319</ele>
        <time>2022-05-18T16:52:31Z</time>
      </trkpt>
      <trkpt lat="45.85733" lon="1.43969">
        <ele>321</ele>
        <time>2022-05-18T16:52:37Z</time>
      </trkpt>
      <trkpt lat="45.8573" lon="1.43943">
        <ele>322</ele>
        <time>2022-05-18T16:52:43Z</time>
      </trkpt>
      <trkpt lat="45.85729" lon="1.43916">
        <ele>323</ele>
        <time>2022-05-18T16:52:49Z</time>
      </trkpt>
      <trkpt lat="45.85727" lon="1.43891">
        <ele>325</ele>
        <time>2022-05-18T16:52:55Z</time>
      </trkpt>
      <trkpt lat="45.85726" lon="1.4387">
        <ele>325</ele>
        <time>2022-05-18T16:53:01Z</time>
      </trkpt>
      <trkpt lat="45.85711" lon="1.43856">
        <ele>325</ele>
        <time>2022-05-18T16:53:07Z</time>
      </trkpt>
      <trkpt lat="45.85698" lon="1.43838">
        <ele>326</ele>
        <time>2022-05-18T16:53:13Z</time>
      </trkpt>
      <trkpt lat="45.85686" lon="1.43817">
        <ele>328</ele>
        <time>2022-05-18T16:53:18Z</time>
      </trkpt>
      <trkpt lat="45.85702" lon="1.43342">
        <ele>325.9</ele>
      </trkpt>
      <trkpt lat="45.85723" lon="1.43012">
        <ele>309.3</ele>
      </trkpt>
      <trkpt lat="45.85809" lon="1.42864">
        <ele>301.1</ele>
      </trkpt>
      <trkpt lat="45.8602" lon="1.42576">
        <ele>316.1</ele>
      </trkpt>
      <trkpt lat="45.86131" lon="1.42331">
        <ele>313.1</ele>
      </trkpt>
      <trkpt lat="45.86126" lon="1.42049">
        <ele>320</ele>
        <time>2022-05-18T17:02:00Z</time>
      </trkpt>
      <trkpt lat="45.86142" lon="1.42043">
        <ele>319</ele>
        <time>2022-05-18T17:02:03Z</time>
      </trkpt>
      <trkpt lat="45.86162" lon="1.42034">
        <ele>320</ele>
        <time>2022-05-18T17:02:06Z</time>
      </trkpt>
      <trkpt lat="45.86181" lon="1.42025">
        <ele>320</ele>
        <time>2022-05-18T17:02:09Z</time>
      </trkpt>
      <trkpt lat="45.86201" lon="1.42016">
        <ele>320</ele>
        <time>2022-05-18T17:02:12Z</time>
      </trkpt>
      <trkpt lat="45.8622" lon="1.42007">
        <ele>320</ele>
        <time>2022-05-18T17:02:15Z</time>
      </trkpt>
      <trkpt lat="45.86239" lon="1.41999">
        <ele>320</ele>
        <time>2022-05-18T17:02:18Z</time>
      </trkpt>
      <trkpt lat="45.86257" lon="1.4199">
        <ele>320</ele>
        <time>2022-05-18T17:02:21Z</time>
      </trkpt>
      <trkpt lat="45.86274" lon="1.41983">
        <ele>319</ele>
        <time>2022-05-18T17:02:24Z</time>
      </trkpt>
      <trkpt lat="45.86291" lon="1.41976">
        <ele>319</ele>
        <time>2022-05-18T17:02:27Z</time>
      </trkpt>
      <trkpt lat="45.86308" lon="1.41967">
        <ele>318</ele>
        <time>2022-05-18T17:02:30Z</time>
      </trkpt>
      <trkpt lat="45.86327" lon="1.41959">
        <ele>317</ele>
        <time>2022-05-18T17:02:33Z</time>
      </trkpt>
      <trkpt lat="45.86345" lon="1.41948">
        <ele>316</ele>
        <time>2022-05-18T17:02:36Z</time>
      </trkpt>
      <trkpt lat="45.86366" lon="1.41937">
        <ele>315</ele>
        <time>2022-05-18T17:02:39Z</time>
      </trkpt>
      <trkpt lat="45.86387" lon="1.41924">
        <ele>314</ele>
        <time>2022-05-18T17:02:42Z</time>
      </trkpt>
      <trkpt lat="45.8641" lon="1.41912">
        <ele>313</ele>
        <time>2022-05-18T17:02:45Z</time>
      </trkpt>
      <trkpt lat="45.86432" lon="1.419">
        <ele>312</ele>
        <time>2022-05-18T17:02:48Z</time>
      </trkpt>
      <trkpt lat="45.86449" lon="1.41892">
        <ele>312</ele>
        <time>2022-05-18T17:02:51Z</time>
      </trkpt>
      <trkpt lat="45.86466" lon="1.41884">
        <ele>315</ele>
        <time>2022-05-18T17:02:55Z</time>
      </trkpt>
      <trkpt lat="45.86484" lon="1.41881">
        <ele>317</ele>
        <time>2022-05-18T17:03:00Z</time>
      </trkpt>
      <trkpt lat="45.86499" lon="1.41898">
        <ele>318</ele>
        <time>2022-05-18T17:03:04Z</time>
      </trkpt>
      <trkpt lat="45.86517" lon="1.41899">
        <ele>319</ele>
        <time>2022-05-18T17:03:07Z</time>
      </trkpt>
      <trkpt lat="45.86533" lon="1.41896">
        <ele>320</ele>
        <time>2022-05-18T17:03:10Z</time>
      </trkpt>
      <trkpt lat="45.86549" lon="1.41893">
        <ele>321</ele>
        <time>2022-05-18T17:03:13Z</time>
      </trkpt>
      <trkpt lat="45.86567" lon="1.41891">
        <ele>322</ele>
        <time>2022-05-18T17:03:16Z</time>
      </trkpt>
      <trkpt lat="45.86586" lon="1.41888">
        <ele>323</ele>
        <time>2022-05-18T17:03:19Z</time>
      </trkpt>
      <trkpt lat="45.86605" lon="1.41887">
        <ele>324</ele>
        <time>2022-05-18T17:03:22Z</time>
      </trkpt>
      <trkpt lat="45.86623" lon="1.41884">
        <ele>324</ele>
        <time>2022-05-18T17:03:25Z</time>
      </trkpt>
      <trkpt lat="45.86641" lon="1.41881">
        <ele>325</ele>
        <time>2022-05-18T17:03:28Z</time>
      </trkpt>
      <trkpt lat="45.86659" lon="1.41878">
        <ele>326</ele>
        <time>2022-05-18T17:03:31Z</time>
      </trkpt>
      <trkpt lat="45.86676" lon="1.41875">
        <ele>327</ele>
        <time>2022-05-18T17:03:34Z</time>
      </trkpt>
      <trkpt lat="45.86694" lon="1.41875">
        <ele>327</ele>
        <time>2022-05-18T17:03:37Z</time>
      </trkpt>
      <trkpt lat="45.8671" lon="1.41883">
        <ele>328</ele>
        <time>2022-05-18T17:03:40Z</time>
      </trkpt>
      <trkpt lat="45.86726" lon="1.4189">
        <ele>327</ele>
        <time>2022-05-18T17:03:43Z</time>
      </trkpt>
      <trkpt lat="45.86742" lon="1.419">
        <ele>328</ele>
        <time>2022-05-18T17:03:46Z</time>
      </trkpt>
      <trkpt lat="45.8676" lon="1.41909">
        <ele>329</ele>
        <time>2022-05-18T17:03:49Z</time>
      </trkpt>
      <trkpt lat="45.86776" lon="1.41919">
        <ele>328</ele>
        <time>2022-05-18T17:03:52Z</time>
      </trkpt>
      <trkpt lat="45.86795" lon="1.41929">
        <ele>328</ele>
        <time>2022-05-18T17:03:55Z</time>
      </trkpt>
      <trkpt lat="45.86814" lon="1.41938">
        <ele>328</ele>
        <time>2022-05-18T17:03:58Z</time>
      </trkpt>
      <trkpt lat="45.86833" lon="1.41946">
        <ele>328</ele>
        <time>2022-05-18T17:04:02Z</time>
      </trkpt>
      <trkpt lat="45.8685" lon="1.41966">
        <ele>333</ele>
        <time>2022-05-18T17:04:23Z</time>
      </trkpt>
      <trkpt lat="45.86861" lon="1.41977">
        <ele>341</ele>
        <time>2022-05-18T17:04:30Z</time>
      </trkpt>
      <trkpt lat="45.86872" lon="1.41994">
        <ele>337</ele>
        <time>2022-05-18T17:04:36Z</time>
      </trkpt>
      <trkpt lat="45.86885" lon="1.42014">
        <ele>332</ele>
        <time>2022-05-18T17:04:42Z</time>
      </trkpt>
      <trkpt lat="45.869" lon="1.42035">
        <ele>326</ele>
        <time>2022-05-18T17:04:48Z</time>
      </trkpt>
      <trkpt lat="45.86918" lon="1.42053">
        <ele>325</ele>
        <time>2022-05-18T17:04:53Z</time>
      </trkpt>
      <trkpt lat="45.86933" lon="1.4207">
        <ele>325</ele>
        <time>2022-05-18T17:04:56Z</time>
      </trkpt>
      <trkpt lat="45.86947" lon="1.42088">
        <ele>326</ele>
        <time>2022-05-18T17:04:59Z</time>
      </trkpt>
      <trkpt lat="45.86971" lon="1.42115">
        <ele>326</ele>
        <time>2022-05-18T17:05:02Z</time>
      </trkpt>
      <trkpt lat="45.87" lon="1.4214">
        <ele>324</ele>
        <time>2022-05-18T17:05:05Z</time>
      </trkpt>
      <trkpt lat="45.87022" lon="1.42158">
        <ele>322</ele>
        <time>2022-05-18T17:05:08Z</time>
      </trkpt>
      <trkpt lat="45.87049" lon="1.42167">
        <ele>322</ele>
        <time>2022-05-18T17:05:11Z</time>
      </trkpt>
      <trkpt lat="45.87078" lon="1.42164">
        <ele>321</ele>
        <time>2022-05-18T17:05:14Z</time>
      </trkpt>
      <trkpt lat="45.871" lon="1.42151">
        <ele>320</ele>
        <time>2022-05-18T17:05:17Z</time>
      </trkpt>
      <trkpt lat="45.87124" lon="1.42159">
        <ele>319</ele>
        <time>2022-05-18T17:05:20Z</time>
      </trkpt>
      <trkpt lat="45.8715" lon="1.42173">
        <ele>317</ele>
        <time>2022-05-18T17:05:23Z</time>
      </trkpt>
      <trkpt lat="45.8717" lon="1.42175">
        <ele>317</ele>
        <time>2022-05-18T17:05:26Z</time>
      </trkpt>
      <trkpt lat="45.87189" lon="1.42156">
        <ele>316</ele>
        <time>2022-05-18T17:05:29Z</time>
      </trkpt>
      <trkpt lat="45.87212" lon="1.42136">
        <ele>315</ele>
        <time>2022-05-18T17:05:32Z</time>
      </trkpt>
      <trkpt lat="45.87234" lon="1.42117">
        <ele>314</ele>
        <time>2022-05-18T17:05:35Z</time>
      </trkpt>
      <trkpt lat="45.87253" lon="1.42093">
        <ele>313</ele>
        <time>2022-05-18T17:05:38Z</time>
      </trkpt>
      <trkpt lat="45.87257" lon="1.42063">
        <ele>312</ele>
        <time>2022-05-18T17:05:41Z</time>
      </trkpt>
      <trkpt lat="45.87254" lon="1.42035">
        <ele>312</ele>
        <time>2022-05-18T17:05:44Z</time>
      </trkpt>
      <trkpt lat="45.8726" lon="1.42011">
        <ele>312</ele>
        <time>2022-05-18T17:05:48Z</time>
      </trkpt>
      <trkpt lat="45.87279" lon="1.41993">
        <ele>311</ele>
        <time>2022-05-18T17:05:52Z</time>
      </trkpt>
      <trkpt lat="45.87294" lon="1.4198">
        <ele>310</ele>
        <time>2022-05-18T17:05:55Z</time>
      </trkpt>
      <trkpt lat="45.8731" lon="1.41969">
        <ele>309</ele>
        <time>2022-05-18T17:05:58Z</time>
      </trkpt>
      <trkpt lat="45.87325" lon="1.41954">
        <ele>308</ele>
        <time>2022-05-18T17:06:01Z</time>
      </trkpt>
      <trkpt lat="45.87334" lon="1.41937">
        <ele>307</ele>
        <time>2022-05-18T17:06:04Z</time>
      </trkpt>
      <trkpt lat="45.87336" lon="1.41904">
        <ele>304</ele>
        <time>2022-05-18T17:06:09Z</time>
      </trkpt>
      <trkpt lat="45.87334" lon="1.41867">
        <ele>302</ele>
        <time>2022-05-18T17:06:12Z</time>
      </trkpt>
      <trkpt lat="45.87333" lon="1.41836">
        <ele>300</ele>
        <time>2022-05-18T17:06:15Z</time>
      </trkpt>
      <trkpt lat="45.8733" lon="1.41809">
        <ele>298</ele>
        <time>2022-05-18T17:06:18Z</time>
      </trkpt>
      <trkpt lat="45.87322" lon="1.41781">
        <ele>296</ele>
        <time>2022-05-18T17:06:22Z</time>
      </trkpt>
      <trkpt lat="45.87308" lon="1.41761">
        <ele>295</ele>
        <time>2022-05-18T17:06:25Z</time>
      </trkpt>
      <trkpt lat="45.87297" lon="1.41738">
        <ele>295</ele>
        <time>2022-05-18T17:06:28Z</time>
      </trkpt>
      <trkpt lat="45.8729" lon="1.41703">
        <ele>296</ele>
        <time>2022-05-18T17:06:34Z</time>
      </trkpt>
      <trkpt lat="45.87295" lon="1.41672">
        <ele>297</ele>
        <time>2022-05-18T17:06:39Z</time>
      </trkpt>
      <trkpt lat="45.87306" lon="1.4164">
        <ele>297</ele>
        <time>2022-05-18T17:06:45Z</time>
      </trkpt>
      <trkpt lat="45.87317" lon="1.41613">
        <ele>298</ele>
        <time>2022-05-18T17:06:50Z</time>
      </trkpt>
      <trkpt lat="45.87327" lon="1.41586">
        <ele>299</ele>
        <time>2022-05-18T17:06:55Z</time>
      </trkpt>
      <trkpt lat="45.87333" lon="1.41562">
        <ele>300</ele>
        <time>2022-05-18T17:07:01Z</time>
      </trkpt>
      <trkpt lat="45.87338" lon="1.41536">
        <ele>300</ele>
        <time>2022-05-18T17:07:07Z</time>
      </trkpt>
      <trkpt lat="45.87344" lon="1.41503">
        <ele>300</ele>
        <time>2022-05-18T17:07:13Z</time>
      </trkpt>
      <trkpt lat="45.87347" lon="1.41475">
        <ele>301</ele>
        <time>2022-05-18T17:07:16Z</time>
      </trkpt>
      <trkpt lat="45.8735" lon="1.41448">
        <ele>303</ele>
        <time>2022-05-18T17:07:19Z</time>
      </trkpt>
      <trkpt lat="45.87348" lon="1.41416">
        <ele>304</ele>
        <time>2022-05-18T17:07:22Z</time>
      </trkpt>
      <trkpt lat="45.87356" lon="1.4139">
        <ele>304</ele>
        <time>2022-05-18T17:07:25Z</time>
      </trkpt>
      <trkpt lat="45.87375" lon="1.41379">
        <ele>305</ele>
        <time>2022-05-18T17:07:30Z</time>
      </trkpt>
      <trkpt lat="45.87394" lon="1.41362">
        <ele>307</ele>
        <time>2022-05-18T17:07:36Z</time>
      </trkpt>
      <trkpt lat="45.8741" lon="1.41365">
        <ele>309</ele>
        <time>2022-05-18T17:07:42Z</time>
      </trkpt>
      <trkpt lat="45.87423" lon="1.41377">
        <ele>309</ele>
        <time>2022-05-18T17:07:45Z</time>
      </trkpt>
      <trkpt lat="45.87433" lon="1.41392">
        <ele>309</ele>
        <time>2022-05-18T17:07:48Z</time>
      </trkpt>
      <trkpt lat="45.87445" lon="1.41406">
        <ele>309</ele>
        <time>2022-05-18T17:07:51Z</time>
      </trkpt>
      <trkpt lat="45.8746" lon="1.41421">
        <ele>309</ele>
        <time>2022-05-18T17:07:54Z</time>
      </trkpt>
      <trkpt lat="45.87474" lon="1.41438">
        <ele>309</ele>
        <time>2022-05-18T17:07:57Z</time>
      </trkpt>
      <trkpt lat="45.8749" lon="1.41459">
        <ele>309</ele>
        <time>2022-05-18T17:08:00Z</time>
      </trkpt>
      <trkpt lat="45.87503" lon="1.41479">
        <ele>310</ele>
        <time>2022-05-18T17:08:03Z</time>
      </trkpt>
      <trkpt lat="45.87517" lon="1.41489">
        <ele>311</ele>
        <time>2022-05-18T17:08:07Z</time>
      </trkpt>
      <trkpt lat="45.87526" lon="1.41474">
        <ele>311</ele>
        <time>2022-05-18T17:08:10Z</time>
      </trkpt>
      <trkpt lat="45.87536" lon="1.41458">
        <ele>311</ele>
        <time>2022-05-18T17:08:13Z</time>
      </trkpt>
      <trkpt lat="45.87551" lon="1.41435">
        <ele>312</ele>
        <time>2022-05-18T17:08:18Z</time>
      </trkpt>
      <trkpt lat="45.87562" lon="1.41415">
        <ele>314</ele>
        <time>2022-05-18T17:08:22Z</time>
      </trkpt>
      <trkpt lat="45.87571" lon="1.41399">
        <ele>315</ele>
        <time>2022-05-18T17:08:25Z</time>
      </trkpt>
      <trkpt lat="45.87581" lon="1.41383">
        <ele>315</ele>
        <time>2022-05-18T17:08:28Z</time>
      </trkpt>
      <trkpt lat="45.8759" lon="1.41361">
        <ele>315</ele>
        <time>2022-05-18T17:08:31Z</time>
      </trkpt>
      <trkpt lat="45.87598" lon="1.41337">
        <ele>317</ele>
        <time>2022-05-18T17:08:34Z</time>
      </trkpt>
      <trkpt lat="45.87605" lon="1.41316">
        <ele>320</ele>
        <time>2022-05-18T17:08:37Z</time>
      </trkpt>
      <trkpt lat="45.87613" lon="1.41292">
        <ele>322</ele>
        <time>2022-05-18T17:08:41Z</time>
      </trkpt>
      <trkpt lat="45.87619" lon="1.41274">
        <ele>322</ele>
        <time>2022-05-18T17:08:44Z</time>
      </trkpt>
      <trkpt lat="45.87627" lon="1.41244">
        <ele>322</ele>
        <time>2022-05-18T17:08:50Z</time>
      </trkpt>
      <trkpt lat="45.87633" lon="1.41219">
        <ele>323</ele>
        <time>2022-05-18T17:08:56Z</time>
      </trkpt>
      <trkpt lat="45.87645" lon="1.41194">
        <ele>323</ele>
        <time>2022-05-18T17:09:02Z</time>
      </trkpt>
      <trkpt lat="45.87666" lon="1.41176">
        <ele>322</ele>
        <time>2022-05-18T17:09:08Z</time>
      </trkpt>
      <trkpt lat="45.87685" lon="1.41168">
        <ele>323</ele>
        <time>2022-05-18T17:09:14Z</time>
      </trkpt>
      <trkpt lat="45.87698" lon="1.41158">
        <ele>324</ele>
        <time>2022-05-18T17:09:20Z</time>
      </trkpt>
      <trkpt lat="45.87707" lon="1.41158">
        <ele>326</ele>
        <time>2022-05-18T17:09:53Z</time>
      </trkpt>
      <trkpt lat="45.87727" lon="1.41141">
        <ele>329</ele>
        <time>2022-05-18T17:10:23Z</time>
      </trkpt>
      <trkpt lat="45.87749" lon="1.41136">
        <ele>330</ele>
        <time>2022-05-18T17:10:29Z</time>
      </trkpt>
      <trkpt lat="45.87769" lon="1.41148">
        <ele>332</ele>
        <time>2022-05-18T17:10:35Z</time>
      </trkpt>
      <trkpt lat="45.87787" lon="1.41165">
        <ele>332</ele>
        <time>2022-05-18T17:10:40Z</time>
      </trkpt>
      <trkpt lat="45.87801" lon="1.41175">
        <ele>331</ele>
        <time>2022-05-18T17:10:43Z</time>
      </trkpt>
      <trkpt lat="45.87818" lon="1.41186">
        <ele>330</ele>
        <time>2022-05-18T17:10:47Z</time>
      </trkpt>
      <trkpt lat="45.87834" lon="1.41197">
        <ele>330</ele>
        <time>2022-05-18T17:10:51Z</time>
      </trkpt>
      <trkpt lat="45.8784" lon="1.41224">
        <ele>331</ele>
        <time>2022-05-18T17:10:55Z</time>
      </trkpt>
      <trkpt lat="45.87841" lon="1.41249">
        <ele>331</ele>
        <time>2022-05-18T17:10:58Z</time>
      </trkpt>
      <trkpt lat="45.87843" lon="1.41277">
        <ele>330</ele>
        <time>2022-05-18T17:11:01Z</time>
      </trkpt>
      <trkpt lat="45.87845" lon="1.41305">
        <ele>330</ele>
        <time>2022-05-18T17:11:04Z</time>
      </trkpt>
      <trkpt lat="45.87847" lon="1.4133">
        <ele>330</ele>
        <time>2022-05-18T17:11:07Z</time>
      </trkpt>
      <trkpt lat="45.87849" lon="1.41356">
        <ele>329</ele>
        <time>2022-05-18T17:11:10Z</time>
      </trkpt>
      <trkpt lat="45.87861" lon="1.41381">
        <ele>329</ele>
        <time>2022-05-18T17:11:13Z</time>
      </trkpt>
      <trkpt lat="45.87874" lon="1.41408">
        <ele>329</ele>
        <time>2022-05-18T17:11:16Z</time>
      </trkpt>
      <trkpt lat="45.87889" lon="1.41437">
        <ele>328</ele>
        <time>2022-05-18T17:11:19Z</time>
      </trkpt>
      <trkpt lat="45.87904" lon="1.41468">
        <ele>327</ele>
        <time>2022-05-18T17:11:22Z</time>
      </trkpt>
      <trkpt lat="45.87923" lon="1.41505">
        <ele>325</ele>
        <time>2022-05-18T17:11:25Z</time>
      </trkpt>
      <trkpt lat="45.87945" lon="1.41543">
        <ele>322</ele>
        <time>2022-05-18T17:11:28Z</time>
      </trkpt>
      <trkpt lat="45.87967" lon="1.41579">
        <ele>321</ele>
        <time>2022-05-18T17:11:31Z</time>
      </trkpt>
      <trkpt lat="45.87983" lon="1.41595">
        <ele>320</ele>
        <time>2022-05-18T17:11:34Z</time>
      </trkpt>
      <trkpt lat="45.88003" lon="1.41585">
        <ele>318</ele>
        <time>2022-05-18T17:11:37Z</time>
      </trkpt>
      <trkpt lat="45.88021" lon="1.41579">
        <ele>316</ele>
        <time>2022-05-18T17:11:40Z</time>
      </trkpt>
      <trkpt lat="45.88036" lon="1.41571">
        <ele>314</ele>
        <time>2022-05-18T17:11:43Z</time>
      </trkpt>
      <trkpt lat="45.88053" lon="1.41558">
        <ele>313</ele>
        <time>2022-05-18T17:11:46Z</time>
      </trkpt>
      <trkpt lat="45.88068" lon="1.41546">
        <ele>312</ele>
        <time>2022-05-18T17:11:49Z</time>
      </trkpt>
      <trkpt lat="45.88081" lon="1.41532">
        <ele>311</ele>
        <time>2022-05-18T17:11:52Z</time>
      </trkpt>
      <trkpt lat="45.88095" lon="1.41518">
        <ele>311</ele>
        <time>2022-05-18T17:11:55Z</time>
      </trkpt>
      <trkpt lat="45.88107" lon="1.41501">
        <ele>310</ele>
        <time>2022-05-18T17:11:58Z</time>
      </trkpt>
      <trkpt lat="45.8812" lon="1.41475">
        <ele>309</ele>
        <time>2022-05-18T17:12:03Z</time>
      </trkpt>
      <trkpt lat="45.88135" lon="1.41444">
        <ele>309</ele>
        <time>2022-05-18T17:12:09Z</time>
      </trkpt>
      <trkpt lat="45.88142" lon="1.41426">
        <ele>308</ele>
        <time>2022-05-18T17:12:12Z</time>
      </trkpt>
      <trkpt lat="45.88149" lon="1.41402">
        <ele>308</ele>
        <time>2022-05-18T17:12:16Z</time>
      </trkpt>
      <trkpt lat="45.88159" lon="1.41385">
        <ele>307</ele>
        <time>2022-05-18T17:12:19Z</time>
      </trkpt>
      <trkpt lat="45.88173" lon="1.41361">
        <ele>306</ele>
        <time>2022-05-18T17:12:22Z</time>
      </trkpt>
      <trkpt lat="45.88185" lon="1.41334">
        <ele>305</ele>
        <time>2022-05-18T17:12:25Z</time>
      </trkpt>
      <trkpt lat="45.88202" lon="1.41337">
        <ele>304</ele>
        <time>2022-05-18T17:12:28Z</time>
      </trkpt>
      <trkpt lat="45.88224" lon="1.41339">
        <ele>302</ele>
        <time>2022-05-18T17:12:31Z</time>
      </trkpt>
      <trkpt lat="45.88245" lon="1.41331">
        <ele>300</ele>
        <time>2022-05-18T17:12:34Z</time>
      </trkpt>
      <trkpt lat="45.88267" lon="1.4135">
        <ele>296</ele>
        <time>2022-05-18T17:12:37Z</time>
      </trkpt>
      <trkpt lat="45.88284" lon="1.41351">
        <ele>294</ele>
        <time>2022-05-18T17:12:40Z</time>
      </trkpt>
      <trkpt lat="45.88289" lon="1.41329">
        <ele>291</ele>
        <time>2022-05-18T17:12:43Z</time>
      </trkpt>
      <trkpt lat="45.8828" lon="1.41291">
        <ele>286</ele>
        <time>2022-05-18T17:12:46Z</time>
      </trkpt>
      <trkpt lat="45.88275" lon="1.41258">
        <ele>285</ele>
        <time>2022-05-18T17:12:49Z</time>
      </trkpt>
      <trkpt lat="45.8829" lon="1.41241">
        <ele>284</ele>
        <time>2022-05-18T17:12:52Z</time>
      </trkpt>
      <trkpt lat="45.8831" lon="1.41229">
        <ele>283</ele>
        <time>2022-05-18T17:12:55Z</time>
      </trkpt>
      <trkpt lat="45.88329" lon="1.41211">
        <ele>281</ele>
        <time>2022-05-18T17:12:58Z</time>
      </trkpt>
      <trkpt lat="45.88343" lon="1.41212">
        <ele>278</ele>
        <time>2022-05-18T17:13:01Z</time>
      </trkpt>
      <trkpt lat="45.88359" lon="1.41217">
        <ele>276</ele>
        <time>2022-05-18T17:13:04Z</time>
      </trkpt>
      <trkpt lat="45.88377" lon="1.41214">
        <ele>273</ele>
        <time>2022-05-18T17:13:07Z</time>
      </trkpt>
      <trkpt lat="45.88392" lon="1.41195">
        <ele>271</ele>
        <time>2022-05-18T17:13:10Z</time>
      </trkpt>
      <trkpt lat="45.88401" lon="1.41168">
        <ele>268</ele>
        <time>2022-05-18T17:13:13Z</time>
      </trkpt>
      <trkpt lat="45.88403" lon="1.41134">
        <ele>265</ele>
        <time>2022-05-18T17:13:16Z</time>
      </trkpt>
      <trkpt lat="45.88396" lon="1.41111">
        <ele>261</ele>
        <time>2022-05-18T17:13:20Z</time>
      </trkpt>
      <trkpt lat="45.88377" lon="1.41105">
        <ele>258</ele>
        <time>2022-05-18T17:13:26Z</time>
      </trkpt>
      <trkpt lat="45.8837" lon="1.41081">
        <ele>257</ele>
        <time>2022-05-18T17:13:32Z</time>
      </trkpt>
      <trkpt lat="45.88381" lon="1.41054">
        <ele>257</ele>
        <time>2022-05-18T17:13:38Z</time>
      </trkpt>
      <trkpt lat="45.88386" lon="1.41026">
        <ele>257</ele>
        <time>2022-05-18T17:13:44Z</time>
      </trkpt>
      <trkpt lat="45.88382" lon="1.40997">
        <ele>257</ele>
        <time>2022-05-18T17:13:49Z</time>
      </trkpt>
      <trkpt lat="45.88379" lon="1.40969">
        <ele>257</ele>
        <time>2022-05-18T17:13:55Z</time>
      </trkpt>
      <trkpt lat="45.88375" lon="1.40939">
        <ele>258</ele>
        <time>2022-05-18T17:14:01Z</time>
      </trkpt>
      <trkpt lat="45.88364" lon="1.40918">
        <ele>260</ele>
        <time>2022-05-18T17:14:07Z</time>
      </trkpt>
      <trkpt lat="45.88352" lon="1.40925">
        <ele>262</ele>
        <time>2022-05-18T17:14:14Z</time>
      </trkpt>
      <trkpt lat="45.88345" lon="1.40943">
        <ele>268</ele>
        <time>2022-05-18T17:14:38Z</time>
      </trkpt>
      <trkpt lat="45.88335" lon="1.40963">
        <ele>269</ele>
        <time>2022-05-18T17:14:51Z</time>
      </trkpt>
      <trkpt lat="45.88326" lon="1.40985">
        <ele>267</ele>
        <time>2022-05-18T17:14:57Z</time>
      </trkpt>
      <trkpt lat="45.88319" lon="1.41007">
        <ele>269</ele>
        <time>2022-05-18T17:15:03Z</time>
      </trkpt>
      <trkpt lat="45.8831" lon="1.41021">
        <ele>273</ele>
        <time>2022-05-18T17:15:11Z</time>
      </trkpt>
      <trkpt lat="45.883" lon="1.41003">
        <ele>278</ele>
        <time>2022-05-18T17:15:18Z</time>
      </trkpt>
      <trkpt lat="45.8829" lon="1.4098">
        <ele>281</ele>
        <time>2022-05-18T17:15:24Z</time>
      </trkpt>
      <trkpt lat="45.88281" lon="1.4096">
        <ele>283</ele>
        <time>2022-05-18T17:15:30Z</time>
      </trkpt>
      <trkpt lat="45.88272" lon="1.40936">
        <ele>286</ele>
        <time>2022-05-18T17:15:36Z</time>
      </trkpt>
      <trkpt lat="45.88263" lon="1.40912">
        <ele>289</ele>
        <time>2022-05-18T17:15:42Z</time>
      </trkpt>
      <trkpt lat="45.88253" lon="1.40896">
        <ele>292</ele>
        <time>2022-05-18T17:15:50Z</time>
      </trkpt>
      <trkpt lat="45.88237" lon="1.40889">
        <ele>294</ele>
        <time>2022-05-18T17:15:57Z</time>
      </trkpt>
      <trkpt lat="45.8822" lon="1.40882">
        <ele>294</ele>
        <time>2022-05-18T17:16:06Z</time>
      </trkpt>
      <trkpt lat="45.88205" lon="1.40875">
        <ele>296</ele>
        <time>2022-05-18T17:16:13Z</time>
      </trkpt>
      <trkpt lat="45.8819" lon="1.40868">
        <ele>297</ele>
        <time>2022-05-18T17:16:19Z</time>
      </trkpt>
      <trkpt lat="45.88174" lon="1.40862">
        <ele>299</ele>
        <time>2022-05-18T17:16:25Z</time>
      </trkpt>
      <trkpt lat="45.88156" lon="1.40856">
        <ele>300</ele>
        <time>2022-05-18T17:16:31Z</time>
      </trkpt>
      <trkpt lat="45.88139" lon="1.40849">
        <ele>302</ele>
        <time>2022-05-18T17:16:37Z</time>
      </trkpt>
      <trkpt lat="45.88121" lon="1.40841">
        <ele>303</ele>
        <time>2022-05-18T17:16:43Z</time>
      </trkpt>
      <trkpt lat="45.88101" lon="1.40832">
        <ele>304</ele>
        <time>2022-05-18T17:16:49Z</time>
      </trkpt>
      <trkpt lat="45.88084" lon="1.40824">
        <ele>305</ele>
        <time>2022-05-18T17:16:55Z</time>
      </trkpt>
      <trkpt lat="45.88067" lon="1.40822">
        <ele>306</ele>
        <time>2022-05-18T17:17:01Z</time>
      </trkpt>
      <trkpt lat="45.88046" lon="1.40823">
        <ele>308</ele>
        <time>2022-05-18T17:17:07Z</time>
      </trkpt>
      <trkpt lat="45.88024" lon="1.40823">
        <ele>310</ele>
        <time>2022-05-18T17:17:13Z</time>
      </trkpt>
      <trkpt lat="45.88004" lon="1.40823">
        <ele>312</ele>
        <time>2022-05-18T17:17:19Z</time>
      </trkpt>
      <trkpt lat="45.87984" lon="1.40825">
        <ele>313</ele>
        <time>2022-05-18T17:17:25Z</time>
      </trkpt>
      <trkpt lat="45.87967" lon="1.40816">
        <ele>313</ele>
        <time>2022-05-18T17:17:31Z</time>
      </trkpt>
      <trkpt lat="45.87955" lon="1.40803">
        <ele>314</ele>
        <time>2022-05-18T17:17:37Z</time>
      </trkpt>
      <trkpt lat="45.8794" lon="1.40788">
        <ele>316</ele>
        <time>2022-05-18T17:17:43Z</time>
      </trkpt>
      <trkpt lat="45.87927" lon="1.40772">
        <ele>317</ele>
        <time>2022-05-18T17:17:50Z</time>
      </trkpt>
      <trkpt lat="45.87918" lon="1.40756">
        <ele>317</ele>
        <time>2022-05-18T17:18:00Z</time>
      </trkpt>
      <trkpt lat="45.87918" lon="1.40763">
        <ele>323</ele>
        <time>2022-05-18T17:18:25Z</time>
      </trkpt>
      <trkpt lat="45.87912" lon="1.40763">
        <ele>311</ele>
        <time>2022-05-18T17:19:23Z</time>
      </trkpt>
      <trkpt lat="45.87912" lon="1.4075">
        <ele>318</ele>
        <time>2022-05-18T17:20:20Z</time>
      </trkpt>
      <trkpt lat="45.87925" lon="1.40714">
        <ele>329</ele>
        <time>2022-05-18T17:24:17Z</time>
      </trkpt>
      <trkpt lat="45.8793" lon="1.40684">
        <ele>327</ele>
        <time>2022-05-18T17:24:23Z</time>
      </trkpt>
      <trkpt lat="45.87937" lon="1.40656">
        <ele>325</ele>
        <time>2022-05-18T17:24:28Z</time>
      </trkpt>
      <trkpt lat="45.87941" lon="1.40623">
        <ele>324</ele>
        <time>2022-05-18T17:24:31Z</time>
      </trkpt>
      <trkpt lat="45.87948" lon="1.40589">
        <ele>321</ele>
        <time>2022-05-18T17:24:34Z</time>
      </trkpt>
      <trkpt lat="45.87954" lon="1.40558">
        <ele>320</ele>
        <time>2022-05-18T17:24:37Z</time>
      </trkpt>
      <trkpt lat="45.87964" lon="1.40529">
        <ele>320</ele>
        <time>2022-05-18T17:24:40Z</time>
      </trkpt>
      <trkpt lat="45.87978" lon="1.40507">
        <ele>319</ele>
        <time>2022-05-18T17:24:43Z</time>
      </trkpt>
      <trkpt lat="45.87993" lon="1.40517">
        <ele>317</ele>
        <time>2022-05-18T17:24:47Z</time>
      </trkpt>
      <trkpt lat="45.88014" lon="1.40527">
        <ele>316</ele>
        <time>2022-05-18T17:24:53Z</time>
      </trkpt>
      <trkpt lat="45.88035" lon="1.40539">
        <ele>313</ele>
        <time>2022-05-18T17:24:59Z</time>
      </trkpt>
      <trkpt lat="45.88049" lon="1.40547">
        <ele>309</ele>
        <time>2022-05-18T17:25:02Z</time>
      </trkpt>
      <trkpt lat="45.88063" lon="1.40555">
        <ele>307</ele>
        <time>2022-05-18T17:25:05Z</time>
      </trkpt>
      <trkpt lat="45.8808" lon="1.40566">
        <ele>305</ele>
        <time>2022-05-18T17:25:09Z</time>
      </trkpt>
      <trkpt lat="45.881" lon="1.40578">
        <ele>304</ele>
        <time>2022-05-18T17:25:12Z</time>
      </trkpt>
      <trkpt lat="45.8812" lon="1.40589">
        <ele>302</ele>
        <time>2022-05-18T17:25:15Z</time>
      </trkpt>
      <trkpt lat="45.88139" lon="1.406">
        <ele>300</ele>
        <time>2022-05-18T17:25:19Z</time>
      </trkpt>
      <trkpt lat="45.88157" lon="1.40608">
        <ele>299</ele>
        <time>2022-05-18T17:25:23Z</time>
      </trkpt>
      <trkpt lat="45.8817" lon="1.40617">
        <ele>297</ele>
        <time>2022-05-18T17:25:26Z</time>
      </trkpt>
      <trkpt lat="45.88183" lon="1.40611">
        <ele>296</ele>
        <time>2022-05-18T17:25:30Z</time>
      </trkpt>
      <trkpt lat="45.8819" lon="1.40588">
        <ele>298</ele>
        <time>2022-05-18T17:25:34Z</time>
      </trkpt>
      <trkpt lat="45.88203" lon="1.40572">
        <ele>300</ele>
        <time>2022-05-18T17:25:38Z</time>
      </trkpt>
      <trkpt lat="45.88218" lon="1.40566">
        <ele>300</ele>
        <time>2022-05-18T17:25:41Z</time>
      </trkpt>
      <trkpt lat="45.88238" lon="1.40561">
        <ele>299</ele>
        <time>2022-05-18T17:25:46Z</time>
      </trkpt>
      <trkpt lat="45.88256" lon="1.4056">
        <ele>298</ele>
        <time>2022-05-18T17:25:49Z</time>
      </trkpt>
      <trkpt lat="45.88275" lon="1.40559">
        <ele>297</ele>
        <time>2022-05-18T17:25:52Z</time>
      </trkpt>
      <trkpt lat="45.88297" lon="1.40557">
        <ele>295</ele>
        <time>2022-05-18T17:25:55Z</time>
      </trkpt>
      <trkpt lat="45.88321" lon="1.40549">
        <ele>293</ele>
        <time>2022-05-18T17:25:58Z</time>
      </trkpt>
      <trkpt lat="45.88345" lon="1.40526">
        <ele>290</ele>
        <time>2022-05-18T17:26:01Z</time>
      </trkpt>
      <trkpt lat="45.88365" lon="1.40502">
        <ele>288</ele>
        <time>2022-05-18T17:26:04Z</time>
      </trkpt>
      <trkpt lat="45.88381" lon="1.40476">
        <ele>286</ele>
        <time>2022-05-18T17:26:07Z</time>
      </trkpt>
      <trkpt lat="45.88389" lon="1.40444">
        <ele>284</ele>
        <time>2022-05-18T17:26:10Z</time>
      </trkpt>
      <trkpt lat="45.88401" lon="1.40416">
        <ele>281</ele>
        <time>2022-05-18T17:26:13Z</time>
      </trkpt>
      <trkpt lat="45.8841" lon="1.40393">
        <ele>278</ele>
        <time>2022-05-18T17:26:16Z</time>
      </trkpt>
      <trkpt lat="45.88422" lon="1.4037">
        <ele>274</ele>
        <time>2022-05-18T17:26:21Z</time>
      </trkpt>
      <trkpt lat="45.88419" lon="1.40343">
        <ele>269</ele>
        <time>2022-05-18T17:26:25Z</time>
      </trkpt>
      <trkpt lat="45.88414" lon="1.40315">
        <ele>264</ele>
        <time>2022-05-18T17:26:29Z</time>
      </trkpt>
      <trkpt lat="45.88415" lon="1.40295">
        <ele>261</ele>
        <time>2022-05-18T17:26:32Z</time>
      </trkpt>
      <trkpt lat="45.88422" lon="1.40268">
        <ele>259</ele>
        <time>2022-05-18T17:26:39Z</time>
      </trkpt>
      <trkpt lat="45.88416" lon="1.40243">
        <ele>256</ele>
        <time>2022-05-18T17:26:47Z</time>
      </trkpt>
      <trkpt lat="45.88408" lon="1.40215">
        <ele>253</ele>
        <time>2022-05-18T17:26:52Z</time>
      </trkpt>
      <trkpt lat="45.88399" lon="1.40187">
        <ele>252</ele>
        <time>2022-05-18T17:26:57Z</time>
      </trkpt>
      <trkpt lat="45.88386" lon="1.40161">
        <ele>252</ele>
        <time>2022-05-18T17:27:03Z</time>
      </trkpt>
      <trkpt lat="45.88376" lon="1.40138">
        <ele>252</ele>
        <time>2022-05-18T17:27:09Z</time>
      </trkpt>
      <trkpt lat="45.88385" lon="1.40119">
        <ele>254</ele>
        <time>2022-05-18T17:27:22Z</time>
      </trkpt>
      <trkpt lat="45.88391" lon="1.40087">
        <ele>255</ele>
        <time>2022-05-18T17:27:26Z</time>
      </trkpt>
      <trkpt lat="45.88398" lon="1.40054">
        <ele>254</ele>
        <time>2022-05-18T17:27:29Z</time>
      </trkpt>
      <trkpt lat="45.88401" lon="1.40017">
        <ele>252</ele>
        <time>2022-05-18T17:27:32Z</time>
      </trkpt>
      <trkpt lat="45.88405" lon="1.3998">
        <ele>250</ele>
        <time>2022-05-18T17:27:35Z</time>
      </trkpt>
      <trkpt lat="45.88414" lon="1.39941">
        <ele>248</ele>
        <time>2022-05-18T17:27:38Z</time>
      </trkpt>
      <trkpt lat="45.88427" lon="1.39908">
        <ele>246</ele>
        <time>2022-05-18T17:27:41Z</time>
      </trkpt>
      <trkpt lat="45.88438" lon="1.39883">
        <ele>245</ele>
        <time>2022-05-18T17:27:44Z</time>
      </trkpt>
      <trkpt lat="45.88443" lon="1.39858">
        <ele>245</ele>
        <time>2022-05-18T17:27:51Z</time>
      </trkpt>
      <trkpt lat="45.88445" lon="1.39829">
        <ele>244</ele>
        <time>2022-05-18T17:27:55Z</time>
      </trkpt>
      <trkpt lat="45.88449" lon="1.398">
        <ele>242</ele>
        <time>2022-05-18T17:27:58Z</time>
      </trkpt>
      <trkpt lat="45.88448" lon="1.39766">
        <ele>240</ele>
        <time>2022-05-18T17:28:01Z</time>
      </trkpt>
      <trkpt lat="45.88446" lon="1.39741">
        <ele>239</ele>
        <time>2022-05-18T17:28:04Z</time>
      </trkpt>
      <trkpt lat="45.88445" lon="1.39712">
        <ele>237</ele>
        <time>2022-05-18T17:28:09Z</time>
      </trkpt>
      <trkpt lat="45.88442" lon="1.39682">
        <ele>236</ele>
        <time>2022-05-18T17:28:15Z</time>
      </trkpt>
      <trkpt lat="45.8844" lon="1.3965">
        <ele>236</ele>
        <time>2022-05-18T17:28:21Z</time>
      </trkpt>
      <trkpt lat="45.88434" lon="1.39616">
        <ele>236</ele>
        <time>2022-05-18T17:28:27Z</time>
      </trkpt>
      <trkpt lat="45.88431" lon="1.39591">
        <ele>235</ele>
        <time>2022-05-18T17:28:30Z</time>
      </trkpt>
      <trkpt lat="45.88425" lon="1.39569">
        <ele>234</ele>
        <time>2022-05-18T17:28:33Z</time>
      </trkpt>
      <trkpt lat="45.88414" lon="1.39547">
        <ele>233</ele>
        <time>2022-05-18T17:28:36Z</time>
      </trkpt>
      <trkpt lat="45.88399" lon="1.39522">
        <ele>233</ele>
        <time>2022-05-18T17:28:39Z</time>
      </trkpt>
      <trkpt lat="45.88384" lon="1.395">
        <ele>233</ele>
        <time>2022-05-18T17:28:42Z</time>
      </trkpt>
      <trkpt lat="45.8837" lon="1.39484">
        <ele>233</ele>
        <time>2022-05-18T17:28:45Z</time>
      </trkpt>
      <trkpt lat="45.88355" lon="1.39476">
        <ele>233</ele>
        <time>2022-05-18T17:28:48Z</time>
      </trkpt>
      <trkpt lat="45.88337" lon="1.39477">
        <ele>235</ele>
        <time>2022-05-18T17:28:51Z</time>
      </trkpt>
      <trkpt lat="45.88318" lon="1.39473">
        <ele>236</ele>
        <time>2022-05-18T17:28:55Z</time>
      </trkpt>
      <trkpt lat="45.88297" lon="1.3946">
        <ele>238</ele>
        <time>2022-05-18T17:29:01Z</time>
      </trkpt>
      <trkpt lat="45.88282" lon="1.39447">
        <ele>239</ele>
        <time>2022-05-18T17:29:05Z</time>
      </trkpt>
      <trkpt lat="45.88261" lon="1.3943">
        <ele>239</ele>
        <time>2022-05-18T17:29:11Z</time>
      </trkpt>
      <trkpt lat="45.88244" lon="1.39413">
        <ele>239</ele>
        <time>2022-05-18T17:29:16Z</time>
      </trkpt>
      <trkpt lat="45.88228" lon="1.39396">
        <ele>239</ele>
        <time>2022-05-18T17:29:21Z</time>
      </trkpt>
      <trkpt lat="45.88209" lon="1.39379">
        <ele>239</ele>
        <time>2022-05-18T17:29:26Z</time>
      </trkpt>
      <trkpt lat="45.88195" lon="1.39369">
        <ele>239</ele>
        <time>2022-05-18T17:29:29Z</time>
      </trkpt>
      <trkpt lat="45.88175" lon="1.39356">
        <ele>239</ele>
        <time>2022-05-18T17:29:32Z</time>
      </trkpt>
      <trkpt lat="45.88157" lon="1.39343">
        <ele>240</ele>
        <time>2022-05-18T17:29:35Z</time>
      </trkpt>
      <trkpt lat="45.88141" lon="1.3933">
        <ele>240</ele>
        <time>2022-05-18T17:29:38Z</time>
      </trkpt>
      <trkpt lat="45.88124" lon="1.39317">
        <ele>240</ele>
        <time>2022-05-18T17:29:41Z</time>
      </trkpt>
      <trkpt lat="45.88108" lon="1.39304">
        <ele>241</ele>
        <time>2022-05-18T17:29:44Z</time>
      </trkpt>
      <trkpt lat="45.88094" lon="1.39288">
        <ele>242</ele>
        <time>2022-05-18T17:29:47Z</time>
      </trkpt>
      <trkpt lat="45.88075" lon="1.3927">
        <ele>242</ele>
        <time>2022-05-18T17:29:52Z</time>
      </trkpt>
      <trkpt lat="45.88058" lon="1.39253">
        <ele>242</ele>
        <time>2022-05-18T17:29:56Z</time>
      </trkpt>
      <trkpt lat="45.88041" lon="1.39237">
        <ele>242</ele>
        <time>2022-05-18T17:29:59Z</time>
      </trkpt>
      <trkpt lat="45.88026" lon="1.39219">
        <ele>242</ele>
        <time>2022-05-18T17:30:02Z</time>
      </trkpt>
      <trkpt lat="45.8801" lon="1.39197">
        <ele>241</ele>
        <time>2022-05-18T17:30:06Z</time>
      </trkpt>
      <trkpt lat="45.87993" lon="1.39176">
        <ele>242</ele>
        <time>2022-05-18T17:30:12Z</time>
      </trkpt>
      <trkpt lat="45.87979" lon="1.39164">
        <ele>243</ele>
        <time>2022-05-18T17:30:18Z</time>
      </trkpt>
      <trkpt lat="45.87967" lon="1.39149">
        <ele>243</ele>
        <time>2022-05-18T17:30:24Z</time>
      </trkpt>
      <trkpt lat="45.87956" lon="1.39129">
        <ele>243</ele>
        <time>2022-05-18T17:30:34Z</time>
      </trkpt>
      <trkpt lat="45.87945" lon="1.39109">
        <ele>243</ele>
        <time>2022-05-18T17:30:40Z</time>
      </trkpt>
      <trkpt lat="45.87933" lon="1.39087">
        <ele>245</ele>
        <time>2022-05-18T17:30:46Z</time>
      </trkpt>
      <trkpt lat="45.87919" lon="1.39066">
        <ele>247</ele>
        <time>2022-05-18T17:30:52Z</time>
      </trkpt>
      <trkpt lat="45.87904" lon="1.39039">
        <ele>247</ele>
        <time>2022-05-18T17:30:58Z</time>
      </trkpt>
      <trkpt lat="45.87893" lon="1.39022">
        <ele>247</ele>
        <time>2022-05-18T17:31:01Z</time>
      </trkpt>
      <trkpt lat="45.87882" lon="1.39001">
        <ele>248</ele>
        <time>2022-05-18T17:31:05Z</time>
      </trkpt>
      <trkpt lat="45.87871" lon="1.38983">
        <ele>249</ele>
        <time>2022-05-18T17:31:08Z</time>
      </trkpt>
      <trkpt lat="45.87857" lon="1.38958">
        <ele>250</ele>
        <time>2022-05-18T17:31:14Z</time>
      </trkpt>
      <trkpt lat="45.87844" lon="1.38938">
        <ele>250</ele>
        <time>2022-05-18T17:31:18Z</time>
      </trkpt>
      <trkpt lat="45.87828" lon="1.38919">
        <ele>251</ele>
        <time>2022-05-18T17:31:23Z</time>
      </trkpt>
      <trkpt lat="45.87809" lon="1.38916">
        <ele>250</ele>
        <time>2022-05-18T17:31:29Z</time>
      </trkpt>
      <trkpt lat="45.87796" lon="1.38927">
        <ele>248</ele>
        <time>2022-05-18T17:31:35Z</time>
      </trkpt>
      <trkpt lat="45.87782" lon="1.38943">
        <ele>247</ele>
        <time>2022-05-18T17:31:41Z</time>
      </trkpt>
      <trkpt lat="45.87767" lon="1.38964">
        <ele>247</ele>
        <time>2022-05-18T17:31:47Z</time>
      </trkpt>
      <trkpt lat="45.87749" lon="1.38983">
        <ele>247</ele>
        <time>2022-05-18T17:31:53Z</time>
      </trkpt>
      <trkpt lat="45.87728" lon="1.38989">
        <ele>247</ele>
        <time>2022-05-18T17:31:58Z</time>
      </trkpt>
      <trkpt lat="45.87721" lon="1.38972">
        <ele>248</ele>
        <time>2022-05-18T17:32:04Z</time>
      </trkpt>
      <trkpt lat="45.87727" lon="1.38944">
        <ele>252</ele>
        <time>2022-05-18T17:32:10Z</time>
      </trkpt>
      <trkpt lat="45.87727" lon="1.38918">
        <ele>255</ele>
        <time>2022-05-18T17:32:16Z</time>
      </trkpt>
      <trkpt lat="45.87724" lon="1.38891">
        <ele>259</ele>
        <time>2022-05-18T17:32:22Z</time>
      </trkpt>
      <trkpt lat="45.87721" lon="1.38879">
        <ele>262</ele>
        <time>2022-05-18T17:32:51Z</time>
      </trkpt>
      <trkpt lat="45.8771" lon="1.38879">
        <ele>266</ele>
        <time>2022-05-18T17:32:57Z</time>
      </trkpt>
      <trkpt lat="45.87689" lon="1.38846">
        <ele>263.8</ele>
        <time>2022-05-18T17:34:10Z</time>
      </trkpt>
      <trkpt lat="45.8768" lon="1.38827">
        <ele>265.2</ele>
        <time>2022-05-18T17:34:31Z</time>
      </trkpt>
      <trkpt lat="45.87675" lon="1.38817">
        <ele>265.2</ele>
        <time>2022-05-18T17:34:58Z</time>
      </trkpt>
      <trkpt lat="45.87668" lon="1.38806">
        <ele>265.7</ele>
        <time>2022-05-18T17:35:02Z</time>
      </trkpt>
      <trkpt lat="45.87663" lon="1.38801">
        <ele>266.5</ele>
        <time>2022-05-18T17:35:05Z</time>
      </trkpt>
      <trkpt lat="45.87656" lon="1.38797">
        <ele>267.8</ele>
        <time>2022-05-18T17:35:08Z</time>
      </trkpt>
      <trkpt lat="45.87651" lon="1.3879">
        <ele>268.6</ele>
        <time>2022-05-18T17:35:11Z</time>
      </trkpt>
      <trkpt lat="45.87648" lon="1.38783">
        <ele>268.7</ele>
        <time>2022-05-18T17:35:14Z</time>
      </trkpt>
      <trkpt lat="45.87639" lon="1.38766">
        <ele>269.1</ele>
        <time>2022-05-18T17:35:17Z</time>
      </trkpt>
      <trkpt lat="45.87614" lon="1.38725">
        <ele>270</ele>
        <time>2022-05-18T17:35:20Z</time>
      </trkpt>
      <trkpt lat="45.8759" lon="1.38712">
        <ele>273.3</ele>
      </trkpt>
      <trkpt lat="45.87568" lon="1.38721">
        <ele>277.4</ele>
      </trkpt>
      <trkpt lat="45.87502" lon="1.38766">
        <ele>282.1</ele>
      </trkpt>
      <trkpt lat="45.87442" lon="1.38815">
        <ele>283.8</ele>
      </trkpt>
      <trkpt lat="45.87428" lon="1.38827">
        <ele>285.3</ele>
      </trkpt>
      <trkpt lat="45.87397" lon="1.38828">
        <ele>286.5</ele>
      </trkpt>
      <trkpt lat="45.87372" lon="1.38851">
        <ele>262</ele>
        <time>2022-05-18T17:45:31Z</time>
      </trkpt>
      <trkpt lat="45.87359" lon="1.38872">
        <ele>264</ele>
        <time>2022-05-18T17:45:37Z</time>
      </trkpt>
      <trkpt lat="45.87339" lon="1.38882">
        <ele>264</ele>
        <time>2022-05-18T17:45:42Z</time>
      </trkpt>
      <trkpt lat="45.87325" lon="1.38888">
        <ele>264</ele>
        <time>2022-05-18T17:45:45Z</time>
      </trkpt>
      <trkpt lat="45.87306" lon="1.38899">
        <ele>265</ele>
        <time>2022-05-18T17:45:50Z</time>
      </trkpt>
      <trkpt lat="45.87286" lon="1.38908">
        <ele>267</ele>
        <time>2022-05-18T17:45:56Z</time>
      </trkpt>
      <trkpt lat="45.87265" lon="1.38915">
        <ele>270</ele>
        <time>2022-05-18T17:46:02Z</time>
      </trkpt>
      <trkpt lat="45.87248" lon="1.3893">
        <ele>272</ele>
        <time>2022-05-18T17:46:08Z</time>
      </trkpt>
      <trkpt lat="45.87236" lon="1.38951">
        <ele>276</ele>
        <time>2022-05-18T17:46:14Z</time>
      </trkpt>
      <trkpt lat="45.87219" lon="1.38961">
        <ele>279</ele>
        <time>2022-05-18T17:46:20Z</time>
      </trkpt>
      <trkpt lat="45.87195" lon="1.38975">
        <ele>282</ele>
        <time>2022-05-18T17:46:26Z</time>
      </trkpt>
      <trkpt lat="45.8713" lon="1.3894">
        <ele>300.8</ele>
      </trkpt>
      <trkpt lat="45.87087" lon="1.38931">
        <ele>300.6</ele>
        <time>2022-05-18T17:46:29Z</time>
      </trkpt>
      <trkpt lat="45.87049" lon="1.38944">
        <ele>303</ele>
        <time>2022-05-18T17:46:35Z</time>
      </trkpt>
      <trkpt lat="45.86997" lon="1.38976">
        <ele>306.1</ele>
        <time>2022-05-18T17:46:40Z</time>
      </trkpt>
      <trkpt lat="45.86981" lon="1.38997">
        <ele>306.7</ele>
        <time>2022-05-18T17:46:46Z</time>
      </trkpt>
      <trkpt lat="45.86956" lon="1.3904">
        <ele>308.7</ele>
        <time>2022-05-18T17:46:52Z</time>
      </trkpt>
      <trkpt lat="45.86932" lon="1.39069">
        <ele>309.8</ele>
        <time>2022-05-18T17:46:57Z</time>
      </trkpt>
      <trkpt lat="45.86953" lon="1.39124">
        <ele>314.4</ele>
        <time>2022-05-18T17:47:00Z</time>
      </trkpt>
      <trkpt lat="45.86981" lon="1.39167">
        <ele>319</ele>
        <time>2022-05-18T17:47:03Z</time>
      </trkpt>
      <trkpt lat="45.87014" lon="1.39217">
        <ele>323.9</ele>
        <time>2022-05-18T17:47:06Z</time>
      </trkpt>
      <trkpt lat="45.87034" lon="1.39252">
        <ele>326.7</ele>
        <time>2022-05-18T17:47:09Z</time>
      </trkpt>
      <trkpt lat="45.87049" lon="1.39282">
        <ele>327.8</ele>
        <time>2022-05-18T17:47:12Z</time>
      </trkpt>
      <trkpt lat="45.87067" lon="1.3931">
        <ele>328.4</ele>
        <time>2022-05-18T17:47:15Z</time>
      </trkpt>
      <trkpt lat="45.87079" lon="1.39327">
        <ele>328.1</ele>
        <time>2022-05-18T17:47:18Z</time>
      </trkpt>
      <trkpt lat="45.87091" lon="1.39344">
        <ele>327.5</ele>
        <time>2022-05-18T17:47:22Z</time>
      </trkpt>
      <trkpt lat="45.87103" lon="1.39355">
        <ele>326.7</ele>
        <time>2022-05-18T17:47:27Z</time>
      </trkpt>
      <trkpt lat="45.87126" lon="1.39363">
        <ele>301</ele>
        <time>2022-05-18T17:47:30Z</time>
      </trkpt>
      <trkpt lat="45.87114" lon="1.39376">
        <ele>303</ele>
        <time>2022-05-18T17:47:33Z</time>
      </trkpt>
      <trkpt lat="45.871" lon="1.39388">
        <ele>307</ele>
        <time>2022-05-18T17:47:36Z</time>
      </trkpt>
      <trkpt lat="45.87085" lon="1.39402">
        <ele>310</ele>
        <time>2022-05-18T17:47:39Z</time>
      </trkpt>
      <trkpt lat="45.87069" lon="1.39416">
        <ele>311</ele>
        <time>2022-05-18T17:47:42Z</time>
      </trkpt>
      <trkpt lat="45.87052" lon="1.3943">
        <ele>312</ele>
        <time>2022-05-18T17:47:45Z</time>
      </trkpt>
      <trkpt lat="45.87037" lon="1.39443">
        <ele>313</ele>
        <time>2022-05-18T17:47:48Z</time>
      </trkpt>
      <trkpt lat="45.87023" lon="1.39457">
        <ele>314</ele>
        <time>2022-05-18T17:47:51Z</time>
      </trkpt>
      <trkpt lat="45.8701" lon="1.39472">
        <ele>315</ele>
        <time>2022-05-18T17:47:54Z</time>
      </trkpt>
      <trkpt lat="45.86997" lon="1.39488">
        <ele>317</ele>
        <time>2022-05-18T17:47:57Z</time>
      </trkpt>
      <trkpt lat="45.86983" lon="1.39503">
        <ele>317</ele>
        <time>2022-05-18T17:48:00Z</time>
      </trkpt>
      <trkpt lat="45.86969" lon="1.39515">
        <ele>319</ele>
        <time>2022-05-18T17:48:03Z</time>
      </trkpt>
      <trkpt lat="45.86953" lon="1.39524">
        <ele>320</ele>
        <time>2022-05-18T17:48:06Z</time>
      </trkpt>
      <trkpt lat="45.86932" lon="1.39527">
        <ele>320</ele>
        <time>2022-05-18T17:48:09Z</time>
      </trkpt>
      <trkpt lat="45.86908" lon="1.39527">
        <ele>321</ele>
        <time>2022-05-18T17:48:12Z</time>
      </trkpt>
      <trkpt lat="45.86884" lon="1.39528">
        <ele>323</ele>
        <time>2022-05-18T17:48:15Z</time>
      </trkpt>
      <trkpt lat="45.8686" lon="1.39529">
        <ele>326</ele>
        <time>2022-05-18T17:48:18Z</time>
      </trkpt>
      <trkpt lat="45.86839" lon="1.39532">
        <ele>329</ele>
        <time>2022-05-18T17:48:21Z</time>
      </trkpt>
      <trkpt lat="45.8682" lon="1.39531">
        <ele>331</ele>
        <time>2022-05-18T17:48:24Z</time>
      </trkpt>
      <trkpt lat="45.86803" lon="1.39523">
        <ele>333</ele>
        <time>2022-05-18T17:48:27Z</time>
      </trkpt>
      <trkpt lat="45.86787" lon="1.39511">
        <ele>333</ele>
        <time>2022-05-18T17:48:30Z</time>
      </trkpt>
      <trkpt lat="45.86769" lon="1.39496">
        <ele>334</ele>
        <time>2022-05-18T17:48:35Z</time>
      </trkpt>
      <trkpt lat="45.86755" lon="1.39485">
        <ele>334</ele>
        <time>2022-05-18T17:48:38Z</time>
      </trkpt>
      <trkpt lat="45.8674" lon="1.39468">
        <ele>333</ele>
        <time>2022-05-18T17:48:41Z</time>
      </trkpt>
      <trkpt lat="45.86723" lon="1.39446">
        <ele>332</ele>
        <time>2022-05-18T17:48:44Z</time>
      </trkpt>
      <trkpt lat="45.86706" lon="1.39424">
        <ele>333</ele>
        <time>2022-05-18T17:48:47Z</time>
      </trkpt>
      <trkpt lat="45.86698" lon="1.39421">
        <ele>335</ele>
        <time>2022-05-18T17:48:52Z</time>
      </trkpt>
      <trkpt lat="45.86707" lon="1.3944">
        <ele>336</ele>
        <time>2022-05-18T17:48:58Z</time>
      </trkpt>
      <trkpt lat="45.86718" lon="1.39464">
        <ele>337</ele>
        <time>2022-05-18T17:49:04Z</time>
      </trkpt>
      <trkpt lat="45.86729" lon="1.39488">
        <ele>338</ele>
        <time>2022-05-18T17:49:08Z</time>
      </trkpt>
      <trkpt lat="45.86738" lon="1.39509">
        <ele>339</ele>
        <time>2022-05-18T17:49:11Z</time>
      </trkpt>
      <trkpt lat="45.86747" lon="1.39535">
        <ele>338</ele>
        <time>2022-05-18T17:49:14Z</time>
      </trkpt>
      <trkpt lat="45.86756" lon="1.39564">
        <ele>337</ele>
        <time>2022-05-18T17:49:17Z</time>
      </trkpt>
      <trkpt lat="45.86765" lon="1.39596">
        <ele>337</ele>
        <time>2022-05-18T17:49:20Z</time>
      </trkpt>
      <trkpt lat="45.86775" lon="1.39625">
        <ele>337</ele>
        <time>2022-05-18T17:49:23Z</time>
      </trkpt>
      <trkpt lat="45.86786" lon="1.39654">
        <ele>337</ele>
        <time>2022-05-18T17:49:26Z</time>
      </trkpt>
      <trkpt lat="45.86797" lon="1.39684">
        <ele>337</ele>
        <time>2022-05-18T17:49:29Z</time>
      </trkpt>
      <trkpt lat="45.86807" lon="1.39714">
        <ele>336</ele>
        <time>2022-05-18T17:49:32Z</time>
      </trkpt>
      <trkpt lat="45.86818" lon="1.39745">
        <ele>335</ele>
        <time>2022-05-18T17:49:35Z</time>
      </trkpt>
      <trkpt lat="45.8683" lon="1.39774">
        <ele>335</ele>
        <time>2022-05-18T17:49:38Z</time>
      </trkpt>
      <trkpt lat="45.86844" lon="1.39801">
        <ele>334</ele>
        <time>2022-05-18T17:49:41Z</time>
      </trkpt>
      <trkpt lat="45.86859" lon="1.39828">
        <ele>334</ele>
        <time>2022-05-18T17:49:44Z</time>
      </trkpt>
      <trkpt lat="45.86873" lon="1.39855">
        <ele>333</ele>
        <time>2022-05-18T17:49:47Z</time>
      </trkpt>
      <trkpt lat="45.86886" lon="1.39877">
        <ele>332</ele>
        <time>2022-05-18T17:49:50Z</time>
      </trkpt>
      <trkpt lat="45.86898" lon="1.39895">
        <ele>332</ele>
        <time>2022-05-18T17:49:53Z</time>
      </trkpt>
      <trkpt lat="45.86909" lon="1.39914">
        <ele>331</ele>
        <time>2022-05-18T17:49:58Z</time>
      </trkpt>
      <trkpt lat="45.86924" lon="1.39934">
        <ele>332</ele>
        <time>2022-05-18T17:50:04Z</time>
      </trkpt>
      <trkpt lat="45.86933" lon="1.3996">
        <ele>335</ele>
        <time>2022-05-18T17:50:09Z</time>
      </trkpt>
      <trkpt lat="45.86939" lon="1.39979">
        <ele>337</ele>
        <time>2022-05-18T17:50:12Z</time>
      </trkpt>
      <trkpt lat="45.86947" lon="1.39998">
        <ele>338</ele>
        <time>2022-05-18T17:50:15Z</time>
      </trkpt>
      <trkpt lat="45.86955" lon="1.40019">
        <ele>338</ele>
        <time>2022-05-18T17:50:18Z</time>
      </trkpt>
      <trkpt lat="45.86963" lon="1.40037">
        <ele>337</ele>
        <time>2022-05-18T17:50:21Z</time>
      </trkpt>
      <trkpt lat="45.86972" lon="1.40055">
        <ele>337</ele>
        <time>2022-05-18T17:50:24Z</time>
      </trkpt>
      <trkpt lat="45.86981" lon="1.40073">
        <ele>337</ele>
        <time>2022-05-18T17:50:27Z</time>
      </trkpt>
      <trkpt lat="45.8699" lon="1.40093">
        <ele>337</ele>
        <time>2022-05-18T17:50:30Z</time>
      </trkpt>
      <trkpt lat="45.86998" lon="1.40112">
        <ele>337</ele>
        <time>2022-05-18T17:50:33Z</time>
      </trkpt>
      <trkpt lat="45.86986" lon="1.40134">
        <ele>337</ele>
        <time>2022-05-18T17:50:37Z</time>
      </trkpt>
      <trkpt lat="45.86976" lon="1.40153">
        <ele>338</ele>
        <time>2022-05-18T17:50:40Z</time>
      </trkpt>
      <trkpt lat="45.86964" lon="1.40171">
        <ele>340</ele>
        <time>2022-05-18T17:50:43Z</time>
      </trkpt>
      <trkpt lat="45.86954" lon="1.40187">
        <ele>341</ele>
        <time>2022-05-18T17:50:46Z</time>
      </trkpt>
      <trkpt lat="45.86945" lon="1.40204">
        <ele>342</ele>
        <time>2022-05-18T17:50:49Z</time>
      </trkpt>
      <trkpt lat="45.86942" lon="1.40223">
        <ele>342</ele>
        <time>2022-05-18T17:50:58Z</time>
      </trkpt>
      <trkpt lat="45.86957" lon="1.40247">
        <ele>343</ele>
        <time>2022-05-18T17:51:04Z</time>
      </trkpt>
      <trkpt lat="45.86972" lon="1.4026">
        <ele>344</ele>
        <time>2022-05-18T17:51:07Z</time>
      </trkpt>
      <trkpt lat="45.86987" lon="1.40275">
        <ele>344</ele>
        <time>2022-05-18T17:51:10Z</time>
      </trkpt>
      <trkpt lat="45.87003" lon="1.4029">
        <ele>345</ele>
        <time>2022-05-18T17:51:13Z</time>
      </trkpt>
      <trkpt lat="45.87023" lon="1.40305">
        <ele>346</ele>
        <time>2022-05-18T17:51:16Z</time>
      </trkpt>
      <trkpt lat="45.87043" lon="1.40322">
        <ele>345</ele>
        <time>2022-05-18T17:51:19Z</time>
      </trkpt>
      <trkpt lat="45.87062" lon="1.40341">
        <ele>346</ele>
        <time>2022-05-18T17:51:22Z</time>
      </trkpt>
      <trkpt lat="45.8708" lon="1.40356">
        <ele>347</ele>
        <time>2022-05-18T17:51:25Z</time>
      </trkpt>
      <trkpt lat="45.87098" lon="1.40367">
        <ele>347</ele>
        <time>2022-05-18T17:51:28Z</time>
      </trkpt>
      <trkpt lat="45.87112" lon="1.4038">
        <ele>348</ele>
        <time>2022-05-18T17:51:31Z</time>
      </trkpt>
      <trkpt lat="45.87097" lon="1.40395">
        <ele>350</ele>
        <time>2022-05-18T17:51:36Z</time>
      </trkpt>
      <trkpt lat="45.87079" lon="1.40399">
        <ele>351</ele>
        <time>2022-05-18T17:51:39Z</time>
      </trkpt>
      <trkpt lat="45.8706" lon="1.40406">
        <ele>352</ele>
        <time>2022-05-18T17:51:42Z</time>
      </trkpt>
      <trkpt lat="45.87044" lon="1.40415">
        <ele>353</ele>
        <time>2022-05-18T17:51:45Z</time>
      </trkpt>
      <trkpt lat="45.8703" lon="1.40424">
        <ele>353</ele>
        <time>2022-05-18T17:51:48Z</time>
      </trkpt>
      <trkpt lat="45.87014" lon="1.40428">
        <ele>353</ele>
        <time>2022-05-18T17:51:51Z</time>
      </trkpt>
      <trkpt lat="45.86995" lon="1.40431">
        <ele>354</ele>
        <time>2022-05-18T17:51:54Z</time>
      </trkpt>
      <trkpt lat="45.86976" lon="1.40436">
        <ele>354</ele>
        <time>2022-05-18T17:51:58Z</time>
      </trkpt>
      <trkpt lat="45.86958" lon="1.4044">
        <ele>354</ele>
        <time>2022-05-18T17:52:03Z</time>
      </trkpt>
      <trkpt lat="45.8694" lon="1.40449">
        <ele>355</ele>
        <time>2022-05-18T17:52:10Z</time>
      </trkpt>
      <trkpt lat="45.86928" lon="1.40475">
        <ele>355</ele>
        <time>2022-05-18T17:52:16Z</time>
      </trkpt>
      <trkpt lat="45.86929" lon="1.40502">
        <ele>354</ele>
        <time>2022-05-18T17:52:19Z</time>
      </trkpt>
      <trkpt lat="45.86937" lon="1.40535">
        <ele>354</ele>
        <time>2022-05-18T17:52:22Z</time>
      </trkpt>
      <trkpt lat="45.86949" lon="1.4057">
        <ele>353</ele>
        <time>2022-05-18T17:52:25Z</time>
      </trkpt>
      <trkpt lat="45.86964" lon="1.40609">
        <ele>351</ele>
        <time>2022-05-18T17:52:28Z</time>
      </trkpt>
      <trkpt lat="45.86979" lon="1.40645">
        <ele>348</ele>
        <time>2022-05-18T17:52:31Z</time>
      </trkpt>
      <trkpt lat="45.86988" lon="1.40669">
        <ele>345</ele>
        <time>2022-05-18T17:52:34Z</time>
      </trkpt>
      <trkpt lat="45.86997" lon="1.40691">
        <ele>344</ele>
        <time>2022-05-18T17:52:37Z</time>
      </trkpt>
      <trkpt lat="45.87013" lon="1.40709">
        <ele>343</ele>
        <time>2022-05-18T17:52:40Z</time>
      </trkpt>
      <trkpt lat="45.87028" lon="1.40729">
        <ele>342</ele>
        <time>2022-05-18T17:52:44Z</time>
      </trkpt>
      <trkpt lat="45.87035" lon="1.40762">
        <ele>340</ele>
        <time>2022-05-18T17:52:50Z</time>
      </trkpt>
      <trkpt lat="45.87026" lon="1.40787">
        <ele>339</ele>
        <time>2022-05-18T17:52:53Z</time>
      </trkpt>
      <trkpt lat="45.87016" lon="1.4081">
        <ele>338</ele>
        <time>2022-05-18T17:52:56Z</time>
      </trkpt>
      <trkpt lat="45.87005" lon="1.40825">
        <ele>338</ele>
        <time>2022-05-18T17:53:00Z</time>
      </trkpt>
      <trkpt lat="45.86989" lon="1.4083">
        <ele>339</ele>
        <time>2022-05-18T17:53:07Z</time>
      </trkpt>
      <trkpt lat="45.86973" lon="1.40842">
        <ele>341</ele>
        <time>2022-05-18T17:53:13Z</time>
      </trkpt>
      <trkpt lat="45.86963" lon="1.40856">
        <ele>342</ele>
        <time>2022-05-18T17:53:16Z</time>
      </trkpt>
      <trkpt lat="45.86952" lon="1.40871">
        <ele>344</ele>
        <time>2022-05-18T17:53:19Z</time>
      </trkpt>
      <trkpt lat="45.86937" lon="1.40889">
        <ele>346</ele>
        <time>2022-05-18T17:53:23Z</time>
      </trkpt>
      <trkpt lat="45.86926" lon="1.40904">
        <ele>347</ele>
        <time>2022-05-18T17:53:26Z</time>
      </trkpt>
      <trkpt lat="45.86912" lon="1.4092">
        <ele>348</ele>
        <time>2022-05-18T17:53:29Z</time>
      </trkpt>
      <trkpt lat="45.86895" lon="1.40937">
        <ele>348</ele>
        <time>2022-05-18T17:53:32Z</time>
      </trkpt>
      <trkpt lat="45.86879" lon="1.40957">
        <ele>347</ele>
        <time>2022-05-18T17:53:35Z</time>
      </trkpt>
      <trkpt lat="45.86864" lon="1.4098">
        <ele>346</ele>
        <time>2022-05-18T17:53:38Z</time>
      </trkpt>
      <trkpt lat="45.86853" lon="1.41002">
        <ele>345</ele>
        <time>2022-05-18T17:53:41Z</time>
      </trkpt>
      <trkpt lat="45.86844" lon="1.41023">
        <ele>343</ele>
        <time>2022-05-18T17:53:44Z</time>
      </trkpt>
      <trkpt lat="45.86832" lon="1.41041">
        <ele>343</ele>
        <time>2022-05-18T17:53:47Z</time>
      </trkpt>
      <trkpt lat="45.86822" lon="1.41058">
        <ele>343</ele>
        <time>2022-05-18T17:53:50Z</time>
      </trkpt>
      <trkpt lat="45.8681" lon="1.41076">
        <ele>343</ele>
        <time>2022-05-18T17:53:53Z</time>
      </trkpt>
      <trkpt lat="45.86799" lon="1.41094">
        <ele>344</ele>
        <time>2022-05-18T17:53:56Z</time>
      </trkpt>
      <trkpt lat="45.86786" lon="1.41111">
        <ele>345</ele>
        <time>2022-05-18T17:53:59Z</time>
      </trkpt>
      <trkpt lat="45.86773" lon="1.41126">
        <ele>344</ele>
        <time>2022-05-18T17:54:02Z</time>
      </trkpt>
      <trkpt lat="45.8676" lon="1.4114">
        <ele>344</ele>
        <time>2022-05-18T17:54:05Z</time>
      </trkpt>
      <trkpt lat="45.86747" lon="1.4115">
        <ele>344</ele>
        <time>2022-05-18T17:54:08Z</time>
      </trkpt>
      <trkpt lat="45.86732" lon="1.41156">
        <ele>344</ele>
        <time>2022-05-18T17:54:11Z</time>
      </trkpt>
      <trkpt lat="45.86717" lon="1.41154">
        <ele>345</ele>
        <time>2022-05-18T17:54:14Z</time>
      </trkpt>
      <trkpt lat="45.867" lon="1.41149">
        <ele>345</ele>
        <time>2022-05-18T17:54:17Z</time>
      </trkpt>
      <trkpt lat="45.86684" lon="1.41142">
        <ele>345</ele>
        <time>2022-05-18T17:54:20Z</time>
      </trkpt>
      <trkpt lat="45.86669" lon="1.41129">
        <ele>345</ele>
        <time>2022-05-18T17:54:24Z</time>
      </trkpt>
      <trkpt lat="45.86647" lon="1.41117">
        <ele>346</ele>
        <time>2022-05-18T17:54:28Z</time>
      </trkpt>
      <trkpt lat="45.86628" lon="1.41104">
        <ele>346</ele>
        <time>2022-05-18T17:54:31Z</time>
      </trkpt>
      <trkpt lat="45.86608" lon="1.41091">
        <ele>346</ele>
        <time>2022-05-18T17:54:34Z</time>
      </trkpt>
      <trkpt lat="45.86585" lon="1.4108">
        <ele>345</ele>
        <time>2022-05-18T17:54:37Z</time>
      </trkpt>
      <trkpt lat="45.86562" lon="1.4107">
        <ele>345</ele>
        <time>2022-05-18T17:54:40Z</time>
      </trkpt>
      <trkpt lat="45.86539" lon="1.41058">
        <ele>346</ele>
        <time>2022-05-18T17:54:43Z</time>
      </trkpt>
      <trkpt lat="45.86514" lon="1.41045">
        <ele>346</ele>
        <time>2022-05-18T17:54:46Z</time>
      </trkpt>
      <trkpt lat="45.86491" lon="1.41032">
        <ele>345</ele>
        <time>2022-05-18T17:54:49Z</time>
      </trkpt>
      <trkpt lat="45.86469" lon="1.41023">
        <ele>345</ele>
        <time>2022-05-18T17:54:52Z</time>
      </trkpt>
      <trkpt lat="45.86448" lon="1.4102">
        <ele>346</ele>
        <time>2022-05-18T17:54:55Z</time>
      </trkpt>
      <trkpt lat="45.8643" lon="1.41024">
        <ele>346</ele>
        <time>2022-05-18T17:54:58Z</time>
      </trkpt>
      <trkpt lat="45.86416" lon="1.41031">
        <ele>346</ele>
        <time>2022-05-18T17:55:01Z</time>
      </trkpt>
      <trkpt lat="45.86402" lon="1.4104">
        <ele>345</ele>
        <time>2022-05-18T17:55:04Z</time>
      </trkpt>
      <trkpt lat="45.86386" lon="1.41058">
        <ele>345</ele>
        <time>2022-05-18T17:55:07Z</time>
      </trkpt>
      <trkpt lat="45.86372" lon="1.41081">
        <ele>343</ele>
        <time>2022-05-18T17:55:10Z</time>
      </trkpt>
      <trkpt lat="45.86358" lon="1.41105">
        <ele>343</ele>
        <time>2022-05-18T17:55:13Z</time>
      </trkpt>
      <trkpt lat="45.86344" lon="1.41124">
        <ele>342</ele>
        <time>2022-05-18T17:55:16Z</time>
      </trkpt>
      <trkpt lat="45.86332" lon="1.41141">
        <ele>341</ele>
        <time>2022-05-18T17:55:19Z</time>
      </trkpt>
      <trkpt lat="45.86317" lon="1.41157">
        <ele>341</ele>
        <time>2022-05-18T17:55:22Z</time>
      </trkpt>
      <trkpt lat="45.86301" lon="1.41174">
        <ele>341</ele>
        <time>2022-05-18T17:55:25Z</time>
      </trkpt>
      <trkpt lat="45.86284" lon="1.41186">
        <ele>341</ele>
        <time>2022-05-18T17:55:28Z</time>
      </trkpt>
      <trkpt lat="45.86263" lon="1.41195">
        <ele>341</ele>
        <time>2022-05-18T17:55:31Z</time>
      </trkpt>
      <trkpt lat="45.86242" lon="1.41205">
        <ele>341</ele>
        <time>2022-05-18T17:55:34Z</time>
      </trkpt>
      <trkpt lat="45.86223" lon="1.41222">
        <ele>340</ele>
        <time>2022-05-18T17:55:37Z</time>
      </trkpt>
      <trkpt lat="45.86201" lon="1.41234">
        <ele>340</ele>
        <time>2022-05-18T17:55:40Z</time>
      </trkpt>
      <trkpt lat="45.86177" lon="1.41244">
        <ele>340</ele>
        <time>2022-05-18T17:55:43Z</time>
      </trkpt>
      <trkpt lat="45.86155" lon="1.41254">
        <ele>340</ele>
        <time>2022-05-18T17:55:46Z</time>
      </trkpt>
      <trkpt lat="45.86132" lon="1.41263">
        <ele>339</ele>
        <time>2022-05-18T17:55:49Z</time>
      </trkpt>
      <trkpt lat="45.8611" lon="1.4127">
        <ele>339</ele>
        <time>2022-05-18T17:55:52Z</time>
      </trkpt>
      <trkpt lat="45.86091" lon="1.4128">
        <ele>340</ele>
        <time>2022-05-18T17:55:55Z</time>
      </trkpt>
      <trkpt lat="45.8607" lon="1.41289">
        <ele>340</ele>
        <time>2022-05-18T17:55:58Z</time>
      </trkpt>
      <trkpt lat="45.86052" lon="1.41301">
        <ele>341</ele>
        <time>2022-05-18T17:56:01Z</time>
      </trkpt>
      <trkpt lat="45.86031" lon="1.41313">
        <ele>341</ele>
        <time>2022-05-18T17:56:04Z</time>
      </trkpt>
      <trkpt lat="45.8601" lon="1.4132">
        <ele>341</ele>
        <time>2022-05-18T17:56:07Z</time>
      </trkpt>
      <trkpt lat="45.85991" lon="1.41328">
        <ele>341</ele>
        <time>2022-05-18T17:56:10Z</time>
      </trkpt>
      <trkpt lat="45.85972" lon="1.4134">
        <ele>340</ele>
        <time>2022-05-18T17:56:13Z</time>
      </trkpt>
      <trkpt lat="45.85954" lon="1.41349">
        <ele>339</ele>
        <time>2022-05-18T17:56:16Z</time>
      </trkpt>
      <trkpt lat="45.85935" lon="1.41359">
        <ele>337</ele>
        <time>2022-05-18T17:56:19Z</time>
      </trkpt>
      <trkpt lat="45.85916" lon="1.4137">
        <ele>336</ele>
        <time>2022-05-18T17:56:22Z</time>
      </trkpt>
      <trkpt lat="45.859" lon="1.41382">
        <ele>336</ele>
        <time>2022-05-18T17:56:25Z</time>
      </trkpt>
      <trkpt lat="45.85884" lon="1.41391">
        <ele>336</ele>
        <time>2022-05-18T17:56:28Z</time>
      </trkpt>
      <trkpt lat="45.85869" lon="1.41396">
        <ele>336</ele>
        <time>2022-05-18T17:56:31Z</time>
      </trkpt>
      <trkpt lat="45.85852" lon="1.414">
        <ele>337</ele>
        <time>2022-05-18T17:56:34Z</time>
      </trkpt>
      <trkpt lat="45.85833" lon="1.414">
        <ele>336</ele>
        <time>2022-05-18T17:56:37Z</time>
      </trkpt>
      <trkpt lat="45.85814" lon="1.41401">
        <ele>335</ele>
        <time>2022-05-18T17:56:40Z</time>
      </trkpt>
      <trkpt lat="45.85793" lon="1.41401">
        <ele>334</ele>
        <time>2022-05-18T17:56:43Z</time>
      </trkpt>
      <trkpt lat="45.85772" lon="1.41407">
        <ele>335</ele>
        <time>2022-05-18T17:56:46Z</time>
      </trkpt>
      <trkpt lat="45.85753" lon="1.41412">
        <ele>335</ele>
        <time>2022-05-18T17:56:49Z</time>
      </trkpt>
      <trkpt lat="45.85736" lon="1.4142">
        <ele>335</ele>
        <time>2022-05-18T17:56:52Z</time>
      </trkpt>
      <trkpt lat="45.85716" lon="1.41429">
        <ele>335</ele>
        <time>2022-05-18T17:56:55Z</time>
      </trkpt>
      <trkpt lat="45.85696" lon="1.41441">
        <ele>335</ele>
        <time>2022-05-18T17:56:58Z</time>
      </trkpt>
      <trkpt lat="45.8568" lon="1.41458">
        <ele>335</ele>
        <time>2022-05-18T17:57:01Z</time>
      </trkpt>
      <trkpt lat="45.85664" lon="1.41473">
        <ele>335</ele>
        <time>2022-05-18T17:57:04Z</time>
      </trkpt>
      <trkpt lat="45.85648" lon="1.41487">
        <ele>334</ele>
        <time>2022-05-18T17:57:07Z</time>
      </trkpt>
      <trkpt lat="45.85629" lon="1.41498">
        <ele>332</ele>
        <time>2022-05-18T17:57:10Z</time>
      </trkpt>
      <trkpt lat="45.85612" lon="1.4151">
        <ele>332</ele>
        <time>2022-05-18T17:57:13Z</time>
      </trkpt>
      <trkpt lat="45.85595" lon="1.41521">
        <ele>332</ele>
        <time>2022-05-18T17:57:16Z</time>
      </trkpt>
      <trkpt lat="45.85579" lon="1.41534">
        <ele>333</ele>
        <time>2022-05-18T17:57:19Z</time>
      </trkpt>
      <trkpt lat="45.85563" lon="1.41544">
        <ele>333</ele>
        <time>2022-05-18T17:57:22Z</time>
      </trkpt>
      <trkpt lat="45.85541" lon="1.41549">
        <ele>333</ele>
        <time>2022-05-18T17:57:25Z</time>
      </trkpt>
      <trkpt lat="45.85519" lon="1.4155">
        <ele>334</ele>
        <time>2022-05-18T17:57:28Z</time>
      </trkpt>
      <trkpt lat="45.85499" lon="1.41553">
        <ele>335</ele>
        <time>2022-05-18T17:57:31Z</time>
      </trkpt>
      <trkpt lat="45.85481" lon="1.41554">
        <ele>334</ele>
        <time>2022-05-18T17:57:34Z</time>
      </trkpt>
      <trkpt lat="45.85471" lon="1.41547">
        <ele>331</ele>
        <time>2022-05-18T17:57:54Z</time>
      </trkpt>
      <trkpt lat="45.85496" lon="1.41553">
        <ele>326</ele>
        <time>2022-05-18T17:58:24Z</time>
      </trkpt>
      <trkpt lat="45.85473" lon="1.41546">
        <ele>329</ele>
        <time>2022-05-18T17:58:49Z</time>
      </trkpt>
      <trkpt lat="45.85472" lon="1.41523">
        <ele>328</ele>
        <time>2022-05-18T17:58:54Z</time>
      </trkpt>
      <trkpt lat="45.85467" lon="1.41504">
        <ele>332</ele>
        <time>2022-05-18T17:58:57Z</time>
      </trkpt>
      <trkpt lat="45.85462" lon="1.41484">
        <ele>332</ele>
        <time>2022-05-18T17:59:00Z</time>
      </trkpt>
      <trkpt lat="45.85457" lon="1.41464">
        <ele>330</ele>
        <time>2022-05-18T17:59:03Z</time>
      </trkpt>
      <trkpt lat="45.8545" lon="1.41442">
        <ele>330</ele>
        <time>2022-05-18T17:59:06Z</time>
      </trkpt>
      <trkpt lat="45.85444" lon="1.41416">
        <ele>330</ele>
        <time>2022-05-18T17:59:09Z</time>
      </trkpt>
      <trkpt lat="45.85437" lon="1.4139">
        <ele>329</ele>
        <time>2022-05-18T17:59:12Z</time>
      </trkpt>
      <trkpt lat="45.8543" lon="1.41364">
        <ele>329</ele>
        <time>2022-05-18T17:59:15Z</time>
      </trkpt>
      <trkpt lat="45.85424" lon="1.41337">
        <ele>330</ele>
        <time>2022-05-18T17:59:18Z</time>
      </trkpt>
      <trkpt lat="45.85418" lon="1.41309">
        <ele>330</ele>
        <time>2022-05-18T17:59:21Z</time>
      </trkpt>
      <trkpt lat="45.85413" lon="1.41282">
        <ele>330</ele>
        <time>2022-05-18T17:59:24Z</time>
      </trkpt>
      <trkpt lat="45.85408" lon="1.41253">
        <ele>331</ele>
        <time>2022-05-18T17:59:27Z</time>
      </trkpt>
      <trkpt lat="45.85401" lon="1.41224">
        <ele>331</ele>
        <time>2022-05-18T17:59:30Z</time>
      </trkpt>
      <trkpt lat="45.85394" lon="1.41197">
        <ele>331</ele>
        <time>2022-05-18T17:59:33Z</time>
      </trkpt>
      <trkpt lat="45.85384" lon="1.41168">
        <ele>330</ele>
        <time>2022-05-18T17:59:36Z</time>
      </trkpt>
      <trkpt lat="45.85375" lon="1.41139">
        <ele>329</ele>
        <time>2022-05-18T17:59:39Z</time>
      </trkpt>
      <trkpt lat="45.85365" lon="1.41109">
        <ele>328</ele>
        <time>2022-05-18T17:59:42Z</time>
      </trkpt>
      <trkpt lat="45.85355" lon="1.41076">
        <ele>328</ele>
        <time>2022-05-18T17:59:45Z</time>
      </trkpt>
      <trkpt lat="45.85343" lon="1.41042">
        <ele>327</ele>
        <time>2022-05-18T17:59:48Z</time>
      </trkpt>
      <trkpt lat="45.85332" lon="1.41009">
        <ele>327</ele>
        <time>2022-05-18T17:59:51Z</time>
      </trkpt>
      <trkpt lat="45.85321" lon="1.40979">
        <ele>326</ele>
        <time>2022-05-18T17:59:54Z</time>
      </trkpt>
      <trkpt lat="45.85308" lon="1.40952">
        <ele>326</ele>
        <time>2022-05-18T17:59:57Z</time>
      </trkpt>
      <trkpt lat="45.85291" lon="1.40926">
        <ele>325</ele>
        <time>2022-05-18T18:00:00Z</time>
      </trkpt>
      <trkpt lat="45.85274" lon="1.409">
        <ele>324</ele>
        <time>2022-05-18T18:00:03Z</time>
      </trkpt>
      <trkpt lat="45.85259" lon="1.40877">
        <ele>324</ele>
        <time>2022-05-18T18:00:06Z</time>
      </trkpt>
      <trkpt lat="45.85244" lon="1.40859">
        <ele>324</ele>
        <time>2022-05-18T18:00:09Z</time>
      </trkpt>
      <trkpt lat="45.85231" lon="1.40842">
        <ele>324</ele>
        <time>2022-05-18T18:00:12Z</time>
      </trkpt>
      <trkpt lat="45.85217" lon="1.40822">
        <ele>324</ele>
        <time>2022-05-18T18:00:15Z</time>
      </trkpt>
      <trkpt lat="45.85199" lon="1.40808">
        <ele>324</ele>
        <time>2022-05-18T18:00:18Z</time>
      </trkpt>
      <trkpt lat="45.85183" lon="1.40793">
        <ele>323</ele>
        <time>2022-05-18T18:00:21Z</time>
      </trkpt>
      <trkpt lat="45.85179" lon="1.40764">
        <ele>322</ele>
        <time>2022-05-18T18:00:24Z</time>
      </trkpt>
      <trkpt lat="45.85181" lon="1.40734">
        <ele>320</ele>
        <time>2022-05-18T18:00:27Z</time>
      </trkpt>
      <trkpt lat="45.85183" lon="1.40706">
        <ele>319</ele>
        <time>2022-05-18T18:00:30Z</time>
      </trkpt>
      <trkpt lat="45.85184" lon="1.40682">
        <ele>319</ele>
        <time>2022-05-18T18:00:33Z</time>
      </trkpt>
      <trkpt lat="45.85184" lon="1.40659">
        <ele>320</ele>
        <time>2022-05-18T18:00:36Z</time>
      </trkpt>
      <trkpt lat="45.85184" lon="1.40631">
        <ele>321</ele>
        <time>2022-05-18T18:00:39Z</time>
      </trkpt>
      <trkpt lat="45.85182" lon="1.40599">
        <ele>320</ele>
        <time>2022-05-18T18:00:42Z</time>
      </trkpt>
      <trkpt lat="45.8518" lon="1.40559">
        <ele>319</ele>
        <time>2022-05-18T18:00:45Z</time>
      </trkpt>
      <trkpt lat="45.85165" lon="1.40521">
        <ele>318</ele>
        <time>2022-05-18T18:00:48Z</time>
      </trkpt>
      <trkpt lat="45.8514" lon="1.40495">
        <ele>318</ele>
        <time>2022-05-18T18:00:51Z</time>
      </trkpt>
      <trkpt lat="45.85121" lon="1.40465">
        <ele>318</ele>
        <time>2022-05-18T18:00:54Z</time>
      </trkpt>
      <trkpt lat="45.85116" lon="1.40417">
        <ele>316</ele>
        <time>2022-05-18T18:00:57Z</time>
      </trkpt>
      <trkpt lat="45.85112" lon="1.40376">
        <ele>312</ele>
        <time>2022-05-18T18:01:00Z</time>
      </trkpt>
      <trkpt lat="45.85113" lon="1.40336">
        <ele>308</ele>
        <time>2022-05-18T18:01:03Z</time>
      </trkpt>
      <trkpt lat="45.85115" lon="1.403">
        <ele>307</ele>
        <time>2022-05-18T18:01:06Z</time>
      </trkpt>
      <trkpt lat="45.85117" lon="1.40268">
        <ele>306</ele>
        <time>2022-05-18T18:01:09Z</time>
      </trkpt>
      <trkpt lat="45.85118" lon="1.40232">
        <ele>305</ele>
        <time>2022-05-18T18:01:12Z</time>
      </trkpt>
      <trkpt lat="45.8512" lon="1.40195">
        <ele>304</ele>
        <time>2022-05-18T18:01:15Z</time>
      </trkpt>
      <trkpt lat="45.85129" lon="1.40157">
        <ele>304</ele>
        <time>2022-05-18T18:01:18Z</time>
      </trkpt>
      <trkpt lat="45.85139" lon="1.40121">
        <ele>304</ele>
        <time>2022-05-18T18:01:21Z</time>
      </trkpt>
      <trkpt lat="45.8514" lon="1.40085">
        <ele>304</ele>
        <time>2022-05-18T18:01:24Z</time>
      </trkpt>
      <trkpt lat="45.85141" lon="1.40052">
        <ele>305</ele>
        <time>2022-05-18T18:01:27Z</time>
      </trkpt>
      <trkpt lat="45.85141" lon="1.4002">
        <ele>304</ele>
        <time>2022-05-18T18:01:30Z</time>
      </trkpt>
      <trkpt lat="45.85142" lon="1.39987">
        <ele>302</ele>
        <time>2022-05-18T18:01:33Z</time>
      </trkpt>
      <trkpt lat="45.85143" lon="1.39956">
        <ele>301</ele>
        <time>2022-05-18T18:01:36Z</time>
      </trkpt>
      <trkpt lat="45.85144" lon="1.39924">
        <ele>300</ele>
        <time>2022-05-18T18:01:39Z</time>
      </trkpt>
      <trkpt lat="45.85144" lon="1.39893">
        <ele>299</ele>
        <time>2022-05-18T18:01:42Z</time>
      </trkpt>
      <trkpt lat="45.85148" lon="1.39862">
        <ele>299</ele>
        <time>2022-05-18T18:01:45Z</time>
      </trkpt>
      <trkpt lat="45.85154" lon="1.39834">
        <ele>299</ele>
        <time>2022-05-18T18:01:48Z</time>
      </trkpt>
      <trkpt lat="45.85163" lon="1.39811">
        <ele>300</ele>
        <time>2022-05-18T18:01:51Z</time>
      </trkpt>
      <trkpt lat="45.85174" lon="1.39789">
        <ele>301</ele>
        <time>2022-05-18T18:01:54Z</time>
      </trkpt>
      <trkpt lat="45.85172" lon="1.39763">
        <ele>301</ele>
        <time>2022-05-18T18:01:57Z</time>
      </trkpt>
      <trkpt lat="45.8517" lon="1.39738">
        <ele>302</ele>
        <time>2022-05-18T18:02:00Z</time>
      </trkpt>
      <trkpt lat="45.85167" lon="1.39713">
        <ele>302</ele>
        <time>2022-05-18T18:02:03Z</time>
      </trkpt>
      <trkpt lat="45.85161" lon="1.39691">
        <ele>302</ele>
        <time>2022-05-18T18:02:06Z</time>
      </trkpt>
      <trkpt lat="45.85156" lon="1.3968">
        <ele>311.5</ele>
      </trkpt>
      <trkpt lat="45.8515" lon="1.39666">
        <ele>301</ele>
        <time>2022-05-18T18:02:09Z</time>
      </trkpt>
      <trkpt lat="45.85127" lon="1.39614">
        <ele>298</ele>
        <time>2022-05-18T18:02:15Z</time>
      </trkpt>
      <trkpt lat="45.85117" lon="1.3959">
        <ele>298</ele>
        <time>2022-05-18T18:02:18Z</time>
      </trkpt>
      <trkpt lat="45.85107" lon="1.39565">
        <ele>297</ele>
        <time>2022-05-18T18:02:21Z</time>
      </trkpt>
      <trkpt lat="45.85096" lon="1.39541">
        <ele>296</ele>
        <time>2022-05-18T18:02:24Z</time>
      </trkpt>
      <trkpt lat="45.85087" lon="1.39518">
        <ele>296</ele>
        <time>2022-05-18T18:02:27Z</time>
      </trkpt>
      <trkpt lat="45.85078" lon="1.39493">
        <ele>295</ele>
        <time>2022-05-18T18:02:30Z</time>
      </trkpt>
      <trkpt lat="45.85068" lon="1.39472">
        <ele>294</ele>
        <time>2022-05-18T18:02:33Z</time>
      </trkpt>
      <trkpt lat="45.8505" lon="1.39453">
        <ele>294</ele>
        <time>2022-05-18T18:02:36Z</time>
      </trkpt>
      <trkpt lat="45.85029" lon="1.39445">
        <ele>295</ele>
        <time>2022-05-18T18:02:39Z</time>
      </trkpt>
      <trkpt lat="45.85009" lon="1.39438">
        <ele>295</ele>
        <time>2022-05-18T18:02:42Z</time>
      </trkpt>
      <trkpt lat="45.84991" lon="1.39431">
        <ele>296</ele>
        <time>2022-05-18T18:02:45Z</time>
      </trkpt>
      <trkpt lat="45.84974" lon="1.39426">
        <ele>296</ele>
        <time>2022-05-18T18:02:48Z</time>
      </trkpt>
      <trkpt lat="45.8494" lon="1.39417">
        <ele>297</ele>
        <time>2022-05-18T18:02:55Z</time>
      </trkpt>
      <trkpt lat="45.84942" lon="1.39343">
        <ele>300</ele>
        <time>2022-05-18T18:03:08Z</time>
      </trkpt>
      <trkpt lat="45.84951" lon="1.39316">
        <ele>300</ele>
        <time>2022-05-18T18:03:11Z</time>
      </trkpt>
      <trkpt lat="45.84958" lon="1.39292">
        <ele>300</ele>
        <time>2022-05-18T18:03:14Z</time>
      </trkpt>
      <trkpt lat="45.84966" lon="1.3927">
        <ele>301</ele>
        <time>2022-05-18T18:03:17Z</time>
      </trkpt>
      <trkpt lat="45.84971" lon="1.3925">
        <ele>302</ele>
        <time>2022-05-18T18:03:20Z</time>
      </trkpt>
      <trkpt lat="45.84978" lon="1.3923">
        <ele>303</ele>
        <time>2022-05-18T18:03:23Z</time>
      </trkpt>
      <trkpt lat="45.84987" lon="1.39214">
        <ele>302</ele>
        <time>2022-05-18T18:03:26Z</time>
      </trkpt>
      <trkpt lat="45.85006" lon="1.39198">
        <ele>308.6</ele>
      </trkpt>
      <trkpt lat="45.85032" lon="1.39208">
        <ele>302</ele>
        <time>2022-05-18T18:03:35Z</time>
      </trkpt>
      <trkpt lat="45.8504" lon="1.39211">
        <ele>307</ele>
        <time>2022-05-18T18:03:39Z</time>
      </trkpt>
      <trkpt lat="45.8504" lon="1.39207">
        <ele>307</ele>
        <time>2022-05-18T15:06:49Z</time>
      </trkpt>
    </trkseg>
  </trk>
</gpx>